<?xml version='1.0' encoding='UTF-8'?>
<gpx version="1.1" creator="https://www.komoot.de" xmlns="http://www.topografix.com/GPX/1/1" xmlns:xsi="http://www.w3.org/2001/XMLSchema-instance" xsi:schemaLocation="http://www.topografix.com/GPX/1/1 http://www.topografix.com/GPX/1/1/gpx.xsd">
  <metadata>
    <name>Randonnée Gravel 2026 (4/5/26)</name>
    <author>
      <link href="https://www.komoot.de">
        <text>komoot</text>
        <type>text/html</type>
      </link>
    </author>
  </metadata>
  <trk>
    <name>Randonnée Gravel 2026 (4/5/26)</name>
    <trkseg>
      <trkpt lat="43.655928" lon="10.630243">
        <ele>15.926747</ele>
        <time>2026-05-04T20:58:44.377Z</time>
      </trkpt>
      <trkpt lat="43.656002" lon="10.629657">
        <ele>15.926747</ele>
        <time>2026-05-04T20:58:54.087Z</time>
      </trkpt>
      <trkpt lat="43.655938" lon="10.629641">
        <ele>15.926747</ele>
        <time>2026-05-04T20:58:58.588Z</time>
      </trkpt>
      <trkpt lat="43.655783" lon="10.630798">
        <ele>15.506159</ele>
        <time>2026-05-04T20:59:12.454Z</time>
      </trkpt>
      <trkpt lat="43.655747" lon="10.631021">
        <ele>15.350763</ele>
        <time>2026-05-04T20:59:14.995Z</time>
      </trkpt>
      <trkpt lat="43.655659" lon="10.631488">
        <ele>15.022551</ele>
        <time>2026-05-04T20:59:20.225Z</time>
      </trkpt>
      <trkpt lat="43.655590" lon="10.631469">
        <ele>14.956414</ele>
        <time>2026-05-04T20:59:21.288Z</time>
      </trkpt>
      <trkpt lat="43.655438" lon="10.631528">
        <ele>14.808000</ele>
        <time>2026-05-04T20:59:23.688Z</time>
      </trkpt>
      <trkpt lat="43.655125" lon="10.631413">
        <ele>14.503550</ele>
        <time>2026-05-04T20:59:28.663Z</time>
      </trkpt>
      <trkpt lat="43.654984" lon="10.631432">
        <ele>14.370376</ele>
        <time>2026-05-04T20:59:30.859Z</time>
      </trkpt>
      <trkpt lat="43.654679" lon="10.631313">
        <ele>14.120002</ele>
        <time>2026-05-04T20:59:35.753Z</time>
      </trkpt>
      <trkpt lat="43.654628" lon="10.631289">
        <ele>14.084085</ele>
        <time>2026-05-04T20:59:36.585Z</time>
      </trkpt>
      <trkpt lat="43.654604" lon="10.631337">
        <ele>14.055942</ele>
        <time>2026-05-04T20:59:37.238Z</time>
      </trkpt>
      <trkpt lat="43.654409" lon="10.631137">
        <ele>13.894056</ele>
        <time>2026-05-04T20:59:40.983Z</time>
      </trkpt>
      <trkpt lat="43.654390" lon="10.631087">
        <ele>13.866815</ele>
        <time>2026-05-04T20:59:41.618Z</time>
      </trkpt>
      <trkpt lat="43.654348" lon="10.630904">
        <ele>13.774210</ele>
        <time>2026-05-04T20:59:43.780Z</time>
      </trkpt>
      <trkpt lat="43.654250" lon="10.629909">
        <ele>13.289843</ele>
        <time>2026-05-04T20:59:55.557Z</time>
      </trkpt>
      <trkpt lat="43.654165" lon="10.629503">
        <ele>13.085974</ele>
        <time>2026-05-04T21:00:00.719Z</time>
      </trkpt>
      <trkpt lat="43.653977" lon="10.628956">
        <ele>12.993882</ele>
        <time>2026-05-04T21:00:08.280Z</time>
      </trkpt>
      <trkpt lat="43.653551" lon="10.628080">
        <ele>12.903870</ele>
        <time>2026-05-04T21:00:21.871Z</time>
      </trkpt>
      <trkpt lat="43.653520" lon="10.627958">
        <ele>12.892843</ele>
        <time>2026-05-04T21:00:23.536Z</time>
      </trkpt>
      <trkpt lat="43.653513" lon="10.627930">
        <ele>12.890316</ele>
        <time>2026-05-04T21:00:23.914Z</time>
      </trkpt>
      <trkpt lat="43.653511" lon="10.627778">
        <ele>12.877351</ele>
        <time>2026-05-04T21:00:25.890Z</time>
      </trkpt>
      <trkpt lat="43.653522" lon="10.627635">
        <ele>12.865087</ele>
        <time>2026-05-04T21:00:27.724Z</time>
      </trkpt>
      <trkpt lat="43.653462" lon="10.627401">
        <ele>12.843915</ele>
        <time>2026-05-04T21:00:30.865Z</time>
      </trkpt>
      <trkpt lat="43.653390" lon="10.627308">
        <ele>12.832300</ele>
        <time>2026-05-04T21:00:32.539Z</time>
      </trkpt>
      <trkpt lat="43.653309" lon="10.627252">
        <ele>12.825504</ele>
        <time>2026-05-04T21:00:34.082Z</time>
      </trkpt>
      <trkpt lat="43.653194" lon="10.627236">
        <ele>12.828341</ele>
        <time>2026-05-04T21:00:36.059Z</time>
      </trkpt>
      <trkpt lat="43.653039" lon="10.627318">
        <ele>12.832414</ele>
        <time>2026-05-04T21:00:38.869Z</time>
      </trkpt>
      <trkpt lat="43.652945" lon="10.627477">
        <ele>12.836061</ele>
        <time>2026-05-04T21:00:41.402Z</time>
      </trkpt>
      <trkpt lat="43.652919" lon="10.627674">
        <ele>12.839617</ele>
        <time>2026-05-04T21:00:43.865Z</time>
      </trkpt>
      <trkpt lat="43.652858" lon="10.627921">
        <ele>12.844251</ele>
        <time>2026-05-04T21:00:47.085Z</time>
      </trkpt>
      <trkpt lat="43.652692" lon="10.628222">
        <ele>12.850972</ele>
        <time>2026-05-04T21:00:51.841Z</time>
      </trkpt>
      <trkpt lat="43.651701" lon="10.629282">
        <ele>13.245064</ele>
        <time>2026-05-04T21:01:15.413Z</time>
      </trkpt>
      <trkpt lat="43.651325" lon="10.629680">
        <ele>13.587999</ele>
        <time>2026-05-04T21:01:25.268Z</time>
      </trkpt>
      <trkpt lat="43.651169" lon="10.629782">
        <ele>13.712960</ele>
        <time>2026-05-04T21:01:28.820Z</time>
      </trkpt>
      <trkpt lat="43.650994" lon="10.629836">
        <ele>13.842795</ele>
        <time>2026-05-04T21:01:32.542Z</time>
      </trkpt>
      <trkpt lat="43.650865" lon="10.629799">
        <ele>13.938193</ele>
        <time>2026-05-04T21:01:35.282Z</time>
      </trkpt>
      <trkpt lat="43.650773" lon="10.629697">
        <ele>14.023596</ele>
        <time>2026-05-04T21:01:37.722Z</time>
      </trkpt>
      <trkpt lat="43.650663" lon="10.629624">
        <ele>14.111952</ele>
        <time>2026-05-04T21:01:40.269Z</time>
      </trkpt>
      <trkpt lat="43.650582" lon="10.629626">
        <ele>14.170613</ele>
        <time>2026-05-04T21:01:41.970Z</time>
      </trkpt>
      <trkpt lat="43.650506" lon="10.629668">
        <ele>14.225168</ele>
        <time>2026-05-04T21:01:43.654Z</time>
      </trkpt>
      <trkpt lat="43.650424" lon="10.629794">
        <ele>14.306807</ele>
        <time>2026-05-04T21:01:46.155Z</time>
      </trkpt>
      <trkpt lat="43.650414" lon="10.629829">
        <ele>14.324935</ele>
        <time>2026-05-04T21:01:46.700Z</time>
      </trkpt>
      <trkpt lat="43.650311" lon="10.629978">
        <ele>14.424206</ele>
        <time>2026-05-04T21:01:49.728Z</time>
      </trkpt>
      <trkpt lat="43.650064" lon="10.630088">
        <ele>14.596982</ele>
        <time>2026-05-04T21:01:54.870Z</time>
      </trkpt>
      <trkpt lat="43.648362" lon="10.629594">
        <ele>15.714049</ele>
        <time>2026-05-04T21:02:29.014Z</time>
      </trkpt>
      <trkpt lat="43.647164" lon="10.629249">
        <ele>16.441653</ele>
        <time>2026-05-04T21:02:53.268Z</time>
      </trkpt>
      <trkpt lat="43.646987" lon="10.629197">
        <ele>16.512884</ele>
        <time>2026-05-04T21:02:56.794Z</time>
      </trkpt>
      <trkpt lat="43.646035" lon="10.628916">
        <ele>16.896081</ele>
        <time>2026-05-04T21:03:15.307Z</time>
      </trkpt>
      <trkpt lat="43.644256" lon="10.628405">
        <ele>17.612484</ele>
        <time>2026-05-04T21:03:49.827Z</time>
      </trkpt>
      <trkpt lat="43.643094" lon="10.628072">
        <ele>17.973540</ele>
        <time>2026-05-04T21:04:12.373Z</time>
      </trkpt>
      <trkpt lat="43.642718" lon="10.628002">
        <ele>18.051336</ele>
        <time>2026-05-04T21:04:19.617Z</time>
      </trkpt>
      <trkpt lat="43.642326" lon="10.627982">
        <ele>18.131771</ele>
        <time>2026-05-04T21:04:26.889Z</time>
      </trkpt>
      <trkpt lat="43.641749" lon="10.628010">
        <ele>18.188081</ele>
        <time>2026-05-04T21:04:37.066Z</time>
      </trkpt>
      <trkpt lat="43.641685" lon="10.628016">
        <ele>18.166941</ele>
        <time>2026-05-04T21:04:38.171Z</time>
      </trkpt>
      <trkpt lat="43.640730" lon="10.628111">
        <ele>17.851411</ele>
        <time>2026-05-04T21:04:54.148Z</time>
      </trkpt>
      <trkpt lat="43.640232" lon="10.628496">
        <ele>17.663358</ele>
        <time>2026-05-04T21:05:03.940Z</time>
      </trkpt>
      <trkpt lat="43.640014" lon="10.628718">
        <ele>17.614998</ele>
        <time>2026-05-04T21:05:08.716Z</time>
      </trkpt>
      <trkpt lat="43.639782" lon="10.629060">
        <ele>17.580021</ele>
        <time>2026-05-04T21:05:14.853Z</time>
      </trkpt>
      <trkpt lat="43.639640" lon="10.629420">
        <ele>17.549428</ele>
        <time>2026-05-04T21:05:20.264Z</time>
      </trkpt>
      <trkpt lat="43.639546" lon="10.629871">
        <ele>17.514407</ele>
        <time>2026-05-04T21:05:26.483Z</time>
      </trkpt>
      <trkpt lat="43.639463" lon="10.630073">
        <ele>17.497075</ele>
        <time>2026-05-04T21:05:29.579Z</time>
      </trkpt>
      <trkpt lat="43.639465" lon="10.630218">
        <ele>17.486253</ele>
        <time>2026-05-04T21:05:31.518Z</time>
      </trkpt>
      <trkpt lat="43.638996" lon="10.631122">
        <ele>17.512256</ele>
        <time>2026-05-04T21:05:46.604Z</time>
      </trkpt>
      <trkpt lat="43.638868" lon="10.631772">
        <ele>17.584000</ele>
        <time>2026-05-04T21:05:55.746Z</time>
      </trkpt>
      <trkpt lat="43.638836" lon="10.631878">
        <ele>17.596232</ele>
        <time>2026-05-04T21:05:57.295Z</time>
      </trkpt>
      <trkpt lat="43.638741" lon="10.632043">
        <ele>17.618687</ele>
        <time>2026-05-04T21:06:00.159Z</time>
      </trkpt>
      <trkpt lat="43.638587" lon="10.632190">
        <ele>17.646232</ele>
        <time>2026-05-04T21:06:03.657Z</time>
      </trkpt>
      <trkpt lat="43.637491" lon="10.632823">
        <ele>17.941465</ele>
        <time>2026-05-04T21:06:27.119Z</time>
      </trkpt>
      <trkpt lat="43.636833" lon="10.633185">
        <ele>18.161699</ele>
        <time>2026-05-04T21:06:40.814Z</time>
      </trkpt>
      <trkpt lat="43.636609" lon="10.633248">
        <ele>18.232782</ele>
        <time>2026-05-04T21:06:45.222Z</time>
      </trkpt>
      <trkpt lat="43.636094" lon="10.633303">
        <ele>18.338182</ele>
        <time>2026-05-04T21:06:55.295Z</time>
      </trkpt>
      <trkpt lat="43.635384" lon="10.633149">
        <ele>18.459875</ele>
        <time>2026-05-04T21:07:08.916Z</time>
      </trkpt>
      <trkpt lat="43.635121" lon="10.633194">
        <ele>18.504748</ele>
        <time>2026-05-04T21:07:13.887Z</time>
      </trkpt>
      <trkpt lat="43.634806" lon="10.633306">
        <ele>18.559823</ele>
        <time>2026-05-04T21:07:20.111Z</time>
      </trkpt>
      <trkpt lat="43.634594" lon="10.633447">
        <ele>18.605171</ele>
        <time>2026-05-04T21:07:24.627Z</time>
      </trkpt>
      <trkpt lat="43.634204" lon="10.633809">
        <ele>18.703824</ele>
        <time>2026-05-04T21:07:33.677Z</time>
      </trkpt>
      <trkpt lat="43.634104" lon="10.633901">
        <ele>18.729050</ele>
        <time>2026-05-04T21:07:35.926Z</time>
      </trkpt>
      <trkpt lat="43.633857" lon="10.633902">
        <ele>18.780914</ele>
        <time>2026-05-04T21:07:40.561Z</time>
      </trkpt>
      <trkpt lat="43.633001" lon="10.633702">
        <ele>18.968014</ele>
        <time>2026-05-04T21:07:57.378Z</time>
      </trkpt>
      <trkpt lat="43.632865" lon="10.633739">
        <ele>19.012997</ele>
        <time>2026-05-04T21:08:00.137Z</time>
      </trkpt>
      <trkpt lat="43.632545" lon="10.634508">
        <ele>19.221344</ele>
        <time>2026-05-04T21:08:12.914Z</time>
      </trkpt>
      <trkpt lat="43.632377" lon="10.634772">
        <ele>19.303912</ele>
        <time>2026-05-04T21:08:17.973Z</time>
      </trkpt>
      <trkpt lat="43.632315" lon="10.634911">
        <ele>19.342262</ele>
        <time>2026-05-04T21:08:20.340Z</time>
      </trkpt>
      <trkpt lat="43.632171" lon="10.635325">
        <ele>19.450149</ele>
        <time>2026-05-04T21:08:26.853Z</time>
      </trkpt>
      <trkpt lat="43.632063" lon="10.635430">
        <ele>19.493005</ele>
        <time>2026-05-04T21:08:29.378Z</time>
      </trkpt>
      <trkpt lat="43.631951" lon="10.635458">
        <ele>19.529942</ele>
        <time>2026-05-04T21:08:31.539Z</time>
      </trkpt>
      <trkpt lat="43.631766" lon="10.635443">
        <ele>19.540162</ele>
        <time>2026-05-04T21:08:35.026Z</time>
      </trkpt>
      <trkpt lat="43.631534" lon="10.635378">
        <ele>19.543232</ele>
        <time>2026-05-04T21:08:39.448Z</time>
      </trkpt>
      <trkpt lat="43.631334" lon="10.635272">
        <ele>19.546011</ele>
        <time>2026-05-04T21:08:43.450Z</time>
      </trkpt>
      <trkpt lat="43.631000" lon="10.634979">
        <ele>19.551142</ele>
        <time>2026-05-04T21:08:50.956Z</time>
      </trkpt>
      <trkpt lat="43.630814" lon="10.634862">
        <ele>19.553793</ele>
        <time>2026-05-04T21:08:54.873Z</time>
      </trkpt>
      <trkpt lat="43.630297" lon="10.634692">
        <ele>19.560686</ele>
        <time>2026-05-04T21:09:04.548Z</time>
      </trkpt>
      <trkpt lat="43.629951" lon="10.634688">
        <ele>19.407324</ele>
        <time>2026-05-04T21:09:10.525Z</time>
      </trkpt>
      <trkpt lat="43.629733" lon="10.634720">
        <ele>19.290833</ele>
        <time>2026-05-04T21:09:14.309Z</time>
      </trkpt>
      <trkpt lat="43.629383" lon="10.634877">
        <ele>19.095295</ele>
        <time>2026-05-04T21:09:20.543Z</time>
      </trkpt>
      <trkpt lat="43.629213" lon="10.634858">
        <ele>19.004666</ele>
        <time>2026-05-04T21:09:23.386Z</time>
      </trkpt>
      <trkpt lat="43.629448" lon="10.635097">
        <ele>18.849608</ele>
        <time>2026-05-04T21:09:31.435Z</time>
      </trkpt>
      <trkpt lat="43.628568" lon="10.634642">
        <ele>18.499446</ele>
        <time>2026-05-04T21:09:57.814Z</time>
      </trkpt>
      <trkpt lat="43.627877" lon="10.634399">
        <ele>18.341833</ele>
        <time>2026-05-04T21:10:18.957Z</time>
      </trkpt>
      <trkpt lat="43.627649" lon="10.634395">
        <ele>18.291431</ele>
        <time>2026-05-04T21:10:25.746Z</time>
      </trkpt>
      <trkpt lat="43.627539" lon="10.634429">
        <ele>18.266515</ele>
        <time>2026-05-04T21:10:29.089Z</time>
      </trkpt>
      <trkpt lat="43.626721" lon="10.634909">
        <ele>18.095254</ele>
        <time>2026-05-04T21:10:54.750Z</time>
      </trkpt>
      <trkpt lat="43.626610" lon="10.634974">
        <ele>18.073469</ele>
        <time>2026-05-04T21:10:58.179Z</time>
      </trkpt>
      <trkpt lat="43.626460" lon="10.635016">
        <ele>18.045812</ele>
        <time>2026-05-04T21:11:02.511Z</time>
      </trkpt>
      <trkpt lat="43.626279" lon="10.634986">
        <ele>18.012870</ele>
        <time>2026-05-04T21:11:07.710Z</time>
      </trkpt>
      <trkpt lat="43.626177" lon="10.634934">
        <ele>17.993224</ele>
        <time>2026-05-04T21:11:10.829Z</time>
      </trkpt>
      <trkpt lat="43.625958" lon="10.634745">
        <ele>17.946562</ele>
        <time>2026-05-04T21:11:18.319Z</time>
      </trkpt>
      <trkpt lat="43.625797" lon="10.634671">
        <ele>17.915901</ele>
        <time>2026-05-04T21:11:23.261Z</time>
      </trkpt>
      <trkpt lat="43.625306" lon="10.634717">
        <ele>18.066001</ele>
        <time>2026-05-04T21:11:37.976Z</time>
      </trkpt>
      <trkpt lat="43.624787" lon="10.634779">
        <ele>18.373027</ele>
        <time>2026-05-04T21:11:54.217Z</time>
      </trkpt>
      <trkpt lat="43.624706" lon="10.634788">
        <ele>18.420920</ele>
        <time>2026-05-04T21:11:56.810Z</time>
      </trkpt>
      <trkpt lat="43.624512" lon="10.634774">
        <ele>18.535414</ele>
        <time>2026-05-04T21:12:03.063Z</time>
      </trkpt>
      <trkpt lat="43.624359" lon="10.634702">
        <ele>18.630676</ele>
        <time>2026-05-04T21:12:08.271Z</time>
      </trkpt>
      <trkpt lat="43.624031" lon="10.634390">
        <ele>18.865385</ele>
        <time>2026-05-04T21:12:21.199Z</time>
      </trkpt>
      <trkpt lat="43.623902" lon="10.634338">
        <ele>18.947182</ele>
        <time>2026-05-04T21:12:25.571Z</time>
      </trkpt>
      <trkpt lat="43.623753" lon="10.634343">
        <ele>19.191901</ele>
        <time>2026-05-04T21:12:30.462Z</time>
      </trkpt>
      <trkpt lat="43.623411" lon="10.634468">
        <ele>19.772762</ele>
        <time>2026-05-04T21:12:42.112Z</time>
      </trkpt>
      <trkpt lat="43.622870" lon="10.634403">
        <ele>20.664397</ele>
        <time>2026-05-04T21:13:00.996Z</time>
      </trkpt>
      <trkpt lat="43.622374" lon="10.634301">
        <ele>21.487767</ele>
        <time>2026-05-04T21:13:19.507Z</time>
      </trkpt>
      <trkpt lat="43.622238" lon="10.634248">
        <ele>21.719785</ele>
        <time>2026-05-04T21:13:24.729Z</time>
      </trkpt>
      <trkpt lat="43.622102" lon="10.634111">
        <ele>21.971179</ele>
        <time>2026-05-04T21:13:30.899Z</time>
      </trkpt>
      <trkpt lat="43.621790" lon="10.634040">
        <ele>22.360417</ele>
        <time>2026-05-04T21:13:38.804Z</time>
      </trkpt>
      <trkpt lat="43.621893" lon="10.633813">
        <ele>22.599150</ele>
        <time>2026-05-04T21:13:43.399Z</time>
      </trkpt>
      <trkpt lat="43.622179" lon="10.633183">
        <ele>23.261804</ele>
        <time>2026-05-04T21:13:55.560Z</time>
      </trkpt>
      <trkpt lat="43.622445" lon="10.632599">
        <ele>23.876650</ele>
        <time>2026-05-04T21:14:05.616Z</time>
      </trkpt>
      <trkpt lat="43.622471" lon="10.632540">
        <ele>23.938200</ele>
        <time>2026-05-04T21:14:06.530Z</time>
      </trkpt>
      <trkpt lat="43.622915" lon="10.631563">
        <ele>24.260588</ele>
        <time>2026-05-04T21:14:20.894Z</time>
      </trkpt>
      <trkpt lat="43.622935" lon="10.631517">
        <ele>24.268978</ele>
        <time>2026-05-04T21:14:21.578Z</time>
      </trkpt>
      <trkpt lat="43.622870" lon="10.631450">
        <ele>24.286495</ele>
        <time>2026-05-04T21:14:23.090Z</time>
      </trkpt>
      <trkpt lat="43.622611" lon="10.631229">
        <ele>24.352248</ele>
        <time>2026-05-04T21:14:28.815Z</time>
      </trkpt>
      <trkpt lat="43.622416" lon="10.631149">
        <ele>24.396185</ele>
        <time>2026-05-04T21:14:32.818Z</time>
      </trkpt>
      <trkpt lat="43.621904" lon="10.631308">
        <ele>24.519961</ele>
        <time>2026-05-04T21:14:43.644Z</time>
      </trkpt>
      <trkpt lat="43.621581" lon="10.631408">
        <ele>24.661802</ele>
        <time>2026-05-04T21:14:50.355Z</time>
      </trkpt>
      <trkpt lat="43.621350" lon="10.631334">
        <ele>24.763414</ele>
        <time>2026-05-04T21:14:55.295Z</time>
      </trkpt>
      <trkpt lat="43.621320" lon="10.631312">
        <ele>24.777968</ele>
        <time>2026-05-04T21:14:56.167Z</time>
      </trkpt>
      <trkpt lat="43.621159" lon="10.631946">
        <ele>24.986386</ele>
        <time>2026-05-04T21:15:08.483Z</time>
      </trkpt>
      <trkpt lat="43.621193" lon="10.631970">
        <ele>25.002747</ele>
        <time>2026-05-04T21:15:09.412Z</time>
      </trkpt>
      <trkpt lat="43.621301" lon="10.631606">
        <ele>25.124777</ele>
        <time>2026-05-04T21:15:14.812Z</time>
      </trkpt>
      <trkpt lat="43.621243" lon="10.631580">
        <ele>25.150906</ele>
        <time>2026-05-04T21:15:16.026Z</time>
      </trkpt>
      <trkpt lat="43.620550" lon="10.631203">
        <ele>25.164977</ele>
        <time>2026-05-04T21:15:29.547Z</time>
      </trkpt>
      <trkpt lat="43.620542" lon="10.631182">
        <ele>25.161132</ele>
        <time>2026-05-04T21:15:29.867Z</time>
      </trkpt>
      <trkpt lat="43.620522" lon="10.631165">
        <ele>25.155875</ele>
        <time>2026-05-04T21:15:30.253Z</time>
      </trkpt>
      <trkpt lat="43.620450" lon="10.631151">
        <ele>25.139598</ele>
        <time>2026-05-04T21:15:31.472Z</time>
      </trkpt>
      <trkpt lat="43.620047" lon="10.630921">
        <ele>25.041987</ele>
        <time>2026-05-04T21:15:39.250Z</time>
      </trkpt>
      <trkpt lat="43.619827" lon="10.630796">
        <ele>24.988735</ele>
        <time>2026-05-04T21:15:43.305Z</time>
      </trkpt>
      <trkpt lat="43.619776" lon="10.630962">
        <ele>24.959511</ele>
        <time>2026-05-04T21:15:45.479Z</time>
      </trkpt>
      <trkpt lat="43.619738" lon="10.631101">
        <ele>24.935432</ele>
        <time>2026-05-04T21:15:47.253Z</time>
      </trkpt>
      <trkpt lat="43.619643" lon="10.631432">
        <ele>24.877729</ele>
        <time>2026-05-04T21:15:51.459Z</time>
      </trkpt>
      <trkpt lat="43.619583" lon="10.631640">
        <ele>24.788376</ele>
        <time>2026-05-04T21:15:54.096Z</time>
      </trkpt>
      <trkpt lat="43.619511" lon="10.631902">
        <ele>24.648753</ele>
        <time>2026-05-04T21:15:57.374Z</time>
      </trkpt>
      <trkpt lat="43.619456" lon="10.632100">
        <ele>24.543092</ele>
        <time>2026-05-04T21:15:59.895Z</time>
      </trkpt>
      <trkpt lat="43.619373" lon="10.632440">
        <ele>24.364324</ele>
        <time>2026-05-04T21:16:04.173Z</time>
      </trkpt>
      <trkpt lat="43.619284" lon="10.632793">
        <ele>24.178089</ele>
        <time>2026-05-04T21:16:08.552Z</time>
      </trkpt>
      <trkpt lat="43.619277" lon="10.632819">
        <ele>24.164269</ele>
        <time>2026-05-04T21:16:08.869Z</time>
      </trkpt>
      <trkpt lat="43.619214" lon="10.633104">
        <ele>24.015802</ele>
        <time>2026-05-04T21:16:12.066Z</time>
      </trkpt>
      <trkpt lat="43.619216" lon="10.633183">
        <ele>23.976418</ele>
        <time>2026-05-04T21:16:12.924Z</time>
      </trkpt>
      <trkpt lat="43.619253" lon="10.633270">
        <ele>23.926146</ele>
        <time>2026-05-04T21:16:13.998Z</time>
      </trkpt>
      <trkpt lat="43.619372" lon="10.633276">
        <ele>23.844194</ele>
        <time>2026-05-04T21:16:15.826Z</time>
      </trkpt>
      <trkpt lat="43.619900" lon="10.633425">
        <ele>23.662986</ele>
        <time>2026-05-04T21:16:24.503Z</time>
      </trkpt>
      <trkpt lat="43.619799" lon="10.633786">
        <ele>23.704819</ele>
        <time>2026-05-04T21:16:29.200Z</time>
      </trkpt>
      <trkpt lat="43.619692" lon="10.634171">
        <ele>23.749394</ele>
        <time>2026-05-04T21:16:34.791Z</time>
      </trkpt>
      <trkpt lat="43.619507" lon="10.634429">
        <ele>23.788645</ele>
        <time>2026-05-04T21:16:39.885Z</time>
      </trkpt>
      <trkpt lat="43.619193" lon="10.634815">
        <ele>23.851405</ele>
        <time>2026-05-04T21:16:47.762Z</time>
      </trkpt>
      <trkpt lat="43.618878" lon="10.635346">
        <ele>24.009680</ele>
        <time>2026-05-04T21:16:57.965Z</time>
      </trkpt>
      <trkpt lat="43.618390" lon="10.636155">
        <ele>24.466657</ele>
        <time>2026-05-04T21:17:13.456Z</time>
      </trkpt>
      <trkpt lat="43.618017" lon="10.636829">
        <ele>24.834823</ele>
        <time>2026-05-04T21:17:25.249Z</time>
      </trkpt>
      <trkpt lat="43.617922" lon="10.637063">
        <ele>24.951249</ele>
        <time>2026-05-04T21:17:28.916Z</time>
      </trkpt>
      <trkpt lat="43.617803" lon="10.637389">
        <ele>25.025698</ele>
        <time>2026-05-04T21:17:33.919Z</time>
      </trkpt>
      <trkpt lat="43.617669" lon="10.637674">
        <ele>25.080587</ele>
        <time>2026-05-04T21:17:38.606Z</time>
      </trkpt>
      <trkpt lat="43.617524" lon="10.637920">
        <ele>25.131825</ele>
        <time>2026-05-04T21:17:42.950Z</time>
      </trkpt>
      <trkpt lat="43.616900" lon="10.638740">
        <ele>25.323980</ele>
        <time>2026-05-04T21:17:58.792Z</time>
      </trkpt>
      <trkpt lat="43.616666" lon="10.639057">
        <ele>25.385669</ele>
        <time>2026-05-04T21:18:04.573Z</time>
      </trkpt>
      <trkpt lat="43.616334" lon="10.639544">
        <ele>25.431667</ele>
        <time>2026-05-04T21:18:13.155Z</time>
      </trkpt>
      <trkpt lat="43.616009" lon="10.640154">
        <ele>25.483746</ele>
        <time>2026-05-04T21:18:23.157Z</time>
      </trkpt>
      <trkpt lat="43.615851" lon="10.640389">
        <ele>25.505799</ele>
        <time>2026-05-04T21:18:27.380Z</time>
      </trkpt>
      <trkpt lat="43.615655" lon="10.640578">
        <ele>25.528503</ele>
        <time>2026-05-04T21:18:31.735Z</time>
      </trkpt>
      <trkpt lat="43.615229" lon="10.640890">
        <ele>25.605073</ele>
        <time>2026-05-04T21:18:40.574Z</time>
      </trkpt>
      <trkpt lat="43.614859" lon="10.641148">
        <ele>25.690547</ele>
        <time>2026-05-04T21:18:48.098Z</time>
      </trkpt>
      <trkpt lat="43.614428" lon="10.641438">
        <ele>25.789413</ele>
        <time>2026-05-04T21:18:56.901Z</time>
      </trkpt>
      <trkpt lat="43.614038" lon="10.641644">
        <ele>25.875519</ele>
        <time>2026-05-04T21:19:04.595Z</time>
      </trkpt>
      <trkpt lat="43.613532" lon="10.641831">
        <ele>26.153949</ele>
        <time>2026-05-04T21:19:14.562Z</time>
      </trkpt>
      <trkpt lat="43.613306" lon="10.641951">
        <ele>26.335610</ele>
        <time>2026-05-04T21:19:19.318Z</time>
      </trkpt>
      <trkpt lat="43.612841" lon="10.642364">
        <ele>26.750396</ele>
        <time>2026-05-04T21:19:30.710Z</time>
      </trkpt>
      <trkpt lat="43.612629" lon="10.642502">
        <ele>26.926235</ele>
        <time>2026-05-04T21:19:35.605Z</time>
      </trkpt>
      <trkpt lat="43.612025" lon="10.642697">
        <ele>27.372001</ele>
        <time>2026-05-04T21:19:48.637Z</time>
      </trkpt>
      <trkpt lat="43.611916" lon="10.642735">
        <ele>27.442916</ele>
        <time>2026-05-04T21:19:50.956Z</time>
      </trkpt>
      <trkpt lat="43.611547" lon="10.642925">
        <ele>27.691332</ele>
        <time>2026-05-04T21:19:58.666Z</time>
      </trkpt>
      <trkpt lat="43.611200" lon="10.643013">
        <ele>27.913880</ele>
        <time>2026-05-04T21:20:05.030Z</time>
      </trkpt>
      <trkpt lat="43.611148" lon="10.643021">
        <ele>27.946885</ele>
        <time>2026-05-04T21:20:05.966Z</time>
      </trkpt>
      <trkpt lat="43.610943" lon="10.643018">
        <ele>28.076207</ele>
        <time>2026-05-04T21:20:09.666Z</time>
      </trkpt>
      <trkpt lat="43.610695" lon="10.642936">
        <ele>28.237067</ele>
        <time>2026-05-04T21:20:14.676Z</time>
      </trkpt>
      <trkpt lat="43.610590" lon="10.642803">
        <ele>28.326939</ele>
        <time>2026-05-04T21:20:17.609Z</time>
      </trkpt>
      <trkpt lat="43.610426" lon="10.642722">
        <ele>28.404521</ele>
        <time>2026-05-04T21:20:21.326Z</time>
      </trkpt>
      <trkpt lat="43.610253" lon="10.642744">
        <ele>28.409397</ele>
        <time>2026-05-04T21:20:25.233Z</time>
      </trkpt>
      <trkpt lat="43.610103" lon="10.642864">
        <ele>28.414262</ele>
        <time>2026-05-04T21:20:29.253Z</time>
      </trkpt>
      <trkpt lat="43.610001" lon="10.643068">
        <ele>28.419300</ele>
        <time>2026-05-04T21:20:33.254Z</time>
      </trkpt>
      <trkpt lat="43.609974" lon="10.643313">
        <ele>28.424336</ele>
        <time>2026-05-04T21:20:36.961Z</time>
      </trkpt>
      <trkpt lat="43.610008" lon="10.643502">
        <ele>28.428293</ele>
        <time>2026-05-04T21:20:39.673Z</time>
      </trkpt>
      <trkpt lat="43.610087" lon="10.643663">
        <ele>28.432245</ele>
        <time>2026-05-04T21:20:42.274Z</time>
      </trkpt>
      <trkpt lat="43.609933" lon="10.643890">
        <ele>28.438566</ele>
        <time>2026-05-04T21:20:46.192Z</time>
      </trkpt>
      <trkpt lat="43.609898" lon="10.643952">
        <ele>28.440164</ele>
        <time>2026-05-04T21:20:47.820Z</time>
      </trkpt>
      <trkpt lat="43.609732" lon="10.644032">
        <ele>28.445098</ele>
        <time>2026-05-04T21:20:52.759Z</time>
      </trkpt>
      <trkpt lat="43.609603" lon="10.643922">
        <ele>28.449353</ele>
        <time>2026-05-04T21:20:56.875Z</time>
      </trkpt>
      <trkpt lat="43.609362" lon="10.643212">
        <ele>27.868243</ele>
        <time>2026-05-04T21:21:11.029Z</time>
      </trkpt>
      <trkpt lat="43.609219" lon="10.643010">
        <ele>27.583285</ele>
        <time>2026-05-04T21:21:15.946Z</time>
      </trkpt>
      <trkpt lat="43.609107" lon="10.642966">
        <ele>27.421069</ele>
        <time>2026-05-04T21:21:18.679Z</time>
      </trkpt>
      <trkpt lat="43.608539" lon="10.642882">
        <ele>26.625269</ele>
        <time>2026-05-04T21:21:32.522Z</time>
      </trkpt>
      <trkpt lat="43.605530" lon="10.642439">
        <ele>27.509768</ele>
        <time>2026-05-04T21:23:10.124Z</time>
      </trkpt>
      <trkpt lat="43.604404" lon="10.642416">
        <ele>27.936957</ele>
        <time>2026-05-04T21:23:44.215Z</time>
      </trkpt>
      <trkpt lat="43.598622" lon="10.642299">
        <ele>28.407711</ele>
        <time>2026-05-04T21:26:34.283Z</time>
      </trkpt>
      <trkpt lat="43.598235" lon="10.643181">
        <ele>29.506222</ele>
        <time>2026-05-04T21:26:52.507Z</time>
      </trkpt>
      <trkpt lat="43.597994" lon="10.643871">
        <ele>30.322241</ele>
        <time>2026-05-04T21:27:07.209Z</time>
      </trkpt>
      <trkpt lat="43.597771" lon="10.644423">
        <ele>31.376995</ele>
        <time>2026-05-04T21:27:18.989Z</time>
      </trkpt>
      <trkpt lat="43.597759" lon="10.644486">
        <ele>31.489646</ele>
        <time>2026-05-04T21:27:20.686Z</time>
      </trkpt>
      <trkpt lat="43.597784" lon="10.644580">
        <ele>31.662813</ele>
        <time>2026-05-04T21:27:23.334Z</time>
      </trkpt>
      <trkpt lat="43.598242" lon="10.645327">
        <ele>33.355360</ele>
        <time>2026-05-04T21:27:48.602Z</time>
      </trkpt>
      <trkpt lat="43.598702" lon="10.645994">
        <ele>35.357039</ele>
        <time>2026-05-04T21:28:13.908Z</time>
      </trkpt>
      <trkpt lat="43.598814" lon="10.646219">
        <ele>36.545387</ele>
        <time>2026-05-04T21:28:21.967Z</time>
      </trkpt>
      <trkpt lat="43.598830" lon="10.646308">
        <ele>36.944516</ele>
        <time>2026-05-04T21:28:24.755Z</time>
      </trkpt>
      <trkpt lat="43.598821" lon="10.646418">
        <ele>37.426336</ele>
        <time>2026-05-04T21:28:28.184Z</time>
      </trkpt>
      <trkpt lat="43.598546" lon="10.647313">
        <ele>41.657954</ele>
        <time>2026-05-04T21:29:01.783Z</time>
      </trkpt>
      <trkpt lat="43.598482" lon="10.647674">
        <ele>43.275609</ele>
        <time>2026-05-04T21:29:16.307Z</time>
      </trkpt>
      <trkpt lat="43.598478" lon="10.647864">
        <ele>44.102937</ele>
        <time>2026-05-04T21:29:24.062Z</time>
      </trkpt>
      <trkpt lat="43.598652" lon="10.648356">
        <ele>46.811828</ele>
        <time>2026-05-04T21:29:47.457Z</time>
      </trkpt>
      <trkpt lat="43.598892" lon="10.648886">
        <ele>50.421112</ele>
        <time>2026-05-04T21:30:15.338Z</time>
      </trkpt>
      <trkpt lat="43.598940" lon="10.649064">
        <ele>51.517838</ele>
        <time>2026-05-04T21:30:23.703Z</time>
      </trkpt>
      <trkpt lat="43.598958" lon="10.649336">
        <ele>53.094926</ele>
        <time>2026-05-04T21:30:35.450Z</time>
      </trkpt>
      <trkpt lat="43.598918" lon="10.649584">
        <ele>54.561979</ele>
        <time>2026-05-04T21:30:46.043Z</time>
      </trkpt>
      <trkpt lat="43.598843" lon="10.649792">
        <ele>55.903622</ele>
        <time>2026-05-04T21:30:55.285Z</time>
      </trkpt>
      <trkpt lat="43.598785" lon="10.649895">
        <ele>56.656987</ele>
        <time>2026-05-04T21:31:00.283Z</time>
      </trkpt>
      <trkpt lat="43.598622" lon="10.650076">
        <ele>58.324707</ele>
        <time>2026-05-04T21:31:10.956Z</time>
      </trkpt>
      <trkpt lat="43.598033" lon="10.650300">
        <ele>61.104929</ele>
        <time>2026-05-04T21:31:38.945Z</time>
      </trkpt>
      <trkpt lat="43.597833" lon="10.650443">
        <ele>61.785251</ele>
        <time>2026-05-04T21:31:48.072Z</time>
      </trkpt>
      <trkpt lat="43.597754" lon="10.650585">
        <ele>62.176965</ele>
        <time>2026-05-04T21:31:53.006Z</time>
      </trkpt>
      <trkpt lat="43.596956" lon="10.652611">
        <ele>65.787063</ele>
        <time>2026-05-04T21:32:51.781Z</time>
      </trkpt>
      <trkpt lat="43.596695" lon="10.652710">
        <ele>66.005836</ele>
        <time>2026-05-04T21:33:00.724Z</time>
      </trkpt>
      <trkpt lat="43.596508" lon="10.652842">
        <ele>66.175587</ele>
        <time>2026-05-04T21:33:07.473Z</time>
      </trkpt>
      <trkpt lat="43.596397" lon="10.652986">
        <ele>66.298690</ele>
        <time>2026-05-04T21:33:12.268Z</time>
      </trkpt>
      <trkpt lat="43.596189" lon="10.653534">
        <ele>66.660854</ele>
        <time>2026-05-04T21:33:25.840Z</time>
      </trkpt>
      <trkpt lat="43.595150" lon="10.654231">
        <ele>65.369643</ele>
        <time>2026-05-04T21:33:57.423Z</time>
      </trkpt>
      <trkpt lat="43.594396" lon="10.654475">
        <ele>64.348755</ele>
        <time>2026-05-04T21:34:17.123Z</time>
      </trkpt>
      <trkpt lat="43.593652" lon="10.654650">
        <ele>62.675506</ele>
        <time>2026-05-04T21:34:35.187Z</time>
      </trkpt>
      <trkpt lat="43.593573" lon="10.654704">
        <ele>62.480071</ele>
        <time>2026-05-04T21:34:37.287Z</time>
      </trkpt>
      <trkpt lat="43.593432" lon="10.654801">
        <ele>62.130814</ele>
        <time>2026-05-04T21:34:41.067Z</time>
      </trkpt>
      <trkpt lat="43.593063" lon="10.655197">
        <ele>61.094671</ele>
        <time>2026-05-04T21:34:52.509Z</time>
      </trkpt>
      <trkpt lat="43.592664" lon="10.656137">
        <ele>61.339340</ele>
        <time>2026-05-04T21:35:13.739Z</time>
      </trkpt>
      <trkpt lat="43.592515" lon="10.656560">
        <ele>61.890007</ele>
        <time>2026-05-04T21:35:25.488Z</time>
      </trkpt>
      <trkpt lat="43.592465" lon="10.656699">
        <ele>62.071700</ele>
        <time>2026-05-04T21:35:29.751Z</time>
      </trkpt>
      <trkpt lat="43.592238" lon="10.657070">
        <ele>62.640274</ele>
        <time>2026-05-04T21:35:44.038Z</time>
      </trkpt>
      <trkpt lat="43.592121" lon="10.657334">
        <ele>63.002611</ele>
        <time>2026-05-04T21:35:53.637Z</time>
      </trkpt>
      <trkpt lat="43.592037" lon="10.657643">
        <ele>63.389003</ele>
        <time>2026-05-04T21:36:03.904Z</time>
      </trkpt>
      <trkpt lat="43.591911" lon="10.658347">
        <ele>63.485422</ele>
        <time>2026-05-04T21:36:24.820Z</time>
      </trkpt>
      <trkpt lat="43.591867" lon="10.658524">
        <ele>63.506379</ele>
        <time>2026-05-04T21:36:29.663Z</time>
      </trkpt>
      <trkpt lat="43.591777" lon="10.658738">
        <ele>63.534091</ele>
        <time>2026-05-04T21:36:35.681Z</time>
      </trkpt>
      <trkpt lat="43.591628" lon="10.658916">
        <ele>63.564556</ele>
        <time>2026-05-04T21:36:41.713Z</time>
      </trkpt>
      <trkpt lat="43.591424" lon="10.659082">
        <ele>63.601168</ele>
        <time>2026-05-04T21:36:48.159Z</time>
      </trkpt>
      <trkpt lat="43.590727" lon="10.659545">
        <ele>62.942142</ele>
        <time>2026-05-04T21:37:06.424Z</time>
      </trkpt>
      <trkpt lat="43.589769" lon="10.660353">
        <ele>59.446768</ele>
        <time>2026-05-04T21:37:31.993Z</time>
      </trkpt>
      <trkpt lat="43.589035" lon="10.661217">
        <ele>56.722714</ele>
        <time>2026-05-04T21:37:57.095Z</time>
      </trkpt>
      <trkpt lat="43.588443" lon="10.662262">
        <ele>54.240120</ele>
        <time>2026-05-04T21:38:21.006Z</time>
      </trkpt>
      <trkpt lat="43.588295" lon="10.662518">
        <ele>53.627177</ele>
        <time>2026-05-04T21:38:24.150Z</time>
      </trkpt>
      <trkpt lat="43.587954" lon="10.662150">
        <ele>52.030021</ele>
        <time>2026-05-04T21:38:33.824Z</time>
      </trkpt>
      <trkpt lat="43.587883" lon="10.662105">
        <ele>51.723984</ele>
        <time>2026-05-04T21:38:35.537Z</time>
      </trkpt>
      <trkpt lat="43.587810" lon="10.662107">
        <ele>51.437964</ele>
        <time>2026-05-04T21:38:37.131Z</time>
      </trkpt>
      <trkpt lat="43.587465" lon="10.662384">
        <ele>49.874567</ele>
        <time>2026-05-04T21:38:45.781Z</time>
      </trkpt>
      <trkpt lat="43.587224" lon="10.662454">
        <ele>48.909828</ele>
        <time>2026-05-04T21:38:51.158Z</time>
      </trkpt>
      <trkpt lat="43.587160" lon="10.662422">
        <ele>48.643184</ele>
        <time>2026-05-04T21:38:52.667Z</time>
      </trkpt>
      <trkpt lat="43.587041" lon="10.662294">
        <ele>48.052243</ele>
        <time>2026-05-04T21:38:56.089Z</time>
      </trkpt>
      <trkpt lat="43.586824" lon="10.661995">
        <ele>46.851259</ele>
        <time>2026-05-04T21:39:03.534Z</time>
      </trkpt>
      <trkpt lat="43.586702" lon="10.661881">
        <ele>46.354759</ele>
        <time>2026-05-04T21:39:07.325Z</time>
      </trkpt>
      <trkpt lat="43.586625" lon="10.661760">
        <ele>46.213302</ele>
        <time>2026-05-04T21:39:10.405Z</time>
      </trkpt>
      <trkpt lat="43.586540" lon="10.661551">
        <ele>46.002789</ele>
        <time>2026-05-04T21:39:15.037Z</time>
      </trkpt>
      <trkpt lat="43.586389" lon="10.661447">
        <ele>45.798180</ele>
        <time>2026-05-04T21:39:19.597Z</time>
      </trkpt>
      <trkpt lat="43.586239" lon="10.661415">
        <ele>45.614144</ele>
        <time>2026-05-04T21:39:23.682Z</time>
      </trkpt>
      <trkpt lat="43.585776" lon="10.661452">
        <ele>45.051809</ele>
        <time>2026-05-04T21:39:36.067Z</time>
      </trkpt>
      <trkpt lat="43.585426" lon="10.660097">
        <ele>44.322428</ele>
        <time>2026-05-04T21:40:04.640Z</time>
      </trkpt>
      <trkpt lat="43.585285" lon="10.659288">
        <ele>44.517284</ele>
        <time>2026-05-04T21:40:21.874Z</time>
      </trkpt>
      <trkpt lat="43.584310" lon="10.659576">
        <ele>45.314087</ele>
        <time>2026-05-04T21:40:54.900Z</time>
      </trkpt>
      <trkpt lat="43.584050" lon="10.659839">
        <ele>46.445300</ele>
        <time>2026-05-04T21:41:06.460Z</time>
      </trkpt>
      <trkpt lat="43.583823" lon="10.660015">
        <ele>47.359013</ele>
        <time>2026-05-04T21:41:16.266Z</time>
      </trkpt>
      <trkpt lat="43.583134" lon="10.659882">
        <ele>49.800617</ele>
        <time>2026-05-04T21:41:45.917Z</time>
      </trkpt>
      <trkpt lat="43.582859" lon="10.659862">
        <ele>50.767082</ele>
        <time>2026-05-04T21:41:58.795Z</time>
      </trkpt>
      <trkpt lat="43.582675" lon="10.659962">
        <ele>51.722634</ele>
        <time>2026-05-04T21:42:08.323Z</time>
      </trkpt>
      <trkpt lat="43.582188" lon="10.660002">
        <ele>54.688654</ele>
        <time>2026-05-04T21:42:32.737Z</time>
      </trkpt>
      <trkpt lat="43.580937" lon="10.660741">
        <ele>62.923232</ele>
        <time>2026-05-04T21:43:40.503Z</time>
      </trkpt>
      <trkpt lat="43.580759" lon="10.660871">
        <ele>64.096895</ele>
        <time>2026-05-04T21:43:50.061Z</time>
      </trkpt>
      <trkpt lat="43.580219" lon="10.661001">
        <ele>67.291626</ele>
        <time>2026-05-04T21:44:16.704Z</time>
      </trkpt>
      <trkpt lat="43.579911" lon="10.661147">
        <ele>69.189601</ele>
        <time>2026-05-04T21:44:32.798Z</time>
      </trkpt>
      <trkpt lat="43.579604" lon="10.661247">
        <ele>71.027998</ele>
        <time>2026-05-04T21:44:47.485Z</time>
      </trkpt>
      <trkpt lat="43.579380" lon="10.661137">
        <ele>72.413664</ele>
        <time>2026-05-04T21:44:58.345Z</time>
      </trkpt>
      <trkpt lat="43.579173" lon="10.661104">
        <ele>73.757403</ele>
        <time>2026-05-04T21:45:07.948Z</time>
      </trkpt>
      <trkpt lat="43.579006" lon="10.661180">
        <ele>74.902012</ele>
        <time>2026-05-04T21:45:16.491Z</time>
      </trkpt>
      <trkpt lat="43.578896" lon="10.661267">
        <ele>75.727238</ele>
        <time>2026-05-04T21:45:22.976Z</time>
      </trkpt>
      <trkpt lat="43.578962" lon="10.661388">
        <ele>76.441471</ele>
        <time>2026-05-04T21:45:28.615Z</time>
      </trkpt>
      <trkpt lat="43.579022" lon="10.661690">
        <ele>77.918141</ele>
        <time>2026-05-04T21:45:40.498Z</time>
      </trkpt>
      <trkpt lat="43.578962" lon="10.661388">
        <ele>79.394812</ele>
        <time>2026-05-04T21:45:52.633Z</time>
      </trkpt>
      <trkpt lat="43.578896" lon="10.661267">
        <ele>80.109045</ele>
        <time>2026-05-04T21:45:58.333Z</time>
      </trkpt>
      <trkpt lat="43.578478" lon="10.661400">
        <ele>82.901288</ele>
        <time>2026-05-04T21:46:20.569Z</time>
      </trkpt>
      <trkpt lat="43.578039" lon="10.661607">
        <ele>85.113831</ele>
        <time>2026-05-04T21:46:44.187Z</time>
      </trkpt>
      <trkpt lat="43.577771" lon="10.661790">
        <ele>86.131175</ele>
        <time>2026-05-04T21:46:59.326Z</time>
      </trkpt>
      <trkpt lat="43.577398" lon="10.661986">
        <ele>87.489162</ele>
        <time>2026-05-04T21:47:17.055Z</time>
      </trkpt>
      <trkpt lat="43.576967" lon="10.662100">
        <ele>88.982329</ele>
        <time>2026-05-04T21:47:33.046Z</time>
      </trkpt>
      <trkpt lat="43.576691" lon="10.662003">
        <ele>89.951386</ele>
        <time>2026-05-04T21:47:41.443Z</time>
      </trkpt>
      <trkpt lat="43.576422" lon="10.662004">
        <ele>90.148443</ele>
        <time>2026-05-04T21:47:48.835Z</time>
      </trkpt>
      <trkpt lat="43.576256" lon="10.662147">
        <ele>89.889154</ele>
        <time>2026-05-04T21:47:52.019Z</time>
      </trkpt>
      <trkpt lat="43.576422" lon="10.662004">
        <ele>89.629864</ele>
        <time>2026-05-04T21:47:55.116Z</time>
      </trkpt>
      <trkpt lat="43.576584" lon="10.661773">
        <ele>89.321226</ele>
        <time>2026-05-04T21:47:58.808Z</time>
      </trkpt>
      <trkpt lat="43.576666" lon="10.661608">
        <ele>89.129142</ele>
        <time>2026-05-04T21:48:01.118Z</time>
      </trkpt>
      <trkpt lat="43.577154" lon="10.660406">
        <ele>87.503190</ele>
        <time>2026-05-04T21:48:15.938Z</time>
      </trkpt>
      <trkpt lat="43.577215" lon="10.660249">
        <ele>87.007950</ele>
        <time>2026-05-04T21:48:17.851Z</time>
      </trkpt>
      <trkpt lat="43.577355" lon="10.660006">
        <ele>86.144881</ele>
        <time>2026-05-04T21:48:21.115Z</time>
      </trkpt>
      <trkpt lat="43.577563" lon="10.659762">
        <ele>85.097467</ele>
        <time>2026-05-04T21:48:25.023Z</time>
      </trkpt>
      <trkpt lat="43.577786" lon="10.659692">
        <ele>84.219929</ele>
        <time>2026-05-04T21:48:28.210Z</time>
      </trkpt>
      <trkpt lat="43.578499" lon="10.659748">
        <ele>81.479592</ele>
        <time>2026-05-04T21:48:37.296Z</time>
      </trkpt>
      <trkpt lat="43.578784" lon="10.659557">
        <ele>79.494317</ele>
        <time>2026-05-04T21:48:43.981Z</time>
      </trkpt>
      <trkpt lat="43.578932" lon="10.659399">
        <ele>78.086359</ele>
        <time>2026-05-04T21:48:47.850Z</time>
      </trkpt>
      <trkpt lat="43.579162" lon="10.657688">
        <ele>68.599578</ele>
        <time>2026-05-04T21:49:13.162Z</time>
      </trkpt>
      <trkpt lat="43.579403" lon="10.656890">
        <ele>65.917323</ele>
        <time>2026-05-04T21:49:26.317Z</time>
      </trkpt>
      <trkpt lat="43.579440" lon="10.656567">
        <ele>65.128490</ele>
        <time>2026-05-04T21:49:31.672Z</time>
      </trkpt>
      <trkpt lat="43.579268" lon="10.656094">
        <ele>63.851821</ele>
        <time>2026-05-04T21:49:40.982Z</time>
      </trkpt>
      <trkpt lat="43.579210" lon="10.655779">
        <ele>63.067804</ele>
        <time>2026-05-04T21:49:47.164Z</time>
      </trkpt>
      <trkpt lat="43.579195" lon="10.655143">
        <ele>61.536428</ele>
        <time>2026-05-04T21:50:00.303Z</time>
      </trkpt>
      <trkpt lat="43.579293" lon="10.654829">
        <ele>61.127449</ele>
        <time>2026-05-04T21:50:07.737Z</time>
      </trkpt>
      <trkpt lat="43.579384" lon="10.654540">
        <ele>60.750505</ele>
        <time>2026-05-04T21:50:14.541Z</time>
      </trkpt>
      <trkpt lat="43.579549" lon="10.654171">
        <ele>60.231797</ele>
        <time>2026-05-04T21:50:23.468Z</time>
      </trkpt>
      <trkpt lat="43.579749" lon="10.654030">
        <ele>59.860973</ele>
        <time>2026-05-04T21:50:29.454Z</time>
      </trkpt>
      <trkpt lat="43.580121" lon="10.653702">
        <ele>59.132104</ele>
        <time>2026-05-04T21:50:40.535Z</time>
      </trkpt>
      <trkpt lat="43.581038" lon="10.652841">
        <ele>54.577612</ele>
        <time>2026-05-04T21:51:05.844Z</time>
      </trkpt>
      <trkpt lat="43.581326" lon="10.652516">
        <ele>52.645402</ele>
        <time>2026-05-04T21:51:13.799Z</time>
      </trkpt>
      <trkpt lat="43.581531" lon="10.652191">
        <ele>51.023868</ele>
        <time>2026-05-04T21:51:20.361Z</time>
      </trkpt>
      <trkpt lat="43.581623" lon="10.651777">
        <ele>49.394434</ele>
        <time>2026-05-04T21:51:26.898Z</time>
      </trkpt>
      <trkpt lat="43.581462" lon="10.651454">
        <ele>48.500735</ele>
        <time>2026-05-04T21:51:30.327Z</time>
      </trkpt>
      <trkpt lat="43.581144" lon="10.650697">
        <ele>46.672034</ele>
        <time>2026-05-04T21:51:38.173Z</time>
      </trkpt>
      <trkpt lat="43.580894" lon="10.649850">
        <ele>44.760705</ele>
        <time>2026-05-04T21:51:47.648Z</time>
      </trkpt>
      <trkpt lat="43.579913" lon="10.646257">
        <ele>54.484467</ele>
        <time>2026-05-04T21:53:18.872Z</time>
      </trkpt>
      <trkpt lat="43.579590" lon="10.645801">
        <ele>56.524352</ele>
        <time>2026-05-04T21:53:37.057Z</time>
      </trkpt>
      <trkpt lat="43.579453" lon="10.645491">
        <ele>57.685836</ele>
        <time>2026-05-04T21:53:46.640Z</time>
      </trkpt>
      <trkpt lat="43.579360" lon="10.645210">
        <ele>58.673976</ele>
        <time>2026-05-04T21:53:53.652Z</time>
      </trkpt>
      <trkpt lat="43.579314" lon="10.645071">
        <ele>59.162766</ele>
        <time>2026-05-04T21:53:56.656Z</time>
      </trkpt>
      <trkpt lat="43.579111" lon="10.644742">
        <ele>57.975965</ele>
        <time>2026-05-04T21:54:03.706Z</time>
      </trkpt>
      <trkpt lat="43.578955" lon="10.644569">
        <ele>57.182271</ele>
        <time>2026-05-04T21:54:07.096Z</time>
      </trkpt>
      <trkpt lat="43.578950" lon="10.644322">
        <ele>56.472280</ele>
        <time>2026-05-04T21:54:09.508Z</time>
      </trkpt>
      <trkpt lat="43.578878" lon="10.643788">
        <ele>54.911568</ele>
        <time>2026-05-04T21:54:14.249Z</time>
      </trkpt>
      <trkpt lat="43.578831" lon="10.643561">
        <ele>54.233203</ele>
        <time>2026-05-04T21:54:16.214Z</time>
      </trkpt>
      <trkpt lat="43.578717" lon="10.643200">
        <ele>53.101656</ele>
        <time>2026-05-04T21:54:19.420Z</time>
      </trkpt>
      <trkpt lat="43.578518" lon="10.642844">
        <ele>51.631540</ele>
        <time>2026-05-04T21:54:23.003Z</time>
      </trkpt>
      <trkpt lat="43.578310" lon="10.642599">
        <ele>49.768285</ele>
        <time>2026-05-04T21:54:26.018Z</time>
      </trkpt>
      <trkpt lat="43.578086" lon="10.642454">
        <ele>48.082378</ele>
        <time>2026-05-04T21:54:28.771Z</time>
      </trkpt>
      <trkpt lat="43.577014" lon="10.641947">
        <ele>40.360555</ele>
        <time>2026-05-04T21:54:41.881Z</time>
      </trkpt>
      <trkpt lat="43.576774" lon="10.641761">
        <ele>39.414561</ele>
        <time>2026-05-04T21:54:45.304Z</time>
      </trkpt>
      <trkpt lat="43.576582" lon="10.641538">
        <ele>38.912372</ele>
        <time>2026-05-04T21:54:48.526Z</time>
      </trkpt>
      <trkpt lat="43.576388" lon="10.641193">
        <ele>38.279159</ele>
        <time>2026-05-04T21:54:52.733Z</time>
      </trkpt>
      <trkpt lat="43.576266" lon="10.640823">
        <ele>37.689747</ele>
        <time>2026-05-04T21:54:56.926Z</time>
      </trkpt>
      <trkpt lat="43.576227" lon="10.640587">
        <ele>37.338783</ele>
        <time>2026-05-04T21:54:59.657Z</time>
      </trkpt>
      <trkpt lat="43.576181" lon="10.639788">
        <ele>36.203536</ele>
        <time>2026-05-04T21:55:10.527Z</time>
      </trkpt>
      <trkpt lat="43.576176" lon="10.639677">
        <ele>36.217557</ele>
        <time>2026-05-04T21:55:12.138Z</time>
      </trkpt>
      <trkpt lat="43.576127" lon="10.638816">
        <ele>36.326437</ele>
        <time>2026-05-04T21:55:24.310Z</time>
      </trkpt>
      <trkpt lat="43.576026" lon="10.638353">
        <ele>36.387396</ele>
        <time>2026-05-04T21:55:30.958Z</time>
      </trkpt>
      <trkpt lat="43.575930" lon="10.638154">
        <ele>36.417538</ele>
        <time>2026-05-04T21:55:34.203Z</time>
      </trkpt>
      <trkpt lat="43.575789" lon="10.637968">
        <ele>36.451478</ele>
        <time>2026-05-04T21:55:37.763Z</time>
      </trkpt>
      <trkpt lat="43.575636" lon="10.637813">
        <ele>36.484504</ele>
        <time>2026-05-04T21:55:41.122Z</time>
      </trkpt>
      <trkpt lat="43.575430" lon="10.637683">
        <ele>36.511144</ele>
        <time>2026-05-04T21:55:45.018Z</time>
      </trkpt>
      <trkpt lat="43.575216" lon="10.637611">
        <ele>36.498116</ele>
        <time>2026-05-04T21:55:48.591Z</time>
      </trkpt>
      <trkpt lat="43.574891" lon="10.637553">
        <ele>36.478733</ele>
        <time>2026-05-04T21:55:53.697Z</time>
      </trkpt>
      <trkpt lat="43.573529" lon="10.637346">
        <ele>36.411857</ele>
        <time>2026-05-04T21:56:18.510Z</time>
      </trkpt>
      <trkpt lat="43.573278" lon="10.637227">
        <ele>36.417727</ele>
        <time>2026-05-04T21:56:23.956Z</time>
      </trkpt>
      <trkpt lat="43.573146" lon="10.637119">
        <ele>36.421122</ele>
        <time>2026-05-04T21:56:27.107Z</time>
      </trkpt>
      <trkpt lat="43.572972" lon="10.636913">
        <ele>36.426192</ele>
        <time>2026-05-04T21:56:31.560Z</time>
      </trkpt>
      <trkpt lat="43.572827" lon="10.636639">
        <ele>36.431630</ele>
        <time>2026-05-04T21:56:36.106Z</time>
      </trkpt>
      <trkpt lat="43.572701" lon="10.636189">
        <ele>36.439362</ele>
        <time>2026-05-04T21:56:42.101Z</time>
      </trkpt>
      <trkpt lat="43.572675" lon="10.635913">
        <ele>36.443823</ele>
        <time>2026-05-04T21:56:45.379Z</time>
      </trkpt>
      <trkpt lat="43.572685" lon="10.635766">
        <ele>36.446189</ele>
        <time>2026-05-04T21:56:47.040Z</time>
      </trkpt>
      <trkpt lat="43.572910" lon="10.634324">
        <ele>36.099624</ele>
        <time>2026-05-04T21:57:03.727Z</time>
      </trkpt>
      <trkpt lat="43.570726" lon="10.633726">
        <ele>36.296885</ele>
        <time>2026-05-04T21:57:45.361Z</time>
      </trkpt>
      <trkpt lat="43.570324" lon="10.633684">
        <ele>36.439526</ele>
        <time>2026-05-04T21:57:53.138Z</time>
      </trkpt>
      <trkpt lat="43.568283" lon="10.633634">
        <ele>37.757668</ele>
        <time>2026-05-04T21:58:33.041Z</time>
      </trkpt>
      <trkpt lat="43.567628" lon="10.633799">
        <ele>38.411168</ele>
        <time>2026-05-04T21:58:47.175Z</time>
      </trkpt>
      <trkpt lat="43.567573" lon="10.633813">
        <ele>38.466060</ele>
        <time>2026-05-04T21:58:48.398Z</time>
      </trkpt>
      <trkpt lat="43.566647" lon="10.634042">
        <ele>39.318025</ele>
        <time>2026-05-04T21:59:08.863Z</time>
      </trkpt>
      <trkpt lat="43.566608" lon="10.633974">
        <ele>39.346576</ele>
        <time>2026-05-04T21:59:10.215Z</time>
      </trkpt>
      <trkpt lat="43.566514" lon="10.633918">
        <ele>39.393095</ele>
        <time>2026-05-04T21:59:12.435Z</time>
      </trkpt>
      <trkpt lat="43.565988" lon="10.633972">
        <ele>39.632749</ele>
        <time>2026-05-04T21:59:23.369Z</time>
      </trkpt>
      <trkpt lat="43.565792" lon="10.633942">
        <ele>39.722349</ele>
        <time>2026-05-04T21:59:27.289Z</time>
      </trkpt>
      <trkpt lat="43.565425" lon="10.633740">
        <ele>39.901871</ele>
        <time>2026-05-04T21:59:34.811Z</time>
      </trkpt>
      <trkpt lat="43.565191" lon="10.633475">
        <ele>40.039405</ele>
        <time>2026-05-04T21:59:40.301Z</time>
      </trkpt>
      <trkpt lat="43.564833" lon="10.633270">
        <ele>40.116504</ele>
        <time>2026-05-04T21:59:47.197Z</time>
      </trkpt>
      <trkpt lat="43.564405" lon="10.633225">
        <ele>40.175337</ele>
        <time>2026-05-04T21:59:54.950Z</time>
      </trkpt>
      <trkpt lat="43.564392" lon="10.633252">
        <ele>40.178556</ele>
        <time>2026-05-04T21:59:55.386Z</time>
      </trkpt>
      <trkpt lat="43.564068" lon="10.633213">
        <ele>40.223133</ele>
        <time>2026-05-04T22:00:05.044Z</time>
      </trkpt>
      <trkpt lat="43.563659" lon="10.633054">
        <ele>40.281374</ele>
        <time>2026-05-04T22:00:18.022Z</time>
      </trkpt>
      <trkpt lat="43.562567" lon="10.632699">
        <ele>40.692694</ele>
        <time>2026-05-04T22:00:53.520Z</time>
      </trkpt>
      <trkpt lat="43.562051" lon="10.632422">
        <ele>40.938712</ele>
        <time>2026-05-04T22:01:10.811Z</time>
      </trkpt>
      <trkpt lat="43.561469" lon="10.632237">
        <ele>41.109165</ele>
        <time>2026-05-04T22:01:29.022Z</time>
      </trkpt>
      <trkpt lat="43.560880" lon="10.631992">
        <ele>41.075844</ele>
        <time>2026-05-04T22:01:47.359Z</time>
      </trkpt>
      <trkpt lat="43.560685" lon="10.631960">
        <ele>41.065208</ele>
        <time>2026-05-04T22:01:53.137Z</time>
      </trkpt>
      <trkpt lat="43.560207" lon="10.632081">
        <ele>41.038885</ele>
        <time>2026-05-04T22:02:07.423Z</time>
      </trkpt>
      <trkpt lat="43.559835" lon="10.632122">
        <ele>41.008673</ele>
        <time>2026-05-04T22:02:18.166Z</time>
      </trkpt>
      <trkpt lat="43.559770" lon="10.632204">
        <ele>40.989811</ele>
        <time>2026-05-04T22:02:20.653Z</time>
      </trkpt>
      <trkpt lat="43.559562" lon="10.632464">
        <ele>40.929705</ele>
        <time>2026-05-04T22:02:28.497Z</time>
      </trkpt>
      <trkpt lat="43.559322" lon="10.632626">
        <ele>40.872484</ele>
        <time>2026-05-04T22:02:35.934Z</time>
      </trkpt>
      <trkpt lat="43.559135" lon="10.632664">
        <ele>40.832002</ele>
        <time>2026-05-04T22:02:41.243Z</time>
      </trkpt>
      <trkpt lat="43.558957" lon="10.632696">
        <ele>40.793558</ele>
        <time>2026-05-04T22:02:46.354Z</time>
      </trkpt>
      <trkpt lat="43.558460" lon="10.632626">
        <ele>40.686562</ele>
        <time>2026-05-04T22:03:00.987Z</time>
      </trkpt>
      <trkpt lat="43.558303" lon="10.632521">
        <ele>40.649196</ele>
        <time>2026-05-04T22:03:06.234Z</time>
      </trkpt>
      <trkpt lat="43.558127" lon="10.632527">
        <ele>40.786298</ele>
        <time>2026-05-04T22:03:11.585Z</time>
      </trkpt>
      <trkpt lat="43.557667" lon="10.632664">
        <ele>41.380564</ele>
        <time>2026-05-04T22:03:26.514Z</time>
      </trkpt>
      <trkpt lat="43.556785" lon="10.633216">
        <ele>42.603562</ele>
        <time>2026-05-04T22:03:59.918Z</time>
      </trkpt>
      <trkpt lat="43.556465" lon="10.633585">
        <ele>43.259978</ele>
        <time>2026-05-04T22:04:15.063Z</time>
      </trkpt>
      <trkpt lat="43.556331" lon="10.633707">
        <ele>43.581233</ele>
        <time>2026-05-04T22:04:21.059Z</time>
      </trkpt>
      <trkpt lat="43.555718" lon="10.634066">
        <ele>44.913818</ele>
        <time>2026-05-04T22:04:45.520Z</time>
      </trkpt>
      <trkpt lat="43.555378" lon="10.634314">
        <ele>45.683402</ele>
        <time>2026-05-04T22:04:59.588Z</time>
      </trkpt>
      <trkpt lat="43.555225" lon="10.634118">
        <ele>46.101174</ele>
        <time>2026-05-04T22:05:04.816Z</time>
      </trkpt>
      <trkpt lat="43.555020" lon="10.634006">
        <ele>46.525193</ele>
        <time>2026-05-04T22:05:10.272Z</time>
      </trkpt>
      <trkpt lat="43.554706" lon="10.633908">
        <ele>46.852429</ele>
        <time>2026-05-04T22:05:17.932Z</time>
      </trkpt>
      <trkpt lat="43.553407" lon="10.633501">
        <ele>48.206440</ele>
        <time>2026-05-04T22:05:46.123Z</time>
      </trkpt>
      <trkpt lat="43.553249" lon="10.633439">
        <ele>48.350371</ele>
        <time>2026-05-04T22:05:49.473Z</time>
      </trkpt>
      <trkpt lat="43.553099" lon="10.633324">
        <ele>48.418172</ele>
        <time>2026-05-04T22:05:52.952Z</time>
      </trkpt>
      <trkpt lat="43.553058" lon="10.633262">
        <ele>48.442206</ele>
        <time>2026-05-04T22:05:54.200Z</time>
      </trkpt>
      <trkpt lat="43.553038" lon="10.633128">
        <ele>48.481382</ele>
        <time>2026-05-04T22:05:56.193Z</time>
      </trkpt>
      <trkpt lat="43.552921" lon="10.633150">
        <ele>48.528038</ele>
        <time>2026-05-04T22:05:58.609Z</time>
      </trkpt>
      <trkpt lat="43.552847" lon="10.633117">
        <ele>48.558765</ele>
        <time>2026-05-04T22:06:00.173Z</time>
      </trkpt>
      <trkpt lat="43.552231" lon="10.632758">
        <ele>48.822975</ele>
        <time>2026-05-04T22:06:13.309Z</time>
      </trkpt>
      <trkpt lat="43.552003" lon="10.632575">
        <ele>48.927194</ele>
        <time>2026-05-04T22:06:18.482Z</time>
      </trkpt>
      <trkpt lat="43.551710" lon="10.632264">
        <ele>49.058446</ele>
        <time>2026-05-04T22:06:25.469Z</time>
      </trkpt>
      <trkpt lat="43.551510" lon="10.632051">
        <ele>49.103250</ele>
        <time>2026-05-04T22:06:30.198Z</time>
      </trkpt>
      <trkpt lat="43.551180" lon="10.631837">
        <ele>49.167912</ele>
        <time>2026-05-04T22:06:37.059Z</time>
      </trkpt>
      <trkpt lat="43.550850" lon="10.631753">
        <ele>49.227421</ele>
        <time>2026-05-04T22:06:43.342Z</time>
      </trkpt>
      <trkpt lat="43.549408" lon="10.631908">
        <ele>49.564287</ele>
        <time>2026-05-04T22:07:11.287Z</time>
      </trkpt>
      <trkpt lat="43.549358" lon="10.631922">
        <ele>49.579468</ele>
        <time>2026-05-04T22:07:12.294Z</time>
      </trkpt>
      <trkpt lat="43.549269" lon="10.631947">
        <ele>49.606493</ele>
        <time>2026-05-04T22:07:14.091Z</time>
      </trkpt>
      <trkpt lat="43.549109" lon="10.632048">
        <ele>49.658848</ele>
        <time>2026-05-04T22:07:17.552Z</time>
      </trkpt>
      <trkpt lat="43.547684" lon="10.633136">
        <ele>50.428371</ele>
        <time>2026-05-04T22:07:49.685Z</time>
      </trkpt>
      <trkpt lat="43.547544" lon="10.633232">
        <ele>50.529452</ele>
        <time>2026-05-04T22:07:52.885Z</time>
      </trkpt>
      <trkpt lat="43.547036" lon="10.633583">
        <ele>50.896791</ele>
        <time>2026-05-04T22:08:04.859Z</time>
      </trkpt>
      <trkpt lat="43.546852" lon="10.633751">
        <ele>51.039450</ele>
        <time>2026-05-04T22:08:09.626Z</time>
      </trkpt>
      <trkpt lat="43.546138" lon="10.634688">
        <ele>51.936904</ele>
        <time>2026-05-04T22:08:30.944Z</time>
      </trkpt>
      <trkpt lat="43.545952" lon="10.634924">
        <ele>52.169662</ele>
        <time>2026-05-04T22:08:36.470Z</time>
      </trkpt>
      <trkpt lat="43.545710" lon="10.635229">
        <ele>52.471571</ele>
        <time>2026-05-04T22:08:43.589Z</time>
      </trkpt>
      <trkpt lat="43.545421" lon="10.635466">
        <ele>52.749377</ele>
        <time>2026-05-04T22:08:50.750Z</time>
      </trkpt>
      <trkpt lat="43.545210" lon="10.635539">
        <ele>52.845184</ele>
        <time>2026-05-04T22:08:55.271Z</time>
      </trkpt>
      <trkpt lat="43.544617" lon="10.635640">
        <ele>53.108341</ele>
        <time>2026-05-04T22:09:07.551Z</time>
      </trkpt>
      <trkpt lat="43.544399" lon="10.635784">
        <ele>53.214792</ele>
        <time>2026-05-04T22:09:12.435Z</time>
      </trkpt>
      <trkpt lat="43.543922" lon="10.636305">
        <ele>53.482746</ele>
        <time>2026-05-04T22:09:24.174Z</time>
      </trkpt>
      <trkpt lat="43.544399" lon="10.635784">
        <ele>53.320337</ele>
        <time>2026-05-04T22:09:35.012Z</time>
      </trkpt>
      <trkpt lat="43.544617" lon="10.635640">
        <ele>53.234578</ele>
        <time>2026-05-04T22:09:39.156Z</time>
      </trkpt>
      <trkpt lat="43.545210" lon="10.635539">
        <ele>53.022576</ele>
        <time>2026-05-04T22:09:49.253Z</time>
      </trkpt>
      <trkpt lat="43.545421" lon="10.635466">
        <ele>52.945392</ele>
        <time>2026-05-04T22:09:52.953Z</time>
      </trkpt>
      <trkpt lat="43.545710" lon="10.635229">
        <ele>52.904636</ele>
        <time>2026-05-04T22:09:58.801Z</time>
      </trkpt>
      <trkpt lat="43.545952" lon="10.634924">
        <ele>52.978358</ele>
        <time>2026-05-04T22:10:04.737Z</time>
      </trkpt>
      <trkpt lat="43.545710" lon="10.635229">
        <ele>53.052079</ele>
        <time>2026-05-04T22:10:10.965Z</time>
      </trkpt>
      <trkpt lat="43.545421" lon="10.635466">
        <ele>53.127696</ele>
        <time>2026-05-04T22:10:17.612Z</time>
      </trkpt>
      <trkpt lat="43.545210" lon="10.635539">
        <ele>53.176622</ele>
        <time>2026-05-04T22:10:22.035Z</time>
      </trkpt>
      <trkpt lat="43.544617" lon="10.635640">
        <ele>53.344370</ele>
        <time>2026-05-04T22:10:34.319Z</time>
      </trkpt>
      <trkpt lat="43.544399" lon="10.635784">
        <ele>53.454881</ele>
        <time>2026-05-04T22:10:39.270Z</time>
      </trkpt>
      <trkpt lat="43.543922" lon="10.636305">
        <ele>53.733053</ele>
        <time>2026-05-04T22:10:51.471Z</time>
      </trkpt>
      <trkpt lat="43.543768" lon="10.636473">
        <ele>53.822819</ele>
        <time>2026-05-04T22:10:55.351Z</time>
      </trkpt>
      <trkpt lat="43.542650" lon="10.637818">
        <ele>54.270344</ele>
        <time>2026-05-04T22:11:24.406Z</time>
      </trkpt>
      <trkpt lat="43.541394" lon="10.639261">
        <ele>53.885695</ele>
        <time>2026-05-04T22:11:54.995Z</time>
      </trkpt>
      <trkpt lat="43.541190" lon="10.639546">
        <ele>53.655509</ele>
        <time>2026-05-04T22:11:59.946Z</time>
      </trkpt>
      <trkpt lat="43.541066" lon="10.639719">
        <ele>53.515688</ele>
        <time>2026-05-04T22:12:02.824Z</time>
      </trkpt>
      <trkpt lat="43.540825" lon="10.640165">
        <ele>53.195991</ele>
        <time>2026-05-04T22:12:09.091Z</time>
      </trkpt>
      <trkpt lat="43.539827" lon="10.638865">
        <ele>51.928900</ele>
        <time>2026-05-04T22:12:30.705Z</time>
      </trkpt>
      <trkpt lat="43.539692" lon="10.638600">
        <ele>51.706379</ele>
        <time>2026-05-04T22:12:34.856Z</time>
      </trkpt>
      <trkpt lat="43.539572" lon="10.638525">
        <ele>51.581522</ele>
        <time>2026-05-04T22:12:37.457Z</time>
      </trkpt>
      <trkpt lat="43.539013" lon="10.637884">
        <ele>52.084831</ele>
        <time>2026-05-04T22:12:56.089Z</time>
      </trkpt>
      <trkpt lat="43.538330" lon="10.637007">
        <ele>53.676369</ele>
        <time>2026-05-04T22:13:22.612Z</time>
      </trkpt>
      <trkpt lat="43.537964" lon="10.637620">
        <ele>54.403255</ele>
        <time>2026-05-04T22:13:41.795Z</time>
      </trkpt>
      <trkpt lat="43.537468" lon="10.638785">
        <ele>54.507301</ele>
        <time>2026-05-04T22:14:08.450Z</time>
      </trkpt>
      <trkpt lat="43.537023" lon="10.639219">
        <ele>54.565196</ele>
        <time>2026-05-04T22:14:24.239Z</time>
      </trkpt>
      <trkpt lat="43.536813" lon="10.639487">
        <ele>55.057380</ele>
        <time>2026-05-04T22:14:33.386Z</time>
      </trkpt>
      <trkpt lat="43.535485" lon="10.640495">
        <ele>59.304459</ele>
        <time>2026-05-04T22:15:32.694Z</time>
      </trkpt>
      <trkpt lat="43.535231" lon="10.640616">
        <ele>60.418670</ele>
        <time>2026-05-04T22:15:44.953Z</time>
      </trkpt>
      <trkpt lat="43.535032" lon="10.640640">
        <ele>61.437593</ele>
        <time>2026-05-04T22:15:54.173Z</time>
      </trkpt>
      <trkpt lat="43.534742" lon="10.640930">
        <ele>63.264632</ele>
        <time>2026-05-04T22:16:10.942Z</time>
      </trkpt>
      <trkpt lat="43.534540" lon="10.641063">
        <ele>64.406344</ele>
        <time>2026-05-04T22:16:21.600Z</time>
      </trkpt>
      <trkpt lat="43.534386" lon="10.641043">
        <ele>65.195336</ele>
        <time>2026-05-04T22:16:29.038Z</time>
      </trkpt>
      <trkpt lat="43.532916" lon="10.639927">
        <ele>74.203257</ele>
        <time>2026-05-04T22:17:47.194Z</time>
      </trkpt>
      <trkpt lat="43.531197" lon="10.638543">
        <ele>85.498021</ele>
        <time>2026-05-04T22:19:23.914Z</time>
      </trkpt>
      <trkpt lat="43.531037" lon="10.638502">
        <ele>86.434433</ele>
        <time>2026-05-04T22:19:32.007Z</time>
      </trkpt>
      <trkpt lat="43.530804" lon="10.638510">
        <ele>87.775558</ele>
        <time>2026-05-04T22:19:43.475Z</time>
      </trkpt>
      <trkpt lat="43.530528" lon="10.638274">
        <ele>89.472716</ele>
        <time>2026-05-04T22:19:59.056Z</time>
      </trkpt>
      <trkpt lat="43.529618" lon="10.637191">
        <ele>94.009544</ele>
        <time>2026-05-04T22:20:50.597Z</time>
      </trkpt>
      <trkpt lat="43.528739" lon="10.635195">
        <ele>99.221378</ele>
        <time>2026-05-04T22:21:52.721Z</time>
      </trkpt>
      <trkpt lat="43.528634" lon="10.635096">
        <ele>99.574682</ele>
        <time>2026-05-04T22:21:57.521Z</time>
      </trkpt>
      <trkpt lat="43.527312" lon="10.634251">
        <ele>106.016400</ele>
        <time>2026-05-04T22:22:58.785Z</time>
      </trkpt>
      <trkpt lat="43.527182" lon="10.634093">
        <ele>106.926004</ele>
        <time>2026-05-04T22:23:07.202Z</time>
      </trkpt>
      <trkpt lat="43.526285" lon="10.632517">
        <ele>116.188293</ele>
        <time>2026-05-04T22:24:23.931Z</time>
      </trkpt>
      <trkpt lat="43.526212" lon="10.632337">
        <ele>117.280707</ele>
        <time>2026-05-04T22:24:32.064Z</time>
      </trkpt>
      <trkpt lat="43.526156" lon="10.631661">
        <ele>120.884569</ele>
        <time>2026-05-04T22:24:58.786Z</time>
      </trkpt>
      <trkpt lat="43.525326" lon="10.631145">
        <ele>126.974804</ele>
        <time>2026-05-04T22:25:46.765Z</time>
      </trkpt>
      <trkpt lat="43.525244" lon="10.631134">
        <ele>127.492780</ele>
        <time>2026-05-04T22:25:51.033Z</time>
      </trkpt>
      <trkpt lat="43.524863" lon="10.631300">
        <ele>130.004853</ele>
        <time>2026-05-04T22:26:11.314Z</time>
      </trkpt>
      <trkpt lat="43.524710" lon="10.631262">
        <ele>130.982253</ele>
        <time>2026-05-04T22:26:18.958Z</time>
      </trkpt>
      <trkpt lat="43.524499" lon="10.630774">
        <ele>133.572375</ele>
        <time>2026-05-04T22:26:38.411Z</time>
      </trkpt>
      <trkpt lat="43.524376" lon="10.630404">
        <ele>135.293881</ele>
        <time>2026-05-04T22:26:51.932Z</time>
      </trkpt>
      <trkpt lat="43.524281" lon="10.629760">
        <ele>137.628088</ele>
        <time>2026-05-04T22:27:13.702Z</time>
      </trkpt>
      <trkpt lat="43.524269" lon="10.629320">
        <ele>139.191980</ele>
        <time>2026-05-04T22:27:27.864Z</time>
      </trkpt>
      <trkpt lat="43.524297" lon="10.628682">
        <ele>141.462168</ele>
        <time>2026-05-04T22:27:48.130Z</time>
      </trkpt>
      <trkpt lat="43.524281" lon="10.627929">
        <ele>144.219741</ele>
        <time>2026-05-04T22:28:13.090Z</time>
      </trkpt>
      <trkpt lat="43.524272" lon="10.627728">
        <ele>145.050798</ele>
        <time>2026-05-04T22:28:19.995Z</time>
      </trkpt>
      <trkpt lat="43.524240" lon="10.627779">
        <ele>145.329123</ele>
        <time>2026-05-04T22:28:21.772Z</time>
      </trkpt>
      <trkpt lat="43.523616" lon="10.627786">
        <ele>148.880688</ele>
        <time>2026-05-04T22:28:44.477Z</time>
      </trkpt>
      <trkpt lat="43.523570" lon="10.627773">
        <ele>149.147933</ele>
        <time>2026-05-04T22:28:46.241Z</time>
      </trkpt>
      <trkpt lat="43.523502" lon="10.627754">
        <ele>149.542813</ele>
        <time>2026-05-04T22:28:48.832Z</time>
      </trkpt>
      <trkpt lat="43.523212" lon="10.627352">
        <ele>151.882984</ele>
        <time>2026-05-04T22:29:04.648Z</time>
      </trkpt>
      <trkpt lat="43.523178" lon="10.627330">
        <ele>152.096732</ele>
        <time>2026-05-04T22:29:06.121Z</time>
      </trkpt>
      <trkpt lat="43.523130" lon="10.627298">
        <ele>152.400165</ele>
        <time>2026-05-04T22:29:08.214Z</time>
      </trkpt>
      <trkpt lat="43.522584" lon="10.627132">
        <ele>155.149250</ele>
        <time>2026-05-04T22:29:29.717Z</time>
      </trkpt>
      <trkpt lat="43.522177" lon="10.627009">
        <ele>156.921406</ele>
        <time>2026-05-04T22:29:44.511Z</time>
      </trkpt>
      <trkpt lat="43.521856" lon="10.626885">
        <ele>158.339254</ele>
        <time>2026-05-04T22:29:55.415Z</time>
      </trkpt>
      <trkpt lat="43.521649" lon="10.626785">
        <ele>159.272135</ele>
        <time>2026-05-04T22:30:02.073Z</time>
      </trkpt>
      <trkpt lat="43.521495" lon="10.626688">
        <ele>159.992222</ele>
        <time>2026-05-04T22:30:06.877Z</time>
      </trkpt>
      <trkpt lat="43.520851" lon="10.626285">
        <ele>162.363965</ele>
        <time>2026-05-04T22:30:24.907Z</time>
      </trkpt>
      <trkpt lat="43.520747" lon="10.626170">
        <ele>162.687474</ele>
        <time>2026-05-04T22:30:28.141Z</time>
      </trkpt>
      <trkpt lat="43.520587" lon="10.625712">
        <ele>163.582114</ele>
        <time>2026-05-04T22:30:37.354Z</time>
      </trkpt>
      <trkpt lat="43.520517" lon="10.625595">
        <ele>163.849045</ele>
        <time>2026-05-04T22:30:40.381Z</time>
      </trkpt>
      <trkpt lat="43.520492" lon="10.625554">
        <ele>163.943315</ele>
        <time>2026-05-04T22:30:41.496Z</time>
      </trkpt>
      <trkpt lat="43.519877" lon="10.625045">
        <ele>165.683996</ele>
        <time>2026-05-04T22:31:01.094Z</time>
      </trkpt>
      <trkpt lat="43.519532" lon="10.624706">
        <ele>166.050722</ele>
        <time>2026-05-04T22:31:12.242Z</time>
      </trkpt>
      <trkpt lat="43.519480" lon="10.624764">
        <ele>166.083445</ele>
        <time>2026-05-04T22:31:13.919Z</time>
      </trkpt>
      <trkpt lat="43.519227" lon="10.625047">
        <ele>166.242838</ele>
        <time>2026-05-04T22:31:21.836Z</time>
      </trkpt>
      <trkpt lat="43.518749" lon="10.625593">
        <ele>166.546531</ele>
        <time>2026-05-04T22:31:33.994Z</time>
      </trkpt>
      <trkpt lat="43.518588" lon="10.625844">
        <ele>166.665429</ele>
        <time>2026-05-04T22:31:37.553Z</time>
      </trkpt>
      <trkpt lat="43.518113" lon="10.626764">
        <ele>164.612545</ele>
        <time>2026-05-04T22:31:48.564Z</time>
      </trkpt>
      <trkpt lat="43.518006" lon="10.626932">
        <ele>164.048103</ele>
        <time>2026-05-04T22:31:50.639Z</time>
      </trkpt>
      <trkpt lat="43.517610" lon="10.627168">
        <ele>162.546356</ele>
        <time>2026-05-04T22:31:56.020Z</time>
      </trkpt>
      <trkpt lat="43.517250" lon="10.627802">
        <ele>160.513628</ele>
        <time>2026-05-04T22:32:03.315Z</time>
      </trkpt>
      <trkpt lat="43.516586" lon="10.628316">
        <ele>156.701963</ele>
        <time>2026-05-04T22:32:12.638Z</time>
      </trkpt>
      <trkpt lat="43.516309" lon="10.628605">
        <ele>154.961005</ele>
        <time>2026-05-04T22:32:16.799Z</time>
      </trkpt>
      <trkpt lat="43.516233" lon="10.628751">
        <ele>154.307777</ele>
        <time>2026-05-04T22:32:18.354Z</time>
      </trkpt>
      <trkpt lat="43.516209" lon="10.628863">
        <ele>153.883291</ele>
        <time>2026-05-04T22:32:19.353Z</time>
      </trkpt>
      <trkpt lat="43.516194" lon="10.629310">
        <ele>152.256843</ele>
        <time>2026-05-04T22:32:23.213Z</time>
      </trkpt>
      <trkpt lat="43.516157" lon="10.629491">
        <ele>151.573324</ele>
        <time>2026-05-04T22:32:24.856Z</time>
      </trkpt>
      <trkpt lat="43.516093" lon="10.629638">
        <ele>150.874834</ele>
        <time>2026-05-04T22:32:26.353Z</time>
      </trkpt>
      <trkpt lat="43.515812" lon="10.630048">
        <ele>148.537047</ele>
        <time>2026-05-04T22:32:31.221Z</time>
      </trkpt>
      <trkpt lat="43.515669" lon="10.630121">
        <ele>147.665681</ele>
        <time>2026-05-04T22:32:32.988Z</time>
      </trkpt>
      <trkpt lat="43.515299" lon="10.630115">
        <ele>145.551185</ele>
        <time>2026-05-04T22:32:37.299Z</time>
      </trkpt>
      <trkpt lat="43.515218" lon="10.630169">
        <ele>145.037057</ele>
        <time>2026-05-04T22:32:38.351Z</time>
      </trkpt>
      <trkpt lat="43.515166" lon="10.630242">
        <ele>144.613010</ele>
        <time>2026-05-04T22:32:39.214Z</time>
      </trkpt>
      <trkpt lat="43.515136" lon="10.630361">
        <ele>144.090916</ele>
        <time>2026-05-04T22:32:40.278Z</time>
      </trkpt>
      <trkpt lat="43.515134" lon="10.630547">
        <ele>143.320032</ele>
        <time>2026-05-04T22:32:41.859Z</time>
      </trkpt>
      <trkpt lat="43.515246" lon="10.631057">
        <ele>141.128704</ele>
        <time>2026-05-04T22:32:46.441Z</time>
      </trkpt>
      <trkpt lat="43.515232" lon="10.631216">
        <ele>140.580356</ele>
        <time>2026-05-04T22:32:47.870Z</time>
      </trkpt>
      <trkpt lat="43.515191" lon="10.631323">
        <ele>140.166040</ele>
        <time>2026-05-04T22:32:48.982Z</time>
      </trkpt>
      <trkpt lat="43.515099" lon="10.631403">
        <ele>139.652567</ele>
        <time>2026-05-04T22:32:50.312Z</time>
      </trkpt>
      <trkpt lat="43.514970" lon="10.631408">
        <ele>139.043325</ele>
        <time>2026-05-04T22:32:51.885Z</time>
      </trkpt>
      <trkpt lat="43.514642" lon="10.631241">
        <ele>137.392675</ele>
        <time>2026-05-04T22:32:56.062Z</time>
      </trkpt>
      <trkpt lat="43.514551" lon="10.631192">
        <ele>136.931476</ele>
        <time>2026-05-04T22:32:57.225Z</time>
      </trkpt>
      <trkpt lat="43.514343" lon="10.631124">
        <ele>135.922300</ele>
        <time>2026-05-04T22:32:59.756Z</time>
      </trkpt>
      <trkpt lat="43.514165" lon="10.631161">
        <ele>135.072478</ele>
        <time>2026-05-04T22:33:01.905Z</time>
      </trkpt>
      <trkpt lat="43.513781" lon="10.631404">
        <ele>133.077851</ele>
        <time>2026-05-04T22:33:07.089Z</time>
      </trkpt>
      <trkpt lat="43.513382" lon="10.631804">
        <ele>132.630815</ele>
        <time>2026-05-04T22:33:13.989Z</time>
      </trkpt>
      <trkpt lat="43.513146" lon="10.631936">
        <ele>132.577646</ele>
        <time>2026-05-04T22:33:17.518Z</time>
      </trkpt>
      <trkpt lat="43.512976" lon="10.631890">
        <ele>132.541477</ele>
        <time>2026-05-04T22:33:19.895Z</time>
      </trkpt>
      <trkpt lat="43.512761" lon="10.631646">
        <ele>132.483343</ele>
        <time>2026-05-04T22:33:24.115Z</time>
      </trkpt>
      <trkpt lat="43.512671" lon="10.631599">
        <ele>132.463251</ele>
        <time>2026-05-04T22:33:26.101Z</time>
      </trkpt>
      <trkpt lat="43.512520" lon="10.631618">
        <ele>132.431596</ele>
        <time>2026-05-04T22:33:29.495Z</time>
      </trkpt>
      <trkpt lat="43.512348" lon="10.631725">
        <ele>132.392201</ele>
        <time>2026-05-04T22:33:34.524Z</time>
      </trkpt>
      <trkpt lat="43.512017" lon="10.631964">
        <ele>132.766456</ele>
        <time>2026-05-04T22:33:46.661Z</time>
      </trkpt>
      <trkpt lat="43.511962" lon="10.632018">
        <ele>132.978578</ele>
        <time>2026-05-04T22:33:49.010Z</time>
      </trkpt>
      <trkpt lat="43.511744" lon="10.632285">
        <ele>133.894637</ele>
        <time>2026-05-04T22:33:59.172Z</time>
      </trkpt>
      <trkpt lat="43.511329" lon="10.632636">
        <ele>135.424181</ele>
        <time>2026-05-04T22:34:13.361Z</time>
      </trkpt>
      <trkpt lat="43.511257" lon="10.632755">
        <ele>135.777287</ele>
        <time>2026-05-04T22:34:16.509Z</time>
      </trkpt>
      <trkpt lat="43.511223" lon="10.632904">
        <ele>136.133190</ele>
        <time>2026-05-04T22:34:19.654Z</time>
      </trkpt>
      <trkpt lat="43.511240" lon="10.633166">
        <ele>136.732538</ele>
        <time>2026-05-04T22:34:25.024Z</time>
      </trkpt>
      <trkpt lat="43.511320" lon="10.633429">
        <ele>137.382353</ele>
        <time>2026-05-04T22:34:30.420Z</time>
      </trkpt>
      <trkpt lat="43.511630" lon="10.633981">
        <ele>138.044530</ele>
        <time>2026-05-04T22:34:41.603Z</time>
      </trkpt>
      <trkpt lat="43.511728" lon="10.634246">
        <ele>138.080049</ele>
        <time>2026-05-04T22:34:45.647Z</time>
      </trkpt>
      <trkpt lat="43.511748" lon="10.634490">
        <ele>138.109369</ele>
        <time>2026-05-04T22:34:48.885Z</time>
      </trkpt>
      <trkpt lat="43.511716" lon="10.634627">
        <ele>138.126555</ele>
        <time>2026-05-04T22:34:50.752Z</time>
      </trkpt>
      <trkpt lat="43.511650" lon="10.634761">
        <ele>138.145896</ele>
        <time>2026-05-04T22:34:52.858Z</time>
      </trkpt>
      <trkpt lat="43.511440" lon="10.634956">
        <ele>138.187581</ele>
        <time>2026-05-04T22:34:57.171Z</time>
      </trkpt>
      <trkpt lat="43.510861" lon="10.635266">
        <ele>138.288163</ele>
        <time>2026-05-04T22:35:07.114Z</time>
      </trkpt>
      <trkpt lat="43.510646" lon="10.635280">
        <ele>138.211468</ele>
        <time>2026-05-04T22:35:10.512Z</time>
      </trkpt>
      <trkpt lat="43.510254" lon="10.635158">
        <ele>138.068276</ele>
        <time>2026-05-04T22:35:16.781Z</time>
      </trkpt>
      <trkpt lat="43.509928" lon="10.634980">
        <ele>137.943339</ele>
        <time>2026-05-04T22:35:22.159Z</time>
      </trkpt>
      <trkpt lat="43.509587" lon="10.634727">
        <ele>137.805359</ele>
        <time>2026-05-04T22:35:28.081Z</time>
      </trkpt>
      <trkpt lat="43.508793" lon="10.633931">
        <ele>137.985928</ele>
        <time>2026-05-04T22:35:49.430Z</time>
      </trkpt>
      <trkpt lat="43.508384" lon="10.633207">
        <ele>138.400980</ele>
        <time>2026-05-04T22:36:02.482Z</time>
      </trkpt>
      <trkpt lat="43.508278" lon="10.633142">
        <ele>138.473323</ele>
        <time>2026-05-04T22:36:04.795Z</time>
      </trkpt>
      <trkpt lat="43.508181" lon="10.633143">
        <ele>138.533813</ele>
        <time>2026-05-04T22:36:06.701Z</time>
      </trkpt>
      <trkpt lat="43.508069" lon="10.633215">
        <ele>138.610873</ele>
        <time>2026-05-04T22:36:09.075Z</time>
      </trkpt>
      <trkpt lat="43.507854" lon="10.633386">
        <ele>138.765652</ele>
        <time>2026-05-04T22:36:13.964Z</time>
      </trkpt>
      <trkpt lat="43.507769" lon="10.633384">
        <ele>138.845509</ele>
        <time>2026-05-04T22:36:15.626Z</time>
      </trkpt>
      <trkpt lat="43.507691" lon="10.633345">
        <ele>138.925806</ele>
        <time>2026-05-04T22:36:17.072Z</time>
      </trkpt>
      <trkpt lat="43.507636" lon="10.633245">
        <ele>139.013897</ele>
        <time>2026-05-04T22:36:18.748Z</time>
      </trkpt>
      <trkpt lat="43.507529" lon="10.632889">
        <ele>139.284385</ele>
        <time>2026-05-04T22:36:23.411Z</time>
      </trkpt>
      <trkpt lat="43.507413" lon="10.632663">
        <ele>139.478723</ele>
        <time>2026-05-04T22:36:26.493Z</time>
      </trkpt>
      <trkpt lat="43.507280" lon="10.632505">
        <ele>139.648625</ele>
        <time>2026-05-04T22:36:29.241Z</time>
      </trkpt>
      <trkpt lat="43.507044" lon="10.632342">
        <ele>139.904075</ele>
        <time>2026-05-04T22:36:34.692Z</time>
      </trkpt>
      <trkpt lat="43.506789" lon="10.632249">
        <ele>140.159346</ele>
        <time>2026-05-04T22:36:40.783Z</time>
      </trkpt>
      <trkpt lat="43.506291" lon="10.632139">
        <ele>141.105049</ele>
        <time>2026-05-04T22:36:53.856Z</time>
      </trkpt>
      <trkpt lat="43.506017" lon="10.632126">
        <ele>142.258375</ele>
        <time>2026-05-04T22:37:02.440Z</time>
      </trkpt>
      <trkpt lat="43.505792" lon="10.632169">
        <ele>143.213938</ele>
        <time>2026-05-04T22:37:09.851Z</time>
      </trkpt>
      <trkpt lat="43.505599" lon="10.632278">
        <ele>144.091313</ele>
        <time>2026-05-04T22:37:16.688Z</time>
      </trkpt>
      <trkpt lat="43.505212" lon="10.632500">
        <ele>145.854610</ele>
        <time>2026-05-04T22:37:30.311Z</time>
      </trkpt>
      <trkpt lat="43.505155" lon="10.632535">
        <ele>146.117099</ele>
        <time>2026-05-04T22:37:32.357Z</time>
      </trkpt>
      <trkpt lat="43.505110" lon="10.632614">
        <ele>146.423592</ele>
        <time>2026-05-04T22:37:34.700Z</time>
      </trkpt>
      <trkpt lat="43.505075" lon="10.632804">
        <ele>147.021724</ele>
        <time>2026-05-04T22:37:39.282Z</time>
      </trkpt>
      <trkpt lat="43.505175" lon="10.633567">
        <ele>149.269598</ele>
        <time>2026-05-04T22:37:58.231Z</time>
      </trkpt>
      <trkpt lat="43.505177" lon="10.633871">
        <ele>150.113746</ele>
        <time>2026-05-04T22:38:05.563Z</time>
      </trkpt>
      <trkpt lat="43.505131" lon="10.634148">
        <ele>150.902791</ele>
        <time>2026-05-04T22:38:11.989Z</time>
      </trkpt>
      <trkpt lat="43.505117" lon="10.634452">
        <ele>151.748605</ele>
        <time>2026-05-04T22:38:18.362Z</time>
      </trkpt>
      <trkpt lat="43.505246" lon="10.634958">
        <ele>153.237873</ele>
        <time>2026-05-04T22:38:29.291Z</time>
      </trkpt>
      <trkpt lat="43.505273" lon="10.635187">
        <ele>153.882080</ele>
        <time>2026-05-04T22:38:33.996Z</time>
      </trkpt>
      <trkpt lat="43.505260" lon="10.635335">
        <ele>154.296032</ele>
        <time>2026-05-04T22:38:37.014Z</time>
      </trkpt>
      <trkpt lat="43.505177" lon="10.635659">
        <ele>155.263030</ele>
        <time>2026-05-04T22:38:44.028Z</time>
      </trkpt>
      <trkpt lat="43.505175" lon="10.635873">
        <ele>155.883945</ele>
        <time>2026-05-04T22:38:48.293Z</time>
      </trkpt>
      <trkpt lat="43.505204" lon="10.635969">
        <ele>156.185653</ele>
        <time>2026-05-04T22:38:50.377Z</time>
      </trkpt>
      <trkpt lat="43.505429" lon="10.636388">
        <ele>157.698168</ele>
        <time>2026-05-04T22:39:00.837Z</time>
      </trkpt>
      <trkpt lat="43.505454" lon="10.636486">
        <ele>157.999560</ele>
        <time>2026-05-04T22:39:02.943Z</time>
      </trkpt>
      <trkpt lat="43.505448" lon="10.636667">
        <ele>158.525228</ele>
        <time>2026-05-04T22:39:06.628Z</time>
      </trkpt>
      <trkpt lat="43.505417" lon="10.636759">
        <ele>158.819537</ele>
        <time>2026-05-04T22:39:08.718Z</time>
      </trkpt>
      <trkpt lat="43.505311" lon="10.636862">
        <ele>159.338257</ele>
        <time>2026-05-04T22:39:12.455Z</time>
      </trkpt>
      <trkpt lat="43.505182" lon="10.636860">
        <ele>159.854286</ele>
        <time>2026-05-04T22:39:16.346Z</time>
      </trkpt>
      <trkpt lat="43.505131" lon="10.636811">
        <ele>160.102933</ele>
        <time>2026-05-04T22:39:18.269Z</time>
      </trkpt>
      <trkpt lat="43.505094" lon="10.636739">
        <ele>160.358937</ele>
        <time>2026-05-04T22:39:20.304Z</time>
      </trkpt>
      <trkpt lat="43.505014" lon="10.636378">
        <ele>161.454077</ele>
        <time>2026-05-04T22:39:29.542Z</time>
      </trkpt>
      <trkpt lat="43.504943" lon="10.636201">
        <ele>162.040896</ele>
        <time>2026-05-04T22:39:34.733Z</time>
      </trkpt>
      <trkpt lat="43.504693" lon="10.635811">
        <ele>164.520299</ele>
        <time>2026-05-04T22:39:48.740Z</time>
      </trkpt>
      <trkpt lat="43.504263" lon="10.635309">
        <ele>168.341748</ele>
        <time>2026-05-04T22:40:11.117Z</time>
      </trkpt>
      <trkpt lat="43.504161" lon="10.635253">
        <ele>169.086367</ele>
        <time>2026-05-04T22:40:15.759Z</time>
      </trkpt>
      <trkpt lat="43.504090" lon="10.635263">
        <ele>169.570411</ele>
        <time>2026-05-04T22:40:18.829Z</time>
      </trkpt>
      <trkpt lat="43.503997" lon="10.635332">
        <ele>170.286691</ele>
        <time>2026-05-04T22:40:23.322Z</time>
      </trkpt>
      <trkpt lat="43.503957" lon="10.635409">
        <ele>170.752607</ele>
        <time>2026-05-04T22:40:26.229Z</time>
      </trkpt>
      <trkpt lat="43.503832" lon="10.635914">
        <ele>173.377544</ele>
        <time>2026-05-04T22:40:42.186Z</time>
      </trkpt>
      <trkpt lat="43.503736" lon="10.636126">
        <ele>174.550884</ele>
        <time>2026-05-04T22:40:49.750Z</time>
      </trkpt>
      <trkpt lat="43.503435" lon="10.636376">
        <ele>176.401061</ele>
        <time>2026-05-04T22:41:04.293Z</time>
      </trkpt>
      <trkpt lat="43.503154" lon="10.636572">
        <ele>178.059139</ele>
        <time>2026-05-04T22:41:16.626Z</time>
      </trkpt>
      <trkpt lat="43.502959" lon="10.636646">
        <ele>179.124027</ele>
        <time>2026-05-04T22:41:24.375Z</time>
      </trkpt>
      <trkpt lat="43.502902" lon="10.636646">
        <ele>179.424140</ele>
        <time>2026-05-04T22:41:26.431Z</time>
      </trkpt>
      <trkpt lat="43.502808" lon="10.636646">
        <ele>179.919064</ele>
        <time>2026-05-04T22:41:30.034Z</time>
      </trkpt>
      <trkpt lat="43.502680" lon="10.636666">
        <ele>180.597317</ele>
        <time>2026-05-04T22:41:34.947Z</time>
      </trkpt>
      <trkpt lat="43.502594" lon="10.636733">
        <ele>181.117415</ele>
        <time>2026-05-04T22:41:38.520Z</time>
      </trkpt>
      <trkpt lat="43.502356" lon="10.637181">
        <ele>183.238161</ele>
        <time>2026-05-04T22:41:51.392Z</time>
      </trkpt>
      <trkpt lat="43.502285" lon="10.637277">
        <ele>183.761766</ele>
        <time>2026-05-04T22:41:53.710Z</time>
      </trkpt>
      <trkpt lat="43.502266" lon="10.637298">
        <ele>183.767055</ele>
        <time>2026-05-04T22:41:54.267Z</time>
      </trkpt>
      <trkpt lat="43.502050" lon="10.637566">
        <ele>182.346247</ele>
        <time>2026-05-04T22:41:59.836Z</time>
      </trkpt>
      <trkpt lat="43.501780" lon="10.637862">
        <ele>180.659622</ele>
        <time>2026-05-04T22:42:04.568Z</time>
      </trkpt>
      <trkpt lat="43.501671" lon="10.638032">
        <ele>179.854939</ele>
        <time>2026-05-04T22:42:06.630Z</time>
      </trkpt>
      <trkpt lat="43.501807" lon="10.638104">
        <ele>179.142648</ele>
        <time>2026-05-04T22:42:09.851Z</time>
      </trkpt>
      <trkpt lat="43.501868" lon="10.638178">
        <ele>178.745374</ele>
        <time>2026-05-04T22:42:11.586Z</time>
      </trkpt>
      <trkpt lat="43.502091" lon="10.638602">
        <ele>176.887976</ele>
        <time>2026-05-04T22:42:19.474Z</time>
      </trkpt>
      <trkpt lat="43.502154" lon="10.638791">
        <ele>176.150304</ele>
        <time>2026-05-04T22:42:22.482Z</time>
      </trkpt>
      <trkpt lat="43.502143" lon="10.639042">
        <ele>175.258518</ele>
        <time>2026-05-04T22:42:26.027Z</time>
      </trkpt>
      <trkpt lat="43.501951" lon="10.639862">
        <ele>167.402123</ele>
        <time>2026-05-04T22:42:37.822Z</time>
      </trkpt>
      <trkpt lat="43.501959" lon="10.640173">
        <ele>164.425989</ele>
        <time>2026-05-04T22:42:42.052Z</time>
      </trkpt>
      <trkpt lat="43.502340" lon="10.640860">
        <ele>156.155498</ele>
        <time>2026-05-04T22:42:53.727Z</time>
      </trkpt>
      <trkpt lat="43.502558" lon="10.641118">
        <ele>152.367443</ele>
        <time>2026-05-04T22:42:59.061Z</time>
      </trkpt>
      <trkpt lat="43.502581" lon="10.641429">
        <ele>149.754748</ele>
        <time>2026-05-04T22:43:03.285Z</time>
      </trkpt>
      <trkpt lat="43.502511" lon="10.641826">
        <ele>146.606821</ele>
        <time>2026-05-04T22:43:08.847Z</time>
      </trkpt>
      <trkpt lat="43.502542" lon="10.642255">
        <ele>143.285054</ele>
        <time>2026-05-04T22:43:14.796Z</time>
      </trkpt>
      <trkpt lat="43.502628" lon="10.642636">
        <ele>140.210630</ele>
        <time>2026-05-04T22:43:20.380Z</time>
      </trkpt>
      <trkpt lat="43.502714" lon="10.643016">
        <ele>137.143566</ele>
        <time>2026-05-04T22:43:26.071Z</time>
      </trkpt>
      <trkpt lat="43.503072" lon="10.643928">
        <ele>130.838571</ele>
        <time>2026-05-04T22:43:41.574Z</time>
      </trkpt>
      <trkpt lat="43.503094" lon="10.644124">
        <ele>130.152442</ele>
        <time>2026-05-04T22:43:44.676Z</time>
      </trkpt>
      <trkpt lat="43.503227" lon="10.645366">
        <ele>125.809197</ele>
        <time>2026-05-04T22:44:05.428Z</time>
      </trkpt>
      <trkpt lat="43.503290" lon="10.645624">
        <ele>124.867432</ele>
        <time>2026-05-04T22:44:10.129Z</time>
      </trkpt>
      <trkpt lat="43.503912" lon="10.646203">
        <ele>121.372309</ele>
        <time>2026-05-04T22:44:27.480Z</time>
      </trkpt>
      <trkpt lat="43.503929" lon="10.646256">
        <ele>121.179046</ele>
        <time>2026-05-04T22:44:28.423Z</time>
      </trkpt>
      <trkpt lat="43.504177" lon="10.647051">
        <ele>118.292969</ele>
        <time>2026-05-04T22:44:42.312Z</time>
      </trkpt>
      <trkpt lat="43.504901" lon="10.648659">
        <ele>112.461381</ele>
        <time>2026-05-04T22:45:12.290Z</time>
      </trkpt>
      <trkpt lat="43.505049" lon="10.650172">
        <ele>108.184710</ele>
        <time>2026-05-04T22:45:38.211Z</time>
      </trkpt>
      <trkpt lat="43.505329" lon="10.650824">
        <ele>107.158036</ele>
        <time>2026-05-04T22:45:52.141Z</time>
      </trkpt>
      <trkpt lat="43.505757" lon="10.651824">
        <ele>105.584766</ele>
        <time>2026-05-04T22:46:14.189Z</time>
      </trkpt>
      <trkpt lat="43.506185" lon="10.652736">
        <ele>103.969384</ele>
        <time>2026-05-04T22:46:34.450Z</time>
      </trkpt>
      <trkpt lat="43.506870" lon="10.653830">
        <ele>101.657214</ele>
        <time>2026-05-04T22:47:00.624Z</time>
      </trkpt>
      <trkpt lat="43.507516" lon="10.654431">
        <ele>98.453978</ele>
        <time>2026-05-04T22:47:19.416Z</time>
      </trkpt>
      <trkpt lat="43.508302" lon="10.654721">
        <ele>93.999791</ele>
        <time>2026-05-04T22:47:37.343Z</time>
      </trkpt>
      <trkpt lat="43.508800" lon="10.655437">
        <ele>89.682050</ele>
        <time>2026-05-04T22:47:51.894Z</time>
      </trkpt>
      <trkpt lat="43.508960" lon="10.655710">
        <ele>87.776939</ele>
        <time>2026-05-04T22:47:56.887Z</time>
      </trkpt>
      <trkpt lat="43.509013" lon="10.655847">
        <ele>86.934165</ele>
        <time>2026-05-04T22:47:59.100Z</time>
      </trkpt>
      <trkpt lat="43.509157" lon="10.656463">
        <ele>83.421292</ele>
        <time>2026-05-04T22:48:08.370Z</time>
      </trkpt>
      <trkpt lat="43.509227" lon="10.656552">
        <ele>82.708698</ele>
        <time>2026-05-04T22:48:10.296Z</time>
      </trkpt>
      <trkpt lat="43.509679" lon="10.656776">
        <ele>79.114162</ele>
        <time>2026-05-04T22:48:20.292Z</time>
      </trkpt>
      <trkpt lat="43.509751" lon="10.656852">
        <ele>78.435560</ele>
        <time>2026-05-04T22:48:22.271Z</time>
      </trkpt>
      <trkpt lat="43.509070" lon="10.657074">
        <ele>77.016025</ele>
        <time>2026-05-04T22:48:31.576Z</time>
      </trkpt>
      <trkpt lat="43.508818" lon="10.657240">
        <ele>76.725253</ele>
        <time>2026-05-04T22:48:36.267Z</time>
      </trkpt>
      <trkpt lat="43.508574" lon="10.657450">
        <ele>76.425787</ele>
        <time>2026-05-04T22:48:42.095Z</time>
      </trkpt>
      <trkpt lat="43.506833" lon="10.659032">
        <ele>76.617731</ele>
        <time>2026-05-04T22:49:23.988Z</time>
      </trkpt>
      <trkpt lat="43.506617" lon="10.659299">
        <ele>76.789766</ele>
        <time>2026-05-04T22:49:29.397Z</time>
      </trkpt>
      <trkpt lat="43.506188" lon="10.659942">
        <ele>77.090870</ele>
        <time>2026-05-04T22:49:40.776Z</time>
      </trkpt>
      <trkpt lat="43.505972" lon="10.660165">
        <ele>77.215604</ele>
        <time>2026-05-04T22:49:45.511Z</time>
      </trkpt>
      <trkpt lat="43.505853" lon="10.660221">
        <ele>77.273727</ele>
        <time>2026-05-04T22:49:47.750Z</time>
      </trkpt>
      <trkpt lat="43.505643" lon="10.660260">
        <ele>77.371674</ele>
        <time>2026-05-04T22:49:51.641Z</time>
      </trkpt>
      <trkpt lat="43.504869" lon="10.660234">
        <ele>77.976588</ele>
        <time>2026-05-04T22:50:07.567Z</time>
      </trkpt>
      <trkpt lat="43.504679" lon="10.660272">
        <ele>78.373135</ele>
        <time>2026-05-04T22:50:11.926Z</time>
      </trkpt>
      <trkpt lat="43.504010" lon="10.660563">
        <ele>79.822076</ele>
        <time>2026-05-04T22:50:28.921Z</time>
      </trkpt>
      <trkpt lat="43.503376" lon="10.660861">
        <ele>81.205597</ele>
        <time>2026-05-04T22:50:46.593Z</time>
      </trkpt>
      <trkpt lat="43.502905" lon="10.661118">
        <ele>82.446130</ele>
        <time>2026-05-04T22:50:59.973Z</time>
      </trkpt>
      <trkpt lat="43.502728" lon="10.661260">
        <ele>82.962653</ele>
        <time>2026-05-04T22:51:05.358Z</time>
      </trkpt>
      <trkpt lat="43.502421" lon="10.661568">
        <ele>83.920307</ele>
        <time>2026-05-04T22:51:15.370Z</time>
      </trkpt>
      <trkpt lat="43.501845" lon="10.662360">
        <ele>85.957640</ele>
        <time>2026-05-04T22:51:36.199Z</time>
      </trkpt>
      <trkpt lat="43.501678" lon="10.662547">
        <ele>86.373382</ele>
        <time>2026-05-04T22:51:41.441Z</time>
      </trkpt>
      <trkpt lat="43.501318" lon="10.662867">
        <ele>87.201101</ele>
        <time>2026-05-04T22:51:51.537Z</time>
      </trkpt>
      <trkpt lat="43.500731" lon="10.663232">
        <ele>88.445447</ele>
        <time>2026-05-04T22:52:06.475Z</time>
      </trkpt>
      <trkpt lat="43.500202" lon="10.663448">
        <ele>89.513295</ele>
        <time>2026-05-04T22:52:19.716Z</time>
      </trkpt>
      <trkpt lat="43.498708" lon="10.663714">
        <ele>92.464156</ele>
        <time>2026-05-04T22:52:57.570Z</time>
      </trkpt>
      <trkpt lat="43.498290" lon="10.663788">
        <ele>93.009128</ele>
        <time>2026-05-04T22:53:06.652Z</time>
      </trkpt>
      <trkpt lat="43.498270" lon="10.663791">
        <ele>93.019495</ele>
        <time>2026-05-04T22:53:07.072Z</time>
      </trkpt>
      <trkpt lat="43.498219" lon="10.663798">
        <ele>93.045906</ele>
        <time>2026-05-04T22:53:08.063Z</time>
      </trkpt>
      <trkpt lat="43.498021" lon="10.663801">
        <ele>93.147947</ele>
        <time>2026-05-04T22:53:11.908Z</time>
      </trkpt>
      <trkpt lat="43.497760" lon="10.663683">
        <ele>93.289495</ele>
        <time>2026-05-04T22:53:17.058Z</time>
      </trkpt>
      <trkpt lat="43.497669" lon="10.663635">
        <ele>93.339706</ele>
        <time>2026-05-04T22:53:18.887Z</time>
      </trkpt>
      <trkpt lat="43.497432" lon="10.663763">
        <ele>93.470876</ele>
        <time>2026-05-04T22:53:23.398Z</time>
      </trkpt>
      <trkpt lat="43.497401" lon="10.663765">
        <ele>93.486869</ele>
        <time>2026-05-04T22:53:23.977Z</time>
      </trkpt>
      <trkpt lat="43.497360" lon="10.663766">
        <ele>93.508001</ele>
        <time>2026-05-04T22:53:24.701Z</time>
      </trkpt>
      <trkpt lat="43.496976" lon="10.663806">
        <ele>93.706450</ele>
        <time>2026-05-04T22:53:31.389Z</time>
      </trkpt>
      <trkpt lat="43.495121" lon="10.664152">
        <ele>95.023699</ele>
        <time>2026-05-04T22:54:08.648Z</time>
      </trkpt>
      <trkpt lat="43.494042" lon="10.664278">
        <ele>96.481081</ele>
        <time>2026-05-04T22:54:32.714Z</time>
      </trkpt>
      <trkpt lat="43.493963" lon="10.664327">
        <ele>96.608107</ele>
        <time>2026-05-04T22:54:34.764Z</time>
      </trkpt>
      <trkpt lat="43.493879" lon="10.664397">
        <ele>96.752037</ele>
        <time>2026-05-04T22:54:37.072Z</time>
      </trkpt>
      <trkpt lat="43.493655" lon="10.664599">
        <ele>97.144536</ele>
        <time>2026-05-04T22:54:43.389Z</time>
      </trkpt>
      <trkpt lat="43.493234" lon="10.665103">
        <ele>97.987631</ele>
        <time>2026-05-04T22:54:56.224Z</time>
      </trkpt>
      <trkpt lat="43.493092" lon="10.665409">
        <ele>98.431670</ele>
        <time>2026-05-04T22:55:02.133Z</time>
      </trkpt>
      <trkpt lat="43.492901" lon="10.666146">
        <ele>99.388348</ele>
        <time>2026-05-04T22:55:15.156Z</time>
      </trkpt>
      <trkpt lat="43.492784" lon="10.666372">
        <ele>99.727745</ele>
        <time>2026-05-04T22:55:19.793Z</time>
      </trkpt>
      <trkpt lat="43.492661" lon="10.666508">
        <ele>99.993441</ele>
        <time>2026-05-04T22:55:23.341Z</time>
      </trkpt>
      <trkpt lat="43.492392" lon="10.666674">
        <ele>100.490061</ele>
        <time>2026-05-04T22:55:29.992Z</time>
      </trkpt>
      <trkpt lat="43.492118" lon="10.666774">
        <ele>100.992876</ele>
        <time>2026-05-04T22:55:36.665Z</time>
      </trkpt>
      <trkpt lat="43.491814" lon="10.666838">
        <ele>101.600867</ele>
        <time>2026-05-04T22:55:44.361Z</time>
      </trkpt>
      <trkpt lat="43.491569" lon="10.666855">
        <ele>102.085856</ele>
        <time>2026-05-04T22:55:50.854Z</time>
      </trkpt>
      <trkpt lat="43.491197" lon="10.666895">
        <ele>102.823550</ele>
        <time>2026-05-04T22:56:00.420Z</time>
      </trkpt>
      <trkpt lat="43.490989" lon="10.666965">
        <ele>103.246854</ele>
        <time>2026-05-04T22:56:05.643Z</time>
      </trkpt>
      <trkpt lat="43.490566" lon="10.667177">
        <ele>104.136708</ele>
        <time>2026-05-04T22:56:16.037Z</time>
      </trkpt>
      <trkpt lat="43.489994" lon="10.667505">
        <ele>104.949133</ele>
        <time>2026-05-04T22:56:29.726Z</time>
      </trkpt>
      <trkpt lat="43.489828" lon="10.667550">
        <ele>105.143334</ele>
        <time>2026-05-04T22:56:33.295Z</time>
      </trkpt>
      <trkpt lat="43.489416" lon="10.667524">
        <ele>105.616764</ele>
        <time>2026-05-04T22:56:41.437Z</time>
      </trkpt>
      <trkpt lat="43.488801" lon="10.667816">
        <ele>106.363432</ele>
        <time>2026-05-04T22:56:55.111Z</time>
      </trkpt>
      <trkpt lat="43.488515" lon="10.667889">
        <ele>106.757680</ele>
        <time>2026-05-04T22:57:01.697Z</time>
      </trkpt>
      <trkpt lat="43.488384" lon="10.667901">
        <ele>106.944138</ele>
        <time>2026-05-04T22:57:04.647Z</time>
      </trkpt>
      <trkpt lat="43.487905" lon="10.667949">
        <ele>107.626217</ele>
        <time>2026-05-04T22:57:15.607Z</time>
      </trkpt>
      <trkpt lat="43.487576" lon="10.668079">
        <ele>108.112290</ele>
        <time>2026-05-04T22:57:23.254Z</time>
      </trkpt>
      <trkpt lat="43.487357" lon="10.668121">
        <ele>108.426313</ele>
        <time>2026-05-04T22:57:28.157Z</time>
      </trkpt>
      <trkpt lat="43.486895" lon="10.668063">
        <ele>109.083255</ele>
        <time>2026-05-04T22:57:38.571Z</time>
      </trkpt>
      <trkpt lat="43.486271" lon="10.668159">
        <ele>109.955548</ele>
        <time>2026-05-04T22:57:52.773Z</time>
      </trkpt>
      <trkpt lat="43.485353" lon="10.668181">
        <ele>111.231098</ele>
        <time>2026-05-04T22:58:12.595Z</time>
      </trkpt>
      <trkpt lat="43.485184" lon="10.668217">
        <ele>111.468674</ele>
        <time>2026-05-04T22:58:16.487Z</time>
      </trkpt>
      <trkpt lat="43.485065" lon="10.668321">
        <ele>111.750376</ele>
        <time>2026-05-04T22:58:19.755Z</time>
      </trkpt>
      <trkpt lat="43.484949" lon="10.668533">
        <ele>112.154699</ele>
        <time>2026-05-04T22:58:24.273Z</time>
      </trkpt>
      <trkpt lat="43.484907" lon="10.668669">
        <ele>112.379768</ele>
        <time>2026-05-04T22:58:26.898Z</time>
      </trkpt>
      <trkpt lat="43.484583" lon="10.670314">
        <ele>114.975299</ele>
        <time>2026-05-04T22:58:56.896Z</time>
      </trkpt>
      <trkpt lat="43.484565" lon="10.671174">
        <ele>117.282140</ele>
        <time>2026-05-04T22:59:14.403Z</time>
      </trkpt>
      <trkpt lat="43.484533" lon="10.671427">
        <ele>118.057432</ele>
        <time>2026-05-04T22:59:19.919Z</time>
      </trkpt>
      <trkpt lat="43.484446" lon="10.671635">
        <ele>118.782224</ele>
        <time>2026-05-04T22:59:25.174Z</time>
      </trkpt>
      <trkpt lat="43.484174" lon="10.672013">
        <ele>120.389393</ele>
        <time>2026-05-04T22:59:37.312Z</time>
      </trkpt>
      <trkpt lat="43.483802" lon="10.672459">
        <ele>122.440867</ele>
        <time>2026-05-04T22:59:54.396Z</time>
      </trkpt>
      <trkpt lat="43.483683" lon="10.672564">
        <ele>123.063428</ele>
        <time>2026-05-04T22:59:59.532Z</time>
      </trkpt>
      <trkpt lat="43.483560" lon="10.672624">
        <ele>123.674937</ele>
        <time>2026-05-04T23:00:04.307Z</time>
      </trkpt>
      <trkpt lat="43.482748" lon="10.672841">
        <ele>127.551437</ele>
        <time>2026-05-04T23:00:33.853Z</time>
      </trkpt>
      <trkpt lat="43.482501" lon="10.673011">
        <ele>128.845379</ele>
        <time>2026-05-04T23:00:42.994Z</time>
      </trkpt>
      <trkpt lat="43.482220" lon="10.673336">
        <ele>130.564645</ele>
        <time>2026-05-04T23:00:54.334Z</time>
      </trkpt>
      <trkpt lat="43.482152" lon="10.673520">
        <ele>131.178656</ele>
        <time>2026-05-04T23:00:58.558Z</time>
      </trkpt>
      <trkpt lat="43.482154" lon="10.673669">
        <ele>131.143612</ele>
        <time>2026-05-04T23:01:01.429Z</time>
      </trkpt>
      <trkpt lat="43.482162" lon="10.673765">
        <ele>131.120890</ele>
        <time>2026-05-04T23:01:03.234Z</time>
      </trkpt>
      <trkpt lat="43.482353" lon="10.674430">
        <ele>130.952709</ele>
        <time>2026-05-04T23:01:14.496Z</time>
      </trkpt>
      <trkpt lat="43.482351" lon="10.674822">
        <ele>130.860528</ele>
        <time>2026-05-04T23:01:19.162Z</time>
      </trkpt>
      <trkpt lat="43.482249" lon="10.675318">
        <ele>130.739299</ele>
        <time>2026-05-04T23:01:24.564Z</time>
      </trkpt>
      <trkpt lat="43.481945" lon="10.676313">
        <ele>129.417805</ele>
        <time>2026-05-04T23:01:34.818Z</time>
      </trkpt>
      <trkpt lat="43.481501" lon="10.677764">
        <ele>125.640007</ele>
        <time>2026-05-04T23:01:49.373Z</time>
      </trkpt>
      <trkpt lat="43.481401" lon="10.678252">
        <ele>124.464357</ele>
        <time>2026-05-04T23:01:54.200Z</time>
      </trkpt>
      <trkpt lat="43.481257" lon="10.680693">
        <ele>119.624400</ele>
        <time>2026-05-04T23:02:18.206Z</time>
      </trkpt>
      <trkpt lat="43.481127" lon="10.682763">
        <ele>115.435522</ele>
        <time>2026-05-04T23:02:38.132Z</time>
      </trkpt>
      <trkpt lat="43.481128" lon="10.683253">
        <ele>114.552240</ele>
        <time>2026-05-04T23:02:42.912Z</time>
      </trkpt>
      <trkpt lat="43.481521" lon="10.684335">
        <ele>112.926749</ele>
        <time>2026-05-04T23:02:55.194Z</time>
      </trkpt>
      <trkpt lat="43.481722" lon="10.685681">
        <ele>111.224858</ele>
        <time>2026-05-04T23:03:10.031Z</time>
      </trkpt>
      <trkpt lat="43.481572" lon="10.686379">
        <ele>110.649341</ele>
        <time>2026-05-04T23:03:18.187Z</time>
      </trkpt>
      <trkpt lat="43.481317" lon="10.687890">
        <ele>109.411584</ele>
        <time>2026-05-04T23:03:35.566Z</time>
      </trkpt>
      <trkpt lat="43.481310" lon="10.688213">
        <ele>109.096529</ele>
        <time>2026-05-04T23:03:39.114Z</time>
      </trkpt>
      <trkpt lat="43.481418" lon="10.689704">
        <ele>107.635627</ele>
        <time>2026-05-04T23:03:55.229Z</time>
      </trkpt>
      <trkpt lat="43.481383" lon="10.690306">
        <ele>107.047257</ele>
        <time>2026-05-04T23:04:01.655Z</time>
      </trkpt>
      <trkpt lat="43.481070" lon="10.692009">
        <ele>105.432138</ele>
        <time>2026-05-04T23:04:20.574Z</time>
      </trkpt>
      <trkpt lat="43.480964" lon="10.692745">
        <ele>104.736755</ele>
        <time>2026-05-04T23:04:29.000Z</time>
      </trkpt>
      <trkpt lat="43.480750" lon="10.693342">
        <ele>104.022998</ele>
        <time>2026-05-04T23:04:36.399Z</time>
      </trkpt>
      <trkpt lat="43.480654" lon="10.693545">
        <ele>103.763266</ele>
        <time>2026-05-04T23:04:39.052Z</time>
      </trkpt>
      <trkpt lat="43.480538" lon="10.693706">
        <ele>103.520062</ele>
        <time>2026-05-04T23:04:41.525Z</time>
      </trkpt>
      <trkpt lat="43.480419" lon="10.693786">
        <ele>103.324468</ele>
        <time>2026-05-04T23:04:43.490Z</time>
      </trkpt>
      <trkpt lat="43.480233" lon="10.693859">
        <ele>103.038773</ele>
        <time>2026-05-04T23:04:46.333Z</time>
      </trkpt>
      <trkpt lat="43.480065" lon="10.693979">
        <ele>102.759240</ele>
        <time>2026-05-04T23:04:49.086Z</time>
      </trkpt>
      <trkpt lat="43.479825" lon="10.694278">
        <ele>102.281303</ele>
        <time>2026-05-04T23:04:53.710Z</time>
      </trkpt>
      <trkpt lat="43.479446" lon="10.694852">
        <ele>101.147189</ele>
        <time>2026-05-04T23:05:01.496Z</time>
      </trkpt>
      <trkpt lat="43.479276" lon="10.695216">
        <ele>100.473597</ele>
        <time>2026-05-04T23:05:05.814Z</time>
      </trkpt>
      <trkpt lat="43.479135" lon="10.695623">
        <ele>99.771794</ele>
        <time>2026-05-04T23:05:10.340Z</time>
      </trkpt>
      <trkpt lat="43.479028" lon="10.696045">
        <ele>99.076191</ele>
        <time>2026-05-04T23:05:14.828Z</time>
      </trkpt>
      <trkpt lat="43.478798" lon="10.697225">
        <ele>97.501449</ele>
        <time>2026-05-04T23:05:27.300Z</time>
      </trkpt>
      <trkpt lat="43.478739" lon="10.697350">
        <ele>97.339145</ele>
        <time>2026-05-04T23:05:28.854Z</time>
      </trkpt>
      <trkpt lat="43.478615" lon="10.697484">
        <ele>97.102782</ele>
        <time>2026-05-04T23:05:31.107Z</time>
      </trkpt>
      <trkpt lat="43.477758" lon="10.698169">
        <ele>95.616728</ele>
        <time>2026-05-04T23:05:45.827Z</time>
      </trkpt>
      <trkpt lat="43.477598" lon="10.698400">
        <ele>95.451448</ele>
        <time>2026-05-04T23:05:49.579Z</time>
      </trkpt>
      <trkpt lat="43.477533" lon="10.698567">
        <ele>95.372935</ele>
        <time>2026-05-04T23:05:51.816Z</time>
      </trkpt>
      <trkpt lat="43.477354" lon="10.698353">
        <ele>95.237638</ele>
        <time>2026-05-04T23:05:55.676Z</time>
      </trkpt>
      <trkpt lat="43.477137" lon="10.698444">
        <ele>95.108134</ele>
        <time>2026-05-04T23:06:02.090Z</time>
      </trkpt>
      <trkpt lat="43.477083" lon="10.698533">
        <ele>95.060070</ele>
        <time>2026-05-04T23:06:04.468Z</time>
      </trkpt>
      <trkpt lat="43.476985" lon="10.698691">
        <ele>94.973955</ele>
        <time>2026-05-04T23:06:08.734Z</time>
      </trkpt>
      <trkpt lat="43.476929" lon="10.698864">
        <ele>94.895472</ele>
        <time>2026-05-04T23:06:12.642Z</time>
      </trkpt>
      <trkpt lat="43.476888" lon="10.699324">
        <ele>94.703459</ele>
        <time>2026-05-04T23:06:22.408Z</time>
      </trkpt>
      <trkpt lat="43.476930" lon="10.699509">
        <ele>94.623149</ele>
        <time>2026-05-04T23:06:26.560Z</time>
      </trkpt>
      <trkpt lat="43.476763" lon="10.700531">
        <ele>94.441167</ele>
        <time>2026-05-04T23:06:47.685Z</time>
      </trkpt>
      <trkpt lat="43.476371" lon="10.701828">
        <ele>94.281340</ele>
        <time>2026-05-04T23:07:17.203Z</time>
      </trkpt>
      <trkpt lat="43.475455" lon="10.704881">
        <ele>95.639598</ele>
        <time>2026-05-04T23:08:33.911Z</time>
      </trkpt>
      <trkpt lat="43.475357" lon="10.705088">
        <ele>95.747691</ele>
        <time>2026-05-04T23:08:39.565Z</time>
      </trkpt>
      <trkpt lat="43.475120" lon="10.705356">
        <ele>95.932461</ele>
        <time>2026-05-04T23:08:49.082Z</time>
      </trkpt>
      <trkpt lat="43.474914" lon="10.705493">
        <ele>96.070315</ele>
        <time>2026-05-04T23:08:55.958Z</time>
      </trkpt>
      <trkpt lat="43.474416" lon="10.706013">
        <ele>96.446880</ele>
        <time>2026-05-04T23:09:15.204Z</time>
      </trkpt>
      <trkpt lat="43.474307" lon="10.706233">
        <ele>96.868339</ele>
        <time>2026-05-04T23:09:21.637Z</time>
      </trkpt>
      <trkpt lat="43.474266" lon="10.706600">
        <ele>97.537056</ele>
        <time>2026-05-04T23:09:30.899Z</time>
      </trkpt>
      <trkpt lat="43.474243" lon="10.706932">
        <ele>98.137673</ele>
        <time>2026-05-04T23:09:39.443Z</time>
      </trkpt>
      <trkpt lat="43.474223" lon="10.707373">
        <ele>98.933420</ele>
        <time>2026-05-04T23:09:51.156Z</time>
      </trkpt>
      <trkpt lat="43.474209" lon="10.707664">
        <ele>99.458633</ele>
        <time>2026-05-04T23:09:59.095Z</time>
      </trkpt>
      <trkpt lat="43.474256" lon="10.707923">
        <ele>99.939429</ele>
        <time>2026-05-04T23:10:06.597Z</time>
      </trkpt>
      <trkpt lat="43.474537" lon="10.708051">
        <ele>100.673888</ele>
        <time>2026-05-04T23:10:18.789Z</time>
      </trkpt>
      <trkpt lat="43.474746" lon="10.707904">
        <ele>101.828938</ele>
        <time>2026-05-04T23:10:29.128Z</time>
      </trkpt>
      <trkpt lat="43.475187" lon="10.707714">
        <ele>104.983832</ele>
        <time>2026-05-04T23:10:50.776Z</time>
      </trkpt>
      <trkpt lat="43.475619" lon="10.707789">
        <ele>107.956852</ele>
        <time>2026-05-04T23:11:13.124Z</time>
      </trkpt>
      <trkpt lat="43.475867" lon="10.707974">
        <ele>109.882383</ele>
        <time>2026-05-04T23:11:28.605Z</time>
      </trkpt>
      <trkpt lat="43.475961" lon="10.708105">
        <ele>110.795214</ele>
        <time>2026-05-04T23:11:36.185Z</time>
      </trkpt>
      <trkpt lat="43.476195" lon="10.708744">
        <ele>114.500680</ele>
        <time>2026-05-04T23:12:06.859Z</time>
      </trkpt>
      <trkpt lat="43.476086" lon="10.709216">
        <ele>117.299919</ele>
        <time>2026-05-04T23:12:28.593Z</time>
      </trkpt>
      <trkpt lat="43.475852" lon="10.709809">
        <ele>121.114600</ele>
        <time>2026-05-04T23:12:57.174Z</time>
      </trkpt>
      <trkpt lat="43.475396" lon="10.710318">
        <ele>125.684709</ele>
        <time>2026-05-04T23:13:28.262Z</time>
      </trkpt>
      <trkpt lat="43.475295" lon="10.710549">
        <ele>127.208832</ele>
        <time>2026-05-04T23:13:37.908Z</time>
      </trkpt>
      <trkpt lat="43.474914" lon="10.711694">
        <ele>129.468536</ele>
        <time>2026-05-04T23:14:16.358Z</time>
      </trkpt>
      <trkpt lat="43.474828" lon="10.711895">
        <ele>129.885982</ele>
        <time>2026-05-04T23:14:22.264Z</time>
      </trkpt>
      <trkpt lat="43.474743" lon="10.711968">
        <ele>130.132900</ele>
        <time>2026-05-04T23:14:25.586Z</time>
      </trkpt>
      <trkpt lat="43.474104" lon="10.712040">
        <ele>131.651279</ele>
        <time>2026-05-04T23:14:44.989Z</time>
      </trkpt>
      <trkpt lat="43.473917" lon="10.712115">
        <ele>131.644599</ele>
        <time>2026-05-04T23:14:50.310Z</time>
      </trkpt>
      <trkpt lat="43.473831" lon="10.712260">
        <ele>131.639937</ele>
        <time>2026-05-04T23:14:53.942Z</time>
      </trkpt>
      <trkpt lat="43.473742" lon="10.713486">
        <ele>131.609268</ele>
        <time>2026-05-04T23:15:18.477Z</time>
      </trkpt>
      <trkpt lat="43.473754" lon="10.714419">
        <ele>131.923851</ele>
        <time>2026-05-04T23:15:40.091Z</time>
      </trkpt>
      <trkpt lat="43.474058" lon="10.715487">
        <ele>134.088702</ele>
        <time>2026-05-04T23:16:11.486Z</time>
      </trkpt>
      <trkpt lat="43.474081" lon="10.715787">
        <ele>134.657964</ele>
        <time>2026-05-04T23:16:20.334Z</time>
      </trkpt>
      <trkpt lat="43.474058" lon="10.716050">
        <ele>135.157845</ele>
        <time>2026-05-04T23:16:28.202Z</time>
      </trkpt>
      <trkpt lat="43.473937" lon="10.716380">
        <ele>135.855544</ele>
        <time>2026-05-04T23:16:39.137Z</time>
      </trkpt>
      <trkpt lat="43.473730" lon="10.716771">
        <ele>136.839592</ele>
        <time>2026-05-04T23:16:53.331Z</time>
      </trkpt>
      <trkpt lat="43.473270" lon="10.717396">
        <ele>138.756444</ele>
        <time>2026-05-04T23:17:18.754Z</time>
      </trkpt>
      <trkpt lat="43.472963" lon="10.717812">
        <ele>140.034047</ele>
        <time>2026-05-04T23:17:35.033Z</time>
      </trkpt>
      <trkpt lat="43.471068" lon="10.720398">
        <ele>149.384605</ele>
        <time>2026-05-04T23:19:19.593Z</time>
      </trkpt>
      <trkpt lat="43.470309" lon="10.721531">
        <ele>156.167148</ele>
        <time>2026-05-04T23:20:17.929Z</time>
      </trkpt>
      <trkpt lat="43.470173" lon="10.721852">
        <ele>157.802177</ele>
        <time>2026-05-04T23:20:32.695Z</time>
      </trkpt>
      <trkpt lat="43.470379" lon="10.722460">
        <ele>160.348429</ele>
        <time>2026-05-04T23:20:58.151Z</time>
      </trkpt>
      <trkpt lat="43.470415" lon="10.722661">
        <ele>161.112776</ele>
        <time>2026-05-04T23:21:05.691Z</time>
      </trkpt>
      <trkpt lat="43.469778" lon="10.724206">
        <ele>167.381887</ele>
        <time>2026-05-04T23:22:03.436Z</time>
      </trkpt>
      <trkpt lat="43.469746" lon="10.724081">
        <ele>167.382649</ele>
        <time>2026-05-04T23:22:05.865Z</time>
      </trkpt>
      <trkpt lat="43.469720" lon="10.723799">
        <ele>167.384283</ele>
        <time>2026-05-04T23:22:10.712Z</time>
      </trkpt>
      <trkpt lat="43.469687" lon="10.722748">
        <ele>167.390331</ele>
        <time>2026-05-04T23:22:23.767Z</time>
      </trkpt>
      <trkpt lat="43.469653" lon="10.722604">
        <ele>167.391201</ele>
        <time>2026-05-04T23:22:25.340Z</time>
      </trkpt>
      <trkpt lat="43.469593" lon="10.722469">
        <ele>167.392111</ele>
        <time>2026-05-04T23:22:26.948Z</time>
      </trkpt>
      <trkpt lat="43.469505" lon="10.722359">
        <ele>167.393052</ele>
        <time>2026-05-04T23:22:28.586Z</time>
      </trkpt>
      <trkpt lat="43.469284" lon="10.722215">
        <ele>167.394989</ele>
        <time>2026-05-04T23:22:31.911Z</time>
      </trkpt>
      <trkpt lat="43.468902" lon="10.722207">
        <ele>167.327261</ele>
        <time>2026-05-04T23:22:37.206Z</time>
      </trkpt>
      <trkpt lat="43.468709" lon="10.722144">
        <ele>167.281224</ele>
        <time>2026-05-04T23:22:40.024Z</time>
      </trkpt>
      <trkpt lat="43.467549" lon="10.721386">
        <ele>166.983227</ele>
        <time>2026-05-04T23:23:04.791Z</time>
      </trkpt>
      <trkpt lat="43.467431" lon="10.721380">
        <ele>167.013111</ele>
        <time>2026-05-04T23:23:07.450Z</time>
      </trkpt>
      <trkpt lat="43.467320" lon="10.721440">
        <ele>167.056313</ele>
        <time>2026-05-04T23:23:10.058Z</time>
      </trkpt>
      <trkpt lat="43.467222" lon="10.721563">
        <ele>167.104344</ele>
        <time>2026-05-04T23:23:12.883Z</time>
      </trkpt>
      <trkpt lat="43.466901" lon="10.722534">
        <ele>167.384923</ele>
        <time>2026-05-04T23:23:28.440Z</time>
      </trkpt>
      <trkpt lat="43.466772" lon="10.723046">
        <ele>167.527443</ele>
        <time>2026-05-04T23:23:35.218Z</time>
      </trkpt>
      <trkpt lat="43.466758" lon="10.723198">
        <ele>167.567734</ele>
        <time>2026-05-04T23:23:37.067Z</time>
      </trkpt>
      <trkpt lat="43.466735" lon="10.723430">
        <ele>167.629309</ele>
        <time>2026-05-04T23:23:39.903Z</time>
      </trkpt>
      <trkpt lat="43.466686" lon="10.723666">
        <ele>167.473699</ele>
        <time>2026-05-04T23:23:42.894Z</time>
      </trkpt>
      <trkpt lat="43.466592" lon="10.723939">
        <ele>167.279718</ele>
        <time>2026-05-04T23:23:46.519Z</time>
      </trkpt>
      <trkpt lat="43.466026" lon="10.724846">
        <ele>166.511808</ele>
        <time>2026-05-04T23:24:00.344Z</time>
      </trkpt>
      <trkpt lat="43.465825" lon="10.725312">
        <ele>166.163803</ele>
        <time>2026-05-04T23:24:06.289Z</time>
      </trkpt>
      <trkpt lat="43.464041" lon="10.730992">
        <ele>159.221560</ele>
        <time>2026-05-04T23:25:10.456Z</time>
      </trkpt>
      <trkpt lat="43.463959" lon="10.731180">
        <ele>159.127730</ele>
        <time>2026-05-04T23:25:13.030Z</time>
      </trkpt>
      <trkpt lat="43.463865" lon="10.731326">
        <ele>159.044240</ele>
        <time>2026-05-04T23:25:15.433Z</time>
      </trkpt>
      <trkpt lat="43.463749" lon="10.731433">
        <ele>158.961961</ele>
        <time>2026-05-04T23:25:17.951Z</time>
      </trkpt>
      <trkpt lat="43.463662" lon="10.731441">
        <ele>158.910568</ele>
        <time>2026-05-04T23:25:19.515Z</time>
      </trkpt>
      <trkpt lat="43.463749" lon="10.731433">
        <ele>158.859176</ele>
        <time>2026-05-04T23:25:21.311Z</time>
      </trkpt>
      <trkpt lat="43.463865" lon="10.731326">
        <ele>158.776897</ele>
        <time>2026-05-04T23:25:24.114Z</time>
      </trkpt>
      <trkpt lat="43.463959" lon="10.731180">
        <ele>158.693407</ele>
        <time>2026-05-04T23:25:26.969Z</time>
      </trkpt>
      <trkpt lat="43.464041" lon="10.730992">
        <ele>158.602584</ele>
        <time>2026-05-04T23:25:30.290Z</time>
      </trkpt>
      <trkpt lat="43.464084" lon="10.731117">
        <ele>158.573192</ele>
        <time>2026-05-04T23:25:33.562Z</time>
      </trkpt>
      <trkpt lat="43.463961" lon="10.731884">
        <ele>158.406291</ele>
        <time>2026-05-04T23:25:52.183Z</time>
      </trkpt>
      <trkpt lat="43.463578" lon="10.735000">
        <ele>152.894071</ele>
        <time>2026-05-04T23:26:54.067Z</time>
      </trkpt>
      <trkpt lat="43.464014" lon="10.735509">
        <ele>150.374128</ele>
        <time>2026-05-04T23:27:05.546Z</time>
      </trkpt>
      <trkpt lat="43.464091" lon="10.735563">
        <ele>149.696902</ele>
        <time>2026-05-04T23:27:07.223Z</time>
      </trkpt>
      <trkpt lat="43.464901" lon="10.735703">
        <ele>139.200657</ele>
        <time>2026-05-04T23:27:22.448Z</time>
      </trkpt>
      <trkpt lat="43.465158" lon="10.735853">
        <ele>135.612007</ele>
        <time>2026-05-04T23:27:27.587Z</time>
      </trkpt>
      <trkpt lat="43.465423" lon="10.735917">
        <ele>132.152807</ele>
        <time>2026-05-04T23:27:32.563Z</time>
      </trkpt>
      <trkpt lat="43.465875" lon="10.736132">
        <ele>126.605480</ele>
        <time>2026-05-04T23:27:41.584Z</time>
      </trkpt>
      <trkpt lat="43.466365" lon="10.736303">
        <ele>123.946173</ele>
        <time>2026-05-04T23:27:51.655Z</time>
      </trkpt>
      <trkpt lat="43.466435" lon="10.736422">
        <ele>123.361291</ele>
        <time>2026-05-04T23:27:53.935Z</time>
      </trkpt>
      <trkpt lat="43.466435" lon="10.736582">
        <ele>122.750357</ele>
        <time>2026-05-04T23:27:56.410Z</time>
      </trkpt>
      <trkpt lat="43.466334" lon="10.737054">
        <ele>120.871403</ele>
        <time>2026-05-04T23:28:04.332Z</time>
      </trkpt>
      <trkpt lat="43.466194" lon="10.737344">
        <ele>119.541495</ele>
        <time>2026-05-04T23:28:10.542Z</time>
      </trkpt>
      <trkpt lat="43.466209" lon="10.737484">
        <ele>119.001132</ele>
        <time>2026-05-04T23:28:13.273Z</time>
      </trkpt>
      <trkpt lat="43.466389" lon="10.737687">
        <ele>117.777369</ele>
        <time>2026-05-04T23:28:20.146Z</time>
      </trkpt>
      <trkpt lat="43.466934" lon="10.738020">
        <ele>120.488307</ele>
        <time>2026-05-04T23:28:42.899Z</time>
      </trkpt>
      <trkpt lat="43.467572" lon="10.738256">
        <ele>123.977186</ele>
        <time>2026-05-04T23:29:14.920Z</time>
      </trkpt>
      <trkpt lat="43.467899" lon="10.738417">
        <ele>125.811167</ele>
        <time>2026-05-04T23:29:34.197Z</time>
      </trkpt>
      <trkpt lat="43.468186" lon="10.738481">
        <ele>127.558982</ele>
        <time>2026-05-04T23:29:51.170Z</time>
      </trkpt>
      <trkpt lat="43.468244" lon="10.738333">
        <ele>128.678448</ele>
        <time>2026-05-04T23:29:56.860Z</time>
      </trkpt>
      <trkpt lat="43.468435" lon="10.738142">
        <ele>130.842718</ele>
        <time>2026-05-04T23:30:07.861Z</time>
      </trkpt>
      <trkpt lat="43.468635" lon="10.738076">
        <ele>132.728710</ele>
        <time>2026-05-04T23:30:17.370Z</time>
      </trkpt>
      <trkpt lat="43.468981" lon="10.738048">
        <ele>135.907212</ele>
        <time>2026-05-04T23:30:33.045Z</time>
      </trkpt>
      <trkpt lat="43.469216" lon="10.737941">
        <ele>138.176921</ele>
        <time>2026-05-04T23:30:44.217Z</time>
      </trkpt>
      <trkpt lat="43.469319" lon="10.737820">
        <ele>139.418193</ele>
        <time>2026-05-04T23:30:50.421Z</time>
      </trkpt>
      <trkpt lat="43.469721" lon="10.737082">
        <ele>146.259744</ele>
        <time>2026-05-04T23:31:23.653Z</time>
      </trkpt>
      <trkpt lat="43.470009" lon="10.736399">
        <ele>153.351567</ele>
        <time>2026-05-04T23:31:57.684Z</time>
      </trkpt>
      <trkpt lat="43.470199" lon="10.736040">
        <ele>157.340645</ele>
        <time>2026-05-04T23:32:18.583Z</time>
      </trkpt>
      <trkpt lat="43.470249" lon="10.735857">
        <ele>159.096173</ele>
        <time>2026-05-04T23:32:27.654Z</time>
      </trkpt>
      <trkpt lat="43.470346" lon="10.735265">
        <ele>164.544846</ele>
        <time>2026-05-04T23:32:54.599Z</time>
      </trkpt>
      <trkpt lat="43.470409" lon="10.734801">
        <ele>167.996467</ele>
        <time>2026-05-04T23:33:13.229Z</time>
      </trkpt>
      <trkpt lat="43.470321" lon="10.734293">
        <ele>171.447686</ele>
        <time>2026-05-04T23:33:32.054Z</time>
      </trkpt>
      <trkpt lat="43.470307" lon="10.734031">
        <ele>173.183695</ele>
        <time>2026-05-04T23:33:41.042Z</time>
      </trkpt>
      <trkpt lat="43.470370" lon="10.733643">
        <ele>175.811026</ele>
        <time>2026-05-04T23:33:53.419Z</time>
      </trkpt>
      <trkpt lat="43.470391" lon="10.733291">
        <ele>178.144921</ele>
        <time>2026-05-04T23:34:03.648Z</time>
      </trkpt>
      <trkpt lat="43.470511" lon="10.733278">
        <ele>179.240946</ele>
        <time>2026-05-04T23:34:09.079Z</time>
      </trkpt>
      <trkpt lat="43.470573" lon="10.733128">
        <ele>180.381649</ele>
        <time>2026-05-04T23:34:14.854Z</time>
      </trkpt>
      <trkpt lat="43.470659" lon="10.732623">
        <ele>183.660593</ele>
        <time>2026-05-04T23:34:32.951Z</time>
      </trkpt>
      <trkpt lat="43.470842" lon="10.731922">
        <ele>188.133624</ele>
        <time>2026-05-04T23:35:01.903Z</time>
      </trkpt>
      <trkpt lat="43.470777" lon="10.730707">
        <ele>195.448610</ele>
        <time>2026-05-04T23:35:48.014Z</time>
      </trkpt>
      <trkpt lat="43.470705" lon="10.730667">
        <ele>196.090894</ele>
        <time>2026-05-04T23:35:51.746Z</time>
      </trkpt>
      <trkpt lat="43.470659" lon="10.730259">
        <ele>197.715845</ele>
        <time>2026-05-04T23:36:03.802Z</time>
      </trkpt>
      <trkpt lat="43.470455" lon="10.729273">
        <ele>200.384702</ele>
        <time>2026-05-04T23:36:29.224Z</time>
      </trkpt>
      <trkpt lat="43.470915" lon="10.728846">
        <ele>202.374092</ele>
        <time>2026-05-04T23:36:42.599Z</time>
      </trkpt>
      <trkpt lat="43.471240" lon="10.728633">
        <ele>203.517589</ele>
        <time>2026-05-04T23:36:49.773Z</time>
      </trkpt>
      <trkpt lat="43.471493" lon="10.728522">
        <ele>203.543386</ele>
        <time>2026-05-04T23:36:54.677Z</time>
      </trkpt>
      <trkpt lat="43.471896" lon="10.728311">
        <ele>203.585271</ele>
        <time>2026-05-04T23:37:02.051Z</time>
      </trkpt>
      <trkpt lat="43.471992" lon="10.728375">
        <ele>203.595632</ele>
        <time>2026-05-04T23:37:03.726Z</time>
      </trkpt>
      <trkpt lat="43.472101" lon="10.728383">
        <ele>203.606238</ele>
        <time>2026-05-04T23:37:05.456Z</time>
      </trkpt>
      <trkpt lat="43.472345" lon="10.728318">
        <ele>203.630383</ele>
        <time>2026-05-04T23:37:09.346Z</time>
      </trkpt>
      <trkpt lat="43.472752" lon="10.728058">
        <ele>203.673968</ele>
        <time>2026-05-04T23:37:17.200Z</time>
      </trkpt>
      <trkpt lat="43.472862" lon="10.727983">
        <ele>203.685892</ele>
        <time>2026-05-04T23:37:19.797Z</time>
      </trkpt>
      <trkpt lat="43.472996" lon="10.727909">
        <ele>203.926199</ele>
        <time>2026-05-04T23:37:23.063Z</time>
      </trkpt>
      <trkpt lat="43.473122" lon="10.727891">
        <ele>204.176933</ele>
        <time>2026-05-04T23:37:26.047Z</time>
      </trkpt>
      <trkpt lat="43.473431" lon="10.727985">
        <ele>204.803276</ele>
        <time>2026-05-04T23:37:33.649Z</time>
      </trkpt>
      <trkpt lat="43.474176" lon="10.728260">
        <ele>206.329876</ele>
        <time>2026-05-04T23:37:54.189Z</time>
      </trkpt>
      <trkpt lat="43.474678" lon="10.728408">
        <ele>207.185162</ele>
        <time>2026-05-04T23:38:07.455Z</time>
      </trkpt>
      <trkpt lat="43.475250" lon="10.728399">
        <ele>206.452066</ele>
        <time>2026-05-04T23:38:19.249Z</time>
      </trkpt>
      <trkpt lat="43.475409" lon="10.728480">
        <ele>206.234821</ele>
        <time>2026-05-04T23:38:21.993Z</time>
      </trkpt>
      <trkpt lat="43.476174" lon="10.728883">
        <ele>205.185240</ele>
        <time>2026-05-04T23:38:33.546Z</time>
      </trkpt>
      <trkpt lat="43.476350" lon="10.729038">
        <ele>204.750919</ele>
        <time>2026-05-04T23:38:36.152Z</time>
      </trkpt>
      <trkpt lat="43.476401" lon="10.729079">
        <ele>204.185620</ele>
        <time>2026-05-04T23:38:36.867Z</time>
      </trkpt>
      <trkpt lat="43.476612" lon="10.729229">
        <ele>201.912497</ele>
        <time>2026-05-04T23:38:39.685Z</time>
      </trkpt>
      <trkpt lat="43.476855" lon="10.729282">
        <ele>199.557005</ele>
        <time>2026-05-04T23:38:42.481Z</time>
      </trkpt>
      <trkpt lat="43.477054" lon="10.729352">
        <ele>197.590648</ele>
        <time>2026-05-04T23:38:44.765Z</time>
      </trkpt>
      <trkpt lat="43.477106" lon="10.729952">
        <ele>193.392510</ele>
        <time>2026-05-04T23:38:49.495Z</time>
      </trkpt>
      <trkpt lat="43.477273" lon="10.730348">
        <ele>190.210430</ele>
        <time>2026-05-04T23:38:53.006Z</time>
      </trkpt>
      <trkpt lat="43.477351" lon="10.730728">
        <ele>187.392780</ele>
        <time>2026-05-04T23:38:56.015Z</time>
      </trkpt>
      <trkpt lat="43.477387" lon="10.731189">
        <ele>183.239945</ele>
        <time>2026-05-04T23:38:59.510Z</time>
      </trkpt>
      <trkpt lat="43.477453" lon="10.731578">
        <ele>179.661860</ele>
        <time>2026-05-04T23:39:02.513Z</time>
      </trkpt>
      <trkpt lat="43.477519" lon="10.731750">
        <ele>177.919199</ele>
        <time>2026-05-04T23:39:03.985Z</time>
      </trkpt>
      <trkpt lat="43.477530" lon="10.731782">
        <ele>177.602055</ele>
        <time>2026-05-04T23:39:04.251Z</time>
      </trkpt>
      <trkpt lat="43.477632" lon="10.731911">
        <ele>175.893263</ele>
        <time>2026-05-04T23:39:05.711Z</time>
      </trkpt>
      <trkpt lat="43.477760" lon="10.731927">
        <ele>174.306881</ele>
        <time>2026-05-04T23:39:07.070Z</time>
      </trkpt>
      <trkpt lat="43.477868" lon="10.732704">
        <ele>167.221130</ele>
        <time>2026-05-04T23:39:13.276Z</time>
      </trkpt>
      <trkpt lat="43.478013" lon="10.733001">
        <ele>164.209357</ele>
        <time>2026-05-04T23:39:16.147Z</time>
      </trkpt>
      <trkpt lat="43.478338" lon="10.733482">
        <ele>159.081866</ele>
        <time>2026-05-04T23:39:21.376Z</time>
      </trkpt>
      <trkpt lat="43.478491" lon="10.733721">
        <ele>156.595396</ele>
        <time>2026-05-04T23:39:23.895Z</time>
      </trkpt>
      <trkpt lat="43.478577" lon="10.733979">
        <ele>154.380384</ele>
        <time>2026-05-04T23:39:26.149Z</time>
      </trkpt>
      <trkpt lat="43.478605" lon="10.734117">
        <ele>153.262476</ele>
        <time>2026-05-04T23:39:27.279Z</time>
      </trkpt>
      <trkpt lat="43.478635" lon="10.734662">
        <ele>148.998423</ele>
        <time>2026-05-04T23:39:31.520Z</time>
      </trkpt>
      <trkpt lat="43.478857" lon="10.735729">
        <ele>139.819446</ele>
        <time>2026-05-04T23:39:39.971Z</time>
      </trkpt>
      <trkpt lat="43.478966" lon="10.736005">
        <ele>137.150188</ele>
        <time>2026-05-04T23:39:44.259Z</time>
      </trkpt>
      <trkpt lat="43.479067" lon="10.736153">
        <ele>135.424346</ele>
        <time>2026-05-04T23:39:47.029Z</time>
      </trkpt>
      <trkpt lat="43.479258" lon="10.736231">
        <ele>133.092290</ele>
        <time>2026-05-04T23:39:50.816Z</time>
      </trkpt>
      <trkpt lat="43.479503" lon="10.736427">
        <ele>129.775964</ele>
        <time>2026-05-04T23:39:56.244Z</time>
      </trkpt>
      <trkpt lat="43.479787" lon="10.736781">
        <ele>125.293137</ele>
        <time>2026-05-04T23:40:03.721Z</time>
      </trkpt>
      <trkpt lat="43.480558" lon="10.737494">
        <ele>119.153016</ele>
        <time>2026-05-04T23:40:22.977Z</time>
      </trkpt>
      <trkpt lat="43.480711" lon="10.737589">
        <ele>118.056437</ele>
        <time>2026-05-04T23:40:26.640Z</time>
      </trkpt>
      <trkpt lat="43.481309" lon="10.737642">
        <ele>114.140683</ele>
        <time>2026-05-04T23:40:39.811Z</time>
      </trkpt>
      <trkpt lat="43.481628" lon="10.737671">
        <ele>112.319830</ele>
        <time>2026-05-04T23:40:46.823Z</time>
      </trkpt>
      <trkpt lat="43.481959" lon="10.737795">
        <ele>110.532671</ele>
        <time>2026-05-04T23:40:54.309Z</time>
      </trkpt>
      <trkpt lat="43.482898" lon="10.738387">
        <ele>105.152682</ele>
        <time>2026-05-04T23:41:16.639Z</time>
      </trkpt>
      <trkpt lat="43.483882" lon="10.739474">
        <ele>99.721276</ele>
        <time>2026-05-04T23:41:44.695Z</time>
      </trkpt>
      <trkpt lat="43.483972" lon="10.739672">
        <ele>99.023586</ele>
        <time>2026-05-04T23:41:48.615Z</time>
      </trkpt>
      <trkpt lat="43.484058" lon="10.740447">
        <ele>96.682448</ele>
        <time>2026-05-04T23:42:01.848Z</time>
      </trkpt>
      <trkpt lat="43.484832" lon="10.741533">
        <ele>94.216638</ele>
        <time>2026-05-04T23:42:28.875Z</time>
      </trkpt>
      <trkpt lat="43.485750" lon="10.742762">
        <ele>90.308411</ele>
        <time>2026-05-04T23:43:02.467Z</time>
      </trkpt>
      <trkpt lat="43.486140" lon="10.742440">
        <ele>88.429469</ele>
        <time>2026-05-04T23:43:13.155Z</time>
      </trkpt>
      <trkpt lat="43.486233" lon="10.742446">
        <ele>88.044681</ele>
        <time>2026-05-04T23:43:15.254Z</time>
      </trkpt>
      <trkpt lat="43.486540" lon="10.742655">
        <ele>86.629518</ele>
        <time>2026-05-04T23:43:22.735Z</time>
      </trkpt>
      <trkpt lat="43.487638" lon="10.742537">
        <ele>80.167635</ele>
        <time>2026-05-04T23:43:45.091Z</time>
      </trkpt>
      <trkpt lat="43.488281" lon="10.742711">
        <ele>75.809807</ele>
        <time>2026-05-04T23:43:58.563Z</time>
      </trkpt>
      <trkpt lat="43.488431" lon="10.742916">
        <ele>74.405007</ele>
        <time>2026-05-04T23:44:03.129Z</time>
      </trkpt>
      <trkpt lat="43.488663" lon="10.742640">
        <ele>73.033105</ele>
        <time>2026-05-04T23:44:06.901Z</time>
      </trkpt>
      <trkpt lat="43.488954" lon="10.742356">
        <ele>72.446650</ele>
        <time>2026-05-04T23:44:11.630Z</time>
      </trkpt>
      <trkpt lat="43.490140" lon="10.741542">
        <ele>70.266246</ele>
        <time>2026-05-04T23:44:33.583Z</time>
      </trkpt>
      <trkpt lat="43.490746" lon="10.740959">
        <ele>68.991662</ele>
        <time>2026-05-04T23:44:45.183Z</time>
      </trkpt>
      <trkpt lat="43.491122" lon="10.740421">
        <ele>68.056934</ele>
        <time>2026-05-04T23:44:52.745Z</time>
      </trkpt>
      <trkpt lat="43.492287" lon="10.741250">
        <ele>65.171741</ele>
        <time>2026-05-04T23:45:11.170Z</time>
      </trkpt>
      <trkpt lat="43.493038" lon="10.741739">
        <ele>63.098896</ele>
        <time>2026-05-04T23:45:23.075Z</time>
      </trkpt>
      <trkpt lat="43.493094" lon="10.741802">
        <ele>62.918500</ele>
        <time>2026-05-04T23:45:24.104Z</time>
      </trkpt>
      <trkpt lat="43.493140" lon="10.741952">
        <ele>62.650048</ele>
        <time>2026-05-04T23:45:25.808Z</time>
      </trkpt>
      <trkpt lat="43.493034" lon="10.742283">
        <ele>62.213788</ele>
        <time>2026-05-04T23:45:29.669Z</time>
      </trkpt>
      <trkpt lat="43.493031" lon="10.742378">
        <ele>62.099133</ele>
        <time>2026-05-04T23:45:30.673Z</time>
      </trkpt>
      <trkpt lat="43.493074" lon="10.742494">
        <ele>61.942065</ele>
        <time>2026-05-04T23:45:32.055Z</time>
      </trkpt>
      <trkpt lat="43.493256" lon="10.742864">
        <ele>61.403054</ele>
        <time>2026-05-04T23:45:36.827Z</time>
      </trkpt>
      <trkpt lat="43.493383" lon="10.743099">
        <ele>61.049723</ele>
        <time>2026-05-04T23:45:39.971Z</time>
      </trkpt>
      <trkpt lat="43.492923" lon="10.743683">
        <ele>60.010315</ele>
        <time>2026-05-04T23:45:56.125Z</time>
      </trkpt>
      <trkpt lat="43.492481" lon="10.743904">
        <ele>59.723795</ele>
        <time>2026-05-04T23:46:09.286Z</time>
      </trkpt>
      <trkpt lat="43.492377" lon="10.744001">
        <ele>59.728351</ele>
        <time>2026-05-04T23:46:13.036Z</time>
      </trkpt>
      <trkpt lat="43.491897" lon="10.744449">
        <ele>59.749383</ele>
        <time>2026-05-04T23:46:30.718Z</time>
      </trkpt>
      <trkpt lat="43.491444" lon="10.745061">
        <ele>59.772397</ele>
        <time>2026-05-04T23:46:50.313Z</time>
      </trkpt>
      <trkpt lat="43.491358" lon="10.745306">
        <ele>59.792278</ele>
        <time>2026-05-04T23:46:56.350Z</time>
      </trkpt>
      <trkpt lat="43.491191" lon="10.745622">
        <ele>59.923632</ele>
        <time>2026-05-04T23:47:05.065Z</time>
      </trkpt>
      <trkpt lat="43.490938" lon="10.746390">
        <ele>60.207024</ele>
        <time>2026-05-04T23:47:23.949Z</time>
      </trkpt>
      <trkpt lat="43.490649" lon="10.747114">
        <ele>60.484668</ele>
        <time>2026-05-04T23:47:42.672Z</time>
      </trkpt>
      <trkpt lat="43.490297" lon="10.747752">
        <ele>60.807719</ele>
        <time>2026-05-04T23:48:01.164Z</time>
      </trkpt>
      <trkpt lat="43.489962" lon="10.748597">
        <ele>61.253277</ele>
        <time>2026-05-04T23:48:23.399Z</time>
      </trkpt>
      <trkpt lat="43.489202" lon="10.750165">
        <ele>62.038690</ele>
        <time>2026-05-04T23:49:06.449Z</time>
      </trkpt>
      <trkpt lat="43.488895" lon="10.750632">
        <ele>62.261095</ele>
        <time>2026-05-04T23:49:20.862Z</time>
      </trkpt>
      <trkpt lat="43.488480" lon="10.751395">
        <ele>62.597639</ele>
        <time>2026-05-04T23:49:42.517Z</time>
      </trkpt>
      <trkpt lat="43.487597" lon="10.752600">
        <ele>62.809824</ele>
        <time>2026-05-04T23:50:20.106Z</time>
      </trkpt>
      <trkpt lat="43.487109" lon="10.753153">
        <ele>62.905381</ele>
        <time>2026-05-04T23:50:38.771Z</time>
      </trkpt>
      <trkpt lat="43.486586" lon="10.753627">
        <ele>63.090345</ele>
        <time>2026-05-04T23:50:57.488Z</time>
      </trkpt>
      <trkpt lat="43.485928" lon="10.754155">
        <ele>63.315335</ele>
        <time>2026-05-04T23:51:20.919Z</time>
      </trkpt>
      <trkpt lat="43.485192" lon="10.754431">
        <ele>63.650272</ele>
        <time>2026-05-04T23:51:44.923Z</time>
      </trkpt>
      <trkpt lat="43.484019" lon="10.754549">
        <ele>64.362454</ele>
        <time>2026-05-04T23:52:22.342Z</time>
      </trkpt>
      <trkpt lat="43.483351" lon="10.754821">
        <ele>64.739195</ele>
        <time>2026-05-04T23:52:44.016Z</time>
      </trkpt>
      <trkpt lat="43.483100" lon="10.755139">
        <ele>64.909711</ele>
        <time>2026-05-04T23:52:54.514Z</time>
      </trkpt>
      <trkpt lat="43.482752" lon="10.755189">
        <ele>65.084702</ele>
        <time>2026-05-04T23:53:05.310Z</time>
      </trkpt>
      <trkpt lat="43.482523" lon="10.755336">
        <ele>65.211047</ele>
        <time>2026-05-04T23:53:13.072Z</time>
      </trkpt>
      <trkpt lat="43.484158" lon="10.759628">
        <ele>68.421029</ele>
        <time>2026-05-04T23:55:05.366Z</time>
      </trkpt>
      <trkpt lat="43.484281" lon="10.759636">
        <ele>68.586876</ele>
        <time>2026-05-04T23:55:09.638Z</time>
      </trkpt>
      <trkpt lat="43.484697" lon="10.759107">
        <ele>70.068892</ele>
        <time>2026-05-04T23:55:30.485Z</time>
      </trkpt>
      <trkpt lat="43.485318" lon="10.758319">
        <ele>74.556662</ele>
        <time>2026-05-04T23:56:08.269Z</time>
      </trkpt>
      <trkpt lat="43.485816" lon="10.757858">
        <ele>77.746063</ele>
        <time>2026-05-04T23:56:39.819Z</time>
      </trkpt>
      <trkpt lat="43.486027" lon="10.757772">
        <ele>78.973055</ele>
        <time>2026-05-04T23:56:51.772Z</time>
      </trkpt>
      <trkpt lat="43.486338" lon="10.757815">
        <ele>81.017531</ele>
        <time>2026-05-04T23:57:08.938Z</time>
      </trkpt>
      <trkpt lat="43.487739" lon="10.758437">
        <ele>90.554194</ele>
        <time>2026-05-04T23:58:23.694Z</time>
      </trkpt>
      <trkpt lat="43.488315" lon="10.758780">
        <ele>92.900845</ele>
        <time>2026-05-04T23:58:51.304Z</time>
      </trkpt>
      <trkpt lat="43.489857" lon="10.758449">
        <ele>98.245851</ele>
        <time>2026-05-04T23:59:51.927Z</time>
      </trkpt>
      <trkpt lat="43.490012" lon="10.758415">
        <ele>98.649998</ele>
        <time>2026-05-04T23:59:57.765Z</time>
      </trkpt>
      <trkpt lat="43.492090" lon="10.759235">
        <ele>104.628488</ele>
        <time>2026-05-05T00:01:18.990Z</time>
      </trkpt>
      <trkpt lat="43.492813" lon="10.759521">
        <ele>106.894995</ele>
        <time>2026-05-05T00:01:48.890Z</time>
      </trkpt>
      <trkpt lat="43.493328" lon="10.759567">
        <ele>109.441841</ele>
        <time>2026-05-05T00:02:10.959Z</time>
      </trkpt>
      <trkpt lat="43.495523" lon="10.759864">
        <ele>121.529533</ele>
        <time>2026-05-05T00:03:59.011Z</time>
      </trkpt>
      <trkpt lat="43.495981" lon="10.760175">
        <ele>124.376175</ele>
        <time>2026-05-05T00:04:25.451Z</time>
      </trkpt>
      <trkpt lat="43.496465" lon="10.760293">
        <ele>127.004191</ele>
        <time>2026-05-05T00:04:47.767Z</time>
      </trkpt>
      <trkpt lat="43.496748" lon="10.760540">
        <ele>127.130094</ele>
        <time>2026-05-05T00:05:01.086Z</time>
      </trkpt>
      <trkpt lat="43.496784" lon="10.760572">
        <ele>127.146195</ele>
        <time>2026-05-05T00:05:02.643Z</time>
      </trkpt>
      <trkpt lat="43.497281" lon="10.761661">
        <ele>127.497007</ele>
        <time>2026-05-05T00:05:29.879Z</time>
      </trkpt>
      <trkpt lat="43.498059" lon="10.762610">
        <ele>127.858765</ele>
        <time>2026-05-05T00:05:55.466Z</time>
      </trkpt>
      <trkpt lat="43.498624" lon="10.762679">
        <ele>128.043533</ele>
        <time>2026-05-05T00:06:11.843Z</time>
      </trkpt>
      <trkpt lat="43.498993" lon="10.762739">
        <ele>128.164568</ele>
        <time>2026-05-05T00:06:24.619Z</time>
      </trkpt>
      <trkpt lat="43.499297" lon="10.762879">
        <ele>128.470047</ele>
        <time>2026-05-05T00:06:37.105Z</time>
      </trkpt>
      <trkpt lat="43.499787" lon="10.762964">
        <ele>131.589587</ele>
        <time>2026-05-05T00:06:59.145Z</time>
      </trkpt>
      <trkpt lat="43.501149" lon="10.763512">
        <ele>140.526941</ele>
        <time>2026-05-05T00:08:15.489Z</time>
      </trkpt>
      <trkpt lat="43.501701" lon="10.764209">
        <ele>145.129557</ele>
        <time>2026-05-05T00:08:56.457Z</time>
      </trkpt>
      <trkpt lat="43.501865" lon="10.764565">
        <ele>147.010495</ele>
        <time>2026-05-05T00:09:11.421Z</time>
      </trkpt>
      <trkpt lat="43.501943" lon="10.764735">
        <ele>147.907658</ele>
        <time>2026-05-05T00:09:18.234Z</time>
      </trkpt>
      <trkpt lat="43.502301" lon="10.765239">
        <ele>150.849733</ele>
        <time>2026-05-05T00:09:40.422Z</time>
      </trkpt>
      <trkpt lat="43.502744" lon="10.765636">
        <ele>152.330167</ele>
        <time>2026-05-05T00:10:01.076Z</time>
      </trkpt>
      <trkpt lat="43.503382" lon="10.765765">
        <ele>154.136909</ele>
        <time>2026-05-05T00:10:26.258Z</time>
      </trkpt>
      <trkpt lat="43.503943" lon="10.765733">
        <ele>155.710125</ele>
        <time>2026-05-05T00:10:47.676Z</time>
      </trkpt>
      <trkpt lat="43.504308" lon="10.765893">
        <ele>155.328810</ele>
        <time>2026-05-05T00:11:00.402Z</time>
      </trkpt>
      <trkpt lat="43.504464" lon="10.766344">
        <ele>154.957173</ele>
        <time>2026-05-05T00:11:10.841Z</time>
      </trkpt>
      <trkpt lat="43.504781" lon="10.766848">
        <ele>154.460996</ele>
        <time>2026-05-05T00:11:22.768Z</time>
      </trkpt>
      <trkpt lat="43.505047" lon="10.767005">
        <ele>154.164282</ele>
        <time>2026-05-05T00:11:29.365Z</time>
      </trkpt>
      <trkpt lat="43.504636" lon="10.768570">
        <ele>155.238775</ele>
        <time>2026-05-05T00:11:47.394Z</time>
      </trkpt>
      <trkpt lat="43.504617" lon="10.768928">
        <ele>155.623211</ele>
        <time>2026-05-05T00:11:54.973Z</time>
      </trkpt>
      <trkpt lat="43.504653" lon="10.769099">
        <ele>155.813907</ele>
        <time>2026-05-05T00:11:59.192Z</time>
      </trkpt>
      <trkpt lat="43.504739" lon="10.769301">
        <ele>156.064759</ele>
        <time>2026-05-05T00:12:05.147Z</time>
      </trkpt>
      <trkpt lat="43.504985" lon="10.769626">
        <ele>156.624312</ele>
        <time>2026-05-05T00:12:18.475Z</time>
      </trkpt>
      <trkpt lat="43.505044" lon="10.769760">
        <ele>157.042037</ele>
        <time>2026-05-05T00:12:23.227Z</time>
      </trkpt>
      <trkpt lat="43.505075" lon="10.770104">
        <ele>157.965771</ele>
        <time>2026-05-05T00:12:33.725Z</time>
      </trkpt>
      <trkpt lat="43.504990" lon="10.771041">
        <ele>160.482128</ele>
        <time>2026-05-05T00:12:56.817Z</time>
      </trkpt>
      <trkpt lat="43.505027" lon="10.771335">
        <ele>161.277281</ele>
        <time>2026-05-05T00:13:02.003Z</time>
      </trkpt>
      <trkpt lat="43.505185" lon="10.771901">
        <ele>162.893398</ele>
        <time>2026-05-05T00:13:11.360Z</time>
      </trkpt>
      <trkpt lat="43.505372" lon="10.772293">
        <ele>163.849701</ele>
        <time>2026-05-05T00:13:18.370Z</time>
      </trkpt>
      <trkpt lat="43.505424" lon="10.772403">
        <ele>164.097304</ele>
        <time>2026-05-05T00:13:20.354Z</time>
      </trkpt>
      <trkpt lat="43.505588" lon="10.772577">
        <ele>164.635334</ele>
        <time>2026-05-05T00:13:24.654Z</time>
      </trkpt>
      <trkpt lat="43.506170" lon="10.772938">
        <ele>166.294589</ele>
        <time>2026-05-05T00:13:41.036Z</time>
      </trkpt>
      <trkpt lat="43.506485" lon="10.773059">
        <ele>167.144766</ele>
        <time>2026-05-05T00:13:51.942Z</time>
      </trkpt>
      <trkpt lat="43.506792" lon="10.773062">
        <ele>167.980070</ele>
        <time>2026-05-05T00:14:02.761Z</time>
      </trkpt>
      <trkpt lat="43.506907" lon="10.773116">
        <ele>168.387105</ele>
        <time>2026-05-05T00:14:06.883Z</time>
      </trkpt>
      <trkpt lat="43.507233" lon="10.773414">
        <ele>169.697602</ele>
        <time>2026-05-05T00:14:19.574Z</time>
      </trkpt>
      <trkpt lat="43.507505" lon="10.773477">
        <ele>170.621694</ele>
        <time>2026-05-05T00:14:27.992Z</time>
      </trkpt>
      <trkpt lat="43.507933" lon="10.773452">
        <ele>172.056974</ele>
        <time>2026-05-05T00:14:40.227Z</time>
      </trkpt>
      <trkpt lat="43.508026" lon="10.773409">
        <ele>172.385619</ele>
        <time>2026-05-05T00:14:42.896Z</time>
      </trkpt>
      <trkpt lat="43.508248" lon="10.773301">
        <ele>173.174361</ele>
        <time>2026-05-05T00:14:49.284Z</time>
      </trkpt>
      <trkpt lat="43.508281" lon="10.773286">
        <ele>173.290779</ele>
        <time>2026-05-05T00:14:50.206Z</time>
      </trkpt>
      <trkpt lat="43.509582" lon="10.772795">
        <ele>175.447385</ele>
        <time>2026-05-05T00:15:22.457Z</time>
      </trkpt>
      <trkpt lat="43.509743" lon="10.772717">
        <ele>175.678812</ele>
        <time>2026-05-05T00:15:26.497Z</time>
      </trkpt>
      <trkpt lat="43.510296" lon="10.772304">
        <ele>175.624560</ele>
        <time>2026-05-05T00:15:40.029Z</time>
      </trkpt>
      <trkpt lat="43.510382" lon="10.772199">
        <ele>175.218992</ele>
        <time>2026-05-05T00:15:41.929Z</time>
      </trkpt>
      <trkpt lat="43.510500" lon="10.772045">
        <ele>174.645343</ele>
        <time>2026-05-05T00:15:44.435Z</time>
      </trkpt>
      <trkpt lat="43.510795" lon="10.771794">
        <ele>173.421452</ele>
        <time>2026-05-05T00:15:49.325Z</time>
      </trkpt>
      <trkpt lat="43.511010" lon="10.771558">
        <ele>172.451190</ele>
        <time>2026-05-05T00:15:52.981Z</time>
      </trkpt>
      <trkpt lat="43.512140" lon="10.770890">
        <ele>166.865990</ele>
        <time>2026-05-05T00:16:18.824Z</time>
      </trkpt>
      <trkpt lat="43.513379" lon="10.770542">
        <ele>159.348062</ele>
        <time>2026-05-05T00:16:45.535Z</time>
      </trkpt>
      <trkpt lat="43.513758" lon="10.770576">
        <ele>158.922108</ele>
        <time>2026-05-05T00:16:54.321Z</time>
      </trkpt>
      <trkpt lat="43.514288" lon="10.770750">
        <ele>158.449055</ele>
        <time>2026-05-05T00:17:08.658Z</time>
      </trkpt>
      <trkpt lat="43.514641" lon="10.770667">
        <ele>158.138127</ele>
        <time>2026-05-05T00:17:19.751Z</time>
      </trkpt>
      <trkpt lat="43.514925" lon="10.770556">
        <ele>157.881820</ele>
        <time>2026-05-05T00:17:29.841Z</time>
      </trkpt>
      <trkpt lat="43.515375" lon="10.770842">
        <ele>157.951006</ele>
        <time>2026-05-05T00:17:48.057Z</time>
      </trkpt>
      <trkpt lat="43.515962" lon="10.771368">
        <ele>158.709878</ele>
        <time>2026-05-05T00:18:13.962Z</time>
      </trkpt>
      <trkpt lat="43.515985" lon="10.771388">
        <ele>158.739354</ele>
        <time>2026-05-05T00:18:14.897Z</time>
      </trkpt>
      <trkpt lat="43.516213" lon="10.771543">
        <ele>159.014914</ele>
        <time>2026-05-05T00:18:23.290Z</time>
      </trkpt>
      <trkpt lat="43.516400" lon="10.771752">
        <ele>159.275847</ele>
        <time>2026-05-05T00:18:30.662Z</time>
      </trkpt>
      <trkpt lat="43.516540" lon="10.772111">
        <ele>159.596278</ele>
        <time>2026-05-05T00:18:39.197Z</time>
      </trkpt>
      <trkpt lat="43.516754" lon="10.772492">
        <ele>158.664855</ele>
        <time>2026-05-05T00:18:48.670Z</time>
      </trkpt>
      <trkpt lat="43.517419" lon="10.773291">
        <ele>156.058363</ele>
        <time>2026-05-05T00:19:10.278Z</time>
      </trkpt>
      <trkpt lat="43.518411" lon="10.773801">
        <ele>151.129679</ele>
        <time>2026-05-05T00:19:33.452Z</time>
      </trkpt>
      <trkpt lat="43.518723" lon="10.773839">
        <ele>148.995368</ele>
        <time>2026-05-05T00:19:39.931Z</time>
      </trkpt>
      <trkpt lat="43.519178" lon="10.773565">
        <ele>145.612175</ele>
        <time>2026-05-05T00:19:50.110Z</time>
      </trkpt>
      <trkpt lat="43.519532" lon="10.773404">
        <ele>143.072144</ele>
        <time>2026-05-05T00:19:57.666Z</time>
      </trkpt>
      <trkpt lat="43.521403" lon="10.772970">
        <ele>129.332962</ele>
        <time>2026-05-05T00:20:36.653Z</time>
      </trkpt>
      <trkpt lat="43.521745" lon="10.772970">
        <ele>127.203122</ele>
        <time>2026-05-05T00:20:43.929Z</time>
      </trkpt>
      <trkpt lat="43.522025" lon="10.773168">
        <ele>125.301582</ele>
        <time>2026-05-05T00:20:50.806Z</time>
      </trkpt>
      <trkpt lat="43.522659" lon="10.773393">
        <ele>121.345439</ele>
        <time>2026-05-05T00:21:05.118Z</time>
      </trkpt>
      <trkpt lat="43.522826" lon="10.773264">
        <ele>120.188721</ele>
        <time>2026-05-05T00:21:09.165Z</time>
      </trkpt>
      <trkpt lat="43.522892" lon="10.772943">
        <ele>118.726695</ele>
        <time>2026-05-05T00:21:14.235Z</time>
      </trkpt>
      <trkpt lat="43.522873" lon="10.772814">
        <ele>118.149893</ele>
        <time>2026-05-05T00:21:16.221Z</time>
      </trkpt>
      <trkpt lat="43.523021" lon="10.772873">
        <ele>117.224155</ele>
        <time>2026-05-05T00:21:19.410Z</time>
      </trkpt>
      <trkpt lat="43.523196" lon="10.773109">
        <ele>115.753947</ele>
        <time>2026-05-05T00:21:24.475Z</time>
      </trkpt>
      <trkpt lat="43.523281" lon="10.773302">
        <ele>114.770439</ele>
        <time>2026-05-05T00:21:27.888Z</time>
      </trkpt>
      <trkpt lat="43.523538" lon="10.773576">
        <ele>112.819221</ele>
        <time>2026-05-05T00:21:34.673Z</time>
      </trkpt>
      <trkpt lat="43.523690" lon="10.773603">
        <ele>111.898660</ele>
        <time>2026-05-05T00:21:37.863Z</time>
      </trkpt>
      <trkpt lat="43.523947" lon="10.773527">
        <ele>110.319847</ele>
        <time>2026-05-05T00:21:43.353Z</time>
      </trkpt>
      <trkpt lat="43.524343" lon="10.773307">
        <ele>107.755454</ele>
        <time>2026-05-05T00:21:52.721Z</time>
      </trkpt>
      <trkpt lat="43.524627" lon="10.773184">
        <ele>106.311863</ele>
        <time>2026-05-05T00:21:59.614Z</time>
      </trkpt>
      <trkpt lat="43.524946" lon="10.773216">
        <ele>104.891845</ele>
        <time>2026-05-05T00:22:07.264Z</time>
      </trkpt>
      <trkpt lat="43.525359" lon="10.773361">
        <ele>102.999755</ele>
        <time>2026-05-05T00:22:17.406Z</time>
      </trkpt>
      <trkpt lat="43.525782" lon="10.773635">
        <ele>100.924929</ele>
        <time>2026-05-05T00:22:27.984Z</time>
      </trkpt>
      <trkpt lat="43.526043" lon="10.773865">
        <ele>99.549818</ele>
        <time>2026-05-05T00:22:34.643Z</time>
      </trkpt>
      <trkpt lat="43.526300" lon="10.773924">
        <ele>97.834012</ele>
        <time>2026-05-05T00:22:40.099Z</time>
      </trkpt>
      <trkpt lat="43.526910" lon="10.773801">
        <ele>93.413886</ele>
        <time>2026-05-05T00:22:52.713Z</time>
      </trkpt>
      <trkpt lat="43.527089" lon="10.773619">
        <ele>91.819425</ele>
        <time>2026-05-05T00:22:57.200Z</time>
      </trkpt>
      <trkpt lat="43.527820" lon="10.772621">
        <ele>84.764760</ele>
        <time>2026-05-05T00:23:18.369Z</time>
      </trkpt>
      <trkpt lat="43.528330" lon="10.772036">
        <ele>80.784784</ele>
        <time>2026-05-05T00:23:32.603Z</time>
      </trkpt>
      <trkpt lat="43.528684" lon="10.771703">
        <ele>78.213803</ele>
        <time>2026-05-05T00:23:41.943Z</time>
      </trkpt>
      <trkpt lat="43.529256" lon="10.771462">
        <ele>74.603327</ele>
        <time>2026-05-05T00:23:54.901Z</time>
      </trkpt>
      <trkpt lat="43.529808" lon="10.771033">
        <ele>70.717556</ele>
        <time>2026-05-05T00:24:08.283Z</time>
      </trkpt>
      <trkpt lat="43.529956" lon="10.771033">
        <ele>69.809891</ele>
        <time>2026-05-05T00:24:11.368Z</time>
      </trkpt>
      <trkpt lat="43.530115" lon="10.771532">
        <ele>67.386306</ele>
        <time>2026-05-05T00:24:19.607Z</time>
      </trkpt>
      <trkpt lat="43.530158" lon="10.771752">
        <ele>66.373173</ele>
        <time>2026-05-05T00:24:23.062Z</time>
      </trkpt>
      <trkpt lat="43.530290" lon="10.771945">
        <ele>65.193434</ele>
        <time>2026-05-05T00:24:27.130Z</time>
      </trkpt>
      <trkpt lat="43.530675" lon="10.772095">
        <ele>63.949084</ele>
        <time>2026-05-05T00:24:35.755Z</time>
      </trkpt>
      <trkpt lat="43.530959" lon="10.772159">
        <ele>63.341803</ele>
        <time>2026-05-05T00:24:42.282Z</time>
      </trkpt>
      <trkpt lat="43.531060" lon="10.772326">
        <ele>63.009064</ele>
        <time>2026-05-05T00:24:46.016Z</time>
      </trkpt>
      <trkpt lat="43.531029" lon="10.772760">
        <ele>62.341832</ele>
        <time>2026-05-05T00:24:53.994Z</time>
      </trkpt>
      <trkpt lat="43.531111" lon="10.773050">
        <ele>61.865583</ele>
        <time>2026-05-05T00:25:00.187Z</time>
      </trkpt>
      <trkpt lat="43.532027" lon="10.774717">
        <ele>61.450476</ele>
        <time>2026-05-05T00:25:51.145Z</time>
      </trkpt>
      <trkpt lat="43.530467" lon="10.776604">
        <ele>62.336651</ele>
        <time>2026-05-05T00:26:28.709Z</time>
      </trkpt>
      <trkpt lat="43.530406" lon="10.776680">
        <ele>62.359969</ele>
        <time>2026-05-05T00:26:30.265Z</time>
      </trkpt>
      <trkpt lat="43.529342" lon="10.778003">
        <ele>63.351671</ele>
        <time>2026-05-05T00:26:58.882Z</time>
      </trkpt>
      <trkpt lat="43.528992" lon="10.778439">
        <ele>63.762046</ele>
        <time>2026-05-05T00:27:08.440Z</time>
      </trkpt>
      <trkpt lat="43.525965" lon="10.781195">
        <ele>70.827143</ele>
        <time>2026-05-05T00:28:30.207Z</time>
      </trkpt>
      <trkpt lat="43.526035" lon="10.781418">
        <ele>71.315901</ele>
        <time>2026-05-05T00:28:36.755Z</time>
      </trkpt>
      <trkpt lat="43.526585" lon="10.783169">
        <ele>80.844597</ele>
        <time>2026-05-05T00:29:37.362Z</time>
      </trkpt>
      <trkpt lat="43.527104" lon="10.784071">
        <ele>87.180662</ele>
        <time>2026-05-05T00:30:12.789Z</time>
      </trkpt>
      <trkpt lat="43.527244" lon="10.784384">
        <ele>89.349588</ele>
        <time>2026-05-05T00:30:23.944Z</time>
      </trkpt>
      <trkpt lat="43.527484" lon="10.784601">
        <ele>91.683839</ele>
        <time>2026-05-05T00:30:36.253Z</time>
      </trkpt>
      <trkpt lat="43.527667" lon="10.784655">
        <ele>93.206049</ele>
        <time>2026-05-05T00:30:44.574Z</time>
      </trkpt>
      <trkpt lat="43.528108" lon="10.784709">
        <ele>96.807255</ele>
        <time>2026-05-05T00:31:04.932Z</time>
      </trkpt>
      <trkpt lat="43.528669" lon="10.784604">
        <ele>101.674892</ele>
        <time>2026-05-05T00:31:32.622Z</time>
      </trkpt>
      <trkpt lat="43.529532" lon="10.784749">
        <ele>109.667577</ele>
        <time>2026-05-05T00:32:13.222Z</time>
      </trkpt>
      <trkpt lat="43.529907" lon="10.784705">
        <ele>113.127610</ele>
        <time>2026-05-05T00:32:30.897Z</time>
      </trkpt>
      <trkpt lat="43.530050" lon="10.784594">
        <ele>114.636179</ele>
        <time>2026-05-05T00:32:39.107Z</time>
      </trkpt>
      <trkpt lat="43.530432" lon="10.784145">
        <ele>119.162391</ele>
        <time>2026-05-05T00:33:05.300Z</time>
      </trkpt>
      <trkpt lat="43.530544" lon="10.784116">
        <ele>120.182291</ele>
        <time>2026-05-05T00:33:11.113Z</time>
      </trkpt>
      <trkpt lat="43.530586" lon="10.784131">
        <ele>120.570584</ele>
        <time>2026-05-05T00:33:13.381Z</time>
      </trkpt>
      <trkpt lat="43.530666" lon="10.784333">
        <ele>122.064121</ele>
        <time>2026-05-05T00:33:21.868Z</time>
      </trkpt>
      <trkpt lat="43.530831" lon="10.784927">
        <ele>126.191641</ele>
        <time>2026-05-05T00:33:44.501Z</time>
      </trkpt>
      <trkpt lat="43.530873" lon="10.785159">
        <ele>127.743246</ele>
        <time>2026-05-05T00:33:52.905Z</time>
      </trkpt>
      <trkpt lat="43.530852" lon="10.785318">
        <ele>128.791932</ele>
        <time>2026-05-05T00:33:58.609Z</time>
      </trkpt>
      <trkpt lat="43.530617" lon="10.785985">
        <ele>132.929647</ele>
        <time>2026-05-05T00:34:21.843Z</time>
      </trkpt>
      <trkpt lat="43.530596" lon="10.786110">
        <ele>133.405634</ele>
        <time>2026-05-05T00:34:25.210Z</time>
      </trkpt>
      <trkpt lat="43.531415" lon="10.787375">
        <ele>139.697002</ele>
        <time>2026-05-05T00:35:03.170Z</time>
      </trkpt>
      <trkpt lat="43.531790" lon="10.788061">
        <ele>143.335124</ele>
        <time>2026-05-05T00:35:25.707Z</time>
      </trkpt>
      <trkpt lat="43.531937" lon="10.788196">
        <ele>144.485553</ele>
        <time>2026-05-05T00:35:32.660Z</time>
      </trkpt>
      <trkpt lat="43.532756" lon="10.788645">
        <ele>150.226682</ele>
        <time>2026-05-05T00:36:09.351Z</time>
      </trkpt>
      <trkpt lat="43.534843" lon="10.789874">
        <ele>165.009580</ele>
        <time>2026-05-05T00:37:39.950Z</time>
      </trkpt>
      <trkpt lat="43.535931" lon="10.790800">
        <ele>171.031697</ele>
        <time>2026-05-05T00:38:27.002Z</time>
      </trkpt>
      <trkpt lat="43.536047" lon="10.790852">
        <ele>171.606250</ele>
        <time>2026-05-05T00:38:30.524Z</time>
      </trkpt>
      <trkpt lat="43.536206" lon="10.790862">
        <ele>172.356005</ele>
        <time>2026-05-05T00:38:34.853Z</time>
      </trkpt>
      <trkpt lat="43.536540" lon="10.790778">
        <ele>173.322459</ele>
        <time>2026-05-05T00:38:43.020Z</time>
      </trkpt>
      <trkpt lat="43.537019" lon="10.790825">
        <ele>173.598984</ele>
        <time>2026-05-05T00:38:52.798Z</time>
      </trkpt>
      <trkpt lat="43.537627" lon="10.790608">
        <ele>173.960623</ele>
        <time>2026-05-05T00:39:03.798Z</time>
      </trkpt>
      <trkpt lat="43.538034" lon="10.790636">
        <ele>174.195281</ele>
        <time>2026-05-05T00:39:11.348Z</time>
      </trkpt>
      <trkpt lat="43.538325" lon="10.790768">
        <ele>174.218782</ele>
        <time>2026-05-05T00:39:17.928Z</time>
      </trkpt>
      <trkpt lat="43.538468" lon="10.790843">
        <ele>174.174328</ele>
        <time>2026-05-05T00:39:21.307Z</time>
      </trkpt>
      <trkpt lat="43.538999" lon="10.791633">
        <ele>173.947395</ele>
        <time>2026-05-05T00:39:36.288Z</time>
      </trkpt>
      <trkpt lat="43.539047" lon="10.791684">
        <ele>173.929790</ele>
        <time>2026-05-05T00:39:37.285Z</time>
      </trkpt>
      <trkpt lat="43.539196" lon="10.792073">
        <ele>173.837116</ele>
        <time>2026-05-05T00:39:42.131Z</time>
      </trkpt>
      <trkpt lat="43.539588" lon="10.793039">
        <ele>172.697374</ele>
        <time>2026-05-05T00:39:53.514Z</time>
      </trkpt>
      <trkpt lat="43.539569" lon="10.793400">
        <ele>172.139459</ele>
        <time>2026-05-05T00:39:57.288Z</time>
      </trkpt>
      <trkpt lat="43.539533" lon="10.793550">
        <ele>171.895904</ele>
        <time>2026-05-05T00:39:58.969Z</time>
      </trkpt>
      <trkpt lat="43.539449" lon="10.793687">
        <ele>171.619320</ele>
        <time>2026-05-05T00:40:00.930Z</time>
      </trkpt>
      <trkpt lat="43.539062" lon="10.794115">
        <ele>170.564604</ele>
        <time>2026-05-05T00:40:08.179Z</time>
      </trkpt>
      <trkpt lat="43.539013" lon="10.794246">
        <ele>170.337380</ele>
        <time>2026-05-05T00:40:09.573Z</time>
      </trkpt>
      <trkpt lat="43.538908" lon="10.794965">
        <ele>168.064488</ele>
        <time>2026-05-05T00:40:16.324Z</time>
      </trkpt>
      <trkpt lat="43.538819" lon="10.795147">
        <ele>167.186161</ele>
        <time>2026-05-05T00:40:18.287Z</time>
      </trkpt>
      <trkpt lat="43.538681" lon="10.795324">
        <ele>166.146196</ele>
        <time>2026-05-05T00:40:20.530Z</time>
      </trkpt>
      <trkpt lat="43.538389" lon="10.795492">
        <ele>164.400097</ele>
        <time>2026-05-05T00:40:24.212Z</time>
      </trkpt>
      <trkpt lat="43.538217" lon="10.795726">
        <ele>163.066845</ele>
        <time>2026-05-05T00:40:26.976Z</time>
      </trkpt>
      <trkpt lat="43.538088" lon="10.796174">
        <ele>161.138257</ele>
        <time>2026-05-05T00:40:30.907Z</time>
      </trkpt>
      <trkpt lat="43.538091" lon="10.796322">
        <ele>160.545904</ele>
        <time>2026-05-05T00:40:32.119Z</time>
      </trkpt>
      <trkpt lat="43.538123" lon="10.796459">
        <ele>159.991619</ele>
        <time>2026-05-05T00:40:33.313Z</time>
      </trkpt>
      <trkpt lat="43.538299" lon="10.797045">
        <ele>159.557149</ele>
        <time>2026-05-05T00:40:38.845Z</time>
      </trkpt>
      <trkpt lat="43.538349" lon="10.797294">
        <ele>159.380173</ele>
        <time>2026-05-05T00:40:41.205Z</time>
      </trkpt>
      <trkpt lat="43.538505" lon="10.798449">
        <ele>158.575437</ele>
        <time>2026-05-05T00:40:56.395Z</time>
      </trkpt>
      <trkpt lat="43.538518" lon="10.798812">
        <ele>158.326496</ele>
        <time>2026-05-05T00:41:04.864Z</time>
      </trkpt>
      <trkpt lat="43.538453" lon="10.799194">
        <ele>159.045952</ele>
        <time>2026-05-05T00:41:15.130Z</time>
      </trkpt>
      <trkpt lat="43.538051" lon="10.800249">
        <ele>161.607300</ele>
        <time>2026-05-05T00:41:46.733Z</time>
      </trkpt>
      <trkpt lat="43.537739" lon="10.800785">
        <ele>163.084569</ele>
        <time>2026-05-05T00:41:59.705Z</time>
      </trkpt>
      <trkpt lat="43.537179" lon="10.801285">
        <ele>161.014177</ele>
        <time>2026-05-05T00:42:08.257Z</time>
      </trkpt>
      <trkpt lat="43.536894" lon="10.801756">
        <ele>158.609301</ele>
        <time>2026-05-05T00:42:13.291Z</time>
      </trkpt>
      <trkpt lat="43.536806" lon="10.802026">
        <ele>157.448897</ele>
        <time>2026-05-05T00:42:15.660Z</time>
      </trkpt>
      <trkpt lat="43.536754" lon="10.802322">
        <ele>156.255041</ele>
        <time>2026-05-05T00:42:18.112Z</time>
      </trkpt>
      <trkpt lat="43.536712" lon="10.803606">
        <ele>153.827740</ele>
        <time>2026-05-05T00:42:29.138Z</time>
      </trkpt>
      <trkpt lat="43.536525" lon="10.804446">
        <ele>153.731131</ele>
        <time>2026-05-05T00:42:42.522Z</time>
      </trkpt>
      <trkpt lat="43.536245" lon="10.805207">
        <ele>153.637303</ele>
        <time>2026-05-05T00:43:00.955Z</time>
      </trkpt>
      <trkpt lat="43.536077" lon="10.805665">
        <ele>154.200148</ele>
        <time>2026-05-05T00:43:12.051Z</time>
      </trkpt>
      <trkpt lat="43.536020" lon="10.806221">
        <ele>154.911869</ele>
        <time>2026-05-05T00:43:22.852Z</time>
      </trkpt>
      <trkpt lat="43.536142" lon="10.807645">
        <ele>156.729293</ele>
        <time>2026-05-05T00:43:42.349Z</time>
      </trkpt>
      <trkpt lat="43.536100" lon="10.808201">
        <ele>158.069951</ele>
        <time>2026-05-05T00:43:51.254Z</time>
      </trkpt>
      <trkpt lat="43.535983" lon="10.808803">
        <ele>159.613280</ele>
        <time>2026-05-05T00:44:03.937Z</time>
      </trkpt>
      <trkpt lat="43.536030" lon="10.809265">
        <ele>160.768506</ele>
        <time>2026-05-05T00:44:14.973Z</time>
      </trkpt>
      <trkpt lat="43.536137" lon="10.809667">
        <ele>161.828924</ele>
        <time>2026-05-05T00:44:25.651Z</time>
      </trkpt>
      <trkpt lat="43.536455" lon="10.810223">
        <ele>163.517599</ele>
        <time>2026-05-05T00:44:42.897Z</time>
      </trkpt>
      <trkpt lat="43.536443" lon="10.811171">
        <ele>165.635540</ele>
        <time>2026-05-05T00:45:03.306Z</time>
      </trkpt>
      <trkpt lat="43.536501" lon="10.811507">
        <ele>166.407073</ele>
        <time>2026-05-05T00:45:10.286Z</time>
      </trkpt>
      <trkpt lat="43.536624" lon="10.811808">
        <ele>167.178901</ele>
        <time>2026-05-05T00:45:17.039Z</time>
      </trkpt>
      <trkpt lat="43.536756" lon="10.812058">
        <ele>167.869764</ele>
        <time>2026-05-05T00:45:23.138Z</time>
      </trkpt>
      <trkpt lat="43.537044" lon="10.812488">
        <ele>167.971438</ele>
        <time>2026-05-05T00:45:32.547Z</time>
      </trkpt>
      <trkpt lat="43.537486" lon="10.812941">
        <ele>166.812300</ele>
        <time>2026-05-05T00:45:40.729Z</time>
      </trkpt>
      <trkpt lat="43.537548" lon="10.813141">
        <ele>166.480361</ele>
        <time>2026-05-05T00:45:42.789Z</time>
      </trkpt>
      <trkpt lat="43.537548" lon="10.813370">
        <ele>166.130904</ele>
        <time>2026-05-05T00:45:44.886Z</time>
      </trkpt>
      <trkpt lat="43.537174" lon="10.814192">
        <ele>164.665557</ele>
        <time>2026-05-05T00:45:53.634Z</time>
      </trkpt>
      <trkpt lat="43.537140" lon="10.814343">
        <ele>164.576697</ele>
        <time>2026-05-05T00:45:55.039Z</time>
      </trkpt>
      <trkpt lat="43.537191" lon="10.814693">
        <ele>164.376065</ele>
        <time>2026-05-05T00:45:58.254Z</time>
      </trkpt>
      <trkpt lat="43.537268" lon="10.814967">
        <ele>164.210914</ele>
        <time>2026-05-05T00:46:01.029Z</time>
      </trkpt>
      <trkpt lat="43.537482" lon="10.815668">
        <ele>163.783452</ele>
        <time>2026-05-05T00:46:09.820Z</time>
      </trkpt>
      <trkpt lat="43.537795" lon="10.816452">
        <ele>163.280454</ele>
        <time>2026-05-05T00:46:25.881Z</time>
      </trkpt>
      <trkpt lat="43.538463" lon="10.818007">
        <ele>165.698224</ele>
        <time>2026-05-05T00:46:58.704Z</time>
      </trkpt>
      <trkpt lat="43.538764" lon="10.819374">
        <ele>166.229916</ele>
        <time>2026-05-05T00:47:20.669Z</time>
      </trkpt>
      <trkpt lat="43.539001" lon="10.820275">
        <ele>165.760087</ele>
        <time>2026-05-05T00:47:31.778Z</time>
      </trkpt>
      <trkpt lat="43.539065" lon="10.821354">
        <ele>164.704904</ele>
        <time>2026-05-05T00:47:42.610Z</time>
      </trkpt>
      <trkpt lat="43.539077" lon="10.821500">
        <ele>164.387922</ele>
        <time>2026-05-05T00:47:44.029Z</time>
      </trkpt>
      <trkpt lat="43.540002" lon="10.828069">
        <ele>149.986197</ele>
        <time>2026-05-05T00:48:47.661Z</time>
      </trkpt>
      <trkpt lat="43.540113" lon="10.827941">
        <ele>149.558778</ele>
        <time>2026-05-05T00:48:51.295Z</time>
      </trkpt>
      <trkpt lat="43.540486" lon="10.827254">
        <ele>147.056151</ele>
        <time>2026-05-05T00:49:06.682Z</time>
      </trkpt>
      <trkpt lat="43.540789" lon="10.826230">
        <ele>143.730111</ele>
        <time>2026-05-05T00:49:25.171Z</time>
      </trkpt>
      <trkpt lat="43.540955" lon="10.825533">
        <ele>141.224339</ele>
        <time>2026-05-05T00:49:36.501Z</time>
      </trkpt>
      <trkpt lat="43.541808" lon="10.822743">
        <ele>124.307088</ele>
        <time>2026-05-05T00:50:21.299Z</time>
      </trkpt>
      <trkpt lat="43.541815" lon="10.821850">
        <ele>118.685904</ele>
        <time>2026-05-05T00:50:34.328Z</time>
      </trkpt>
      <trkpt lat="43.541981" lon="10.821425">
        <ele>115.647172</ele>
        <time>2026-05-05T00:50:41.285Z</time>
      </trkpt>
      <trkpt lat="43.542195" lon="10.820989">
        <ele>112.231957</ele>
        <time>2026-05-05T00:50:48.806Z</time>
      </trkpt>
      <trkpt lat="43.542534" lon="10.819758">
        <ele>102.525146</ele>
        <time>2026-05-05T00:51:07.427Z</time>
      </trkpt>
      <trkpt lat="43.542656" lon="10.817827">
        <ele>90.329913</ele>
        <time>2026-05-05T00:51:34.834Z</time>
      </trkpt>
      <trkpt lat="43.542713" lon="10.817520">
        <ele>88.758309</ele>
        <time>2026-05-05T00:51:39.475Z</time>
      </trkpt>
      <trkpt lat="43.542784" lon="10.817357">
        <ele>87.815250</ele>
        <time>2026-05-05T00:51:42.306Z</time>
      </trkpt>
      <trkpt lat="43.542888" lon="10.817248">
        <ele>86.921694</ele>
        <time>2026-05-05T00:51:45.040Z</time>
      </trkpt>
      <trkpt lat="43.543256" lon="10.817075">
        <ele>84.261863</ele>
        <time>2026-05-05T00:51:53.582Z</time>
      </trkpt>
      <trkpt lat="43.543354" lon="10.817029">
        <ele>83.553652</ele>
        <time>2026-05-05T00:51:55.968Z</time>
      </trkpt>
      <trkpt lat="43.543766" lon="10.816849">
        <ele>82.649136</ele>
        <time>2026-05-05T00:52:06.837Z</time>
      </trkpt>
      <trkpt lat="43.543932" lon="10.816740">
        <ele>82.883538</ele>
        <time>2026-05-05T00:52:12.181Z</time>
      </trkpt>
      <trkpt lat="43.544169" lon="10.816730">
        <ele>83.185857</ele>
        <time>2026-05-05T00:52:19.983Z</time>
      </trkpt>
      <trkpt lat="43.544327" lon="10.816947">
        <ele>83.470115</ele>
        <time>2026-05-05T00:52:28.019Z</time>
      </trkpt>
      <trkpt lat="43.544437" lon="10.817220">
        <ele>83.758779</ele>
        <time>2026-05-05T00:52:36.824Z</time>
      </trkpt>
      <trkpt lat="43.544610" lon="10.818814">
        <ele>86.723711</ele>
        <time>2026-05-05T00:53:23.652Z</time>
      </trkpt>
      <trkpt lat="43.544635" lon="10.819083">
        <ele>87.562915</ele>
        <time>2026-05-05T00:53:31.773Z</time>
      </trkpt>
      <trkpt lat="43.544722" lon="10.819540">
        <ele>89.025007</ele>
        <time>2026-05-05T00:53:46.232Z</time>
      </trkpt>
      <trkpt lat="43.544919" lon="10.819856">
        <ele>90.314747</ele>
        <time>2026-05-05T00:53:59.469Z</time>
      </trkpt>
      <trkpt lat="43.545385" lon="10.820510">
        <ele>93.806172</ele>
        <time>2026-05-05T00:54:30.272Z</time>
      </trkpt>
      <trkpt lat="43.545622" lon="10.821719">
        <ele>100.648020</ele>
        <time>2026-05-05T00:55:18.056Z</time>
      </trkpt>
      <trkpt lat="43.545890" lon="10.822493">
        <ele>105.333915</ele>
        <time>2026-05-05T00:55:54.226Z</time>
      </trkpt>
      <trkpt lat="43.546056" lon="10.822787">
        <ele>107.839467</ele>
        <time>2026-05-05T00:56:10.451Z</time>
      </trkpt>
      <trkpt lat="43.546183" lon="10.822831">
        <ele>109.132268</ele>
        <time>2026-05-05T00:56:18.374Z</time>
      </trkpt>
      <trkpt lat="43.546348" lon="10.822678">
        <ele>111.095062</ele>
        <time>2026-05-05T00:56:30.629Z</time>
      </trkpt>
      <trkpt lat="43.546791" lon="10.820684">
        <ele>125.791201</ele>
        <time>2026-05-05T00:58:04.714Z</time>
      </trkpt>
      <trkpt lat="43.546862" lon="10.820467">
        <ele>127.333313</ele>
        <time>2026-05-05T00:58:15.468Z</time>
      </trkpt>
      <trkpt lat="43.546918" lon="10.820371">
        <ele>128.131484</ele>
        <time>2026-05-05T00:58:20.998Z</time>
      </trkpt>
      <trkpt lat="43.547133" lon="10.820365">
        <ele>130.053186</ele>
        <time>2026-05-05T00:58:34.258Z</time>
      </trkpt>
      <trkpt lat="43.547762" lon="10.821251">
        <ele>138.086098</ele>
        <time>2026-05-05T00:59:27.925Z</time>
      </trkpt>
      <trkpt lat="43.548401" lon="10.822101">
        <ele>141.019008</ele>
        <time>2026-05-05T01:00:10.541Z</time>
      </trkpt>
      <trkpt lat="43.548729" lon="10.822379">
        <ele>141.743283</ele>
        <time>2026-05-05T01:00:24.197Z</time>
      </trkpt>
      <trkpt lat="43.550423" lon="10.822809">
        <ele>139.297303</ele>
        <time>2026-05-05T01:01:05.907Z</time>
      </trkpt>
      <trkpt lat="43.551094" lon="10.822940">
        <ele>136.784276</ele>
        <time>2026-05-05T01:01:21.002Z</time>
      </trkpt>
      <trkpt lat="43.551299" lon="10.822929">
        <ele>135.684046</ele>
        <time>2026-05-05T01:01:25.481Z</time>
      </trkpt>
      <trkpt lat="43.551497" lon="10.822809">
        <ele>134.159145</ele>
        <time>2026-05-05T01:01:30.141Z</time>
      </trkpt>
      <trkpt lat="43.554409" lon="10.817586">
        <ele>100.142686</ele>
        <time>2026-05-05T01:03:08.618Z</time>
      </trkpt>
      <trkpt lat="43.555428" lon="10.815758">
        <ele>88.642784</ele>
        <time>2026-05-05T01:03:43.221Z</time>
      </trkpt>
      <trkpt lat="43.555529" lon="10.815646">
        <ele>87.762645</ele>
        <time>2026-05-05T01:03:45.942Z</time>
      </trkpt>
      <trkpt lat="43.556835" lon="10.815182">
        <ele>81.033531</ele>
        <time>2026-05-05T01:04:15.014Z</time>
      </trkpt>
      <trkpt lat="43.557036" lon="10.815173">
        <ele>80.133822</ele>
        <time>2026-05-05T01:04:19.472Z</time>
      </trkpt>
      <trkpt lat="43.557906" lon="10.815348">
        <ele>77.807219</ele>
        <time>2026-05-05T01:04:40.740Z</time>
      </trkpt>
      <trkpt lat="43.557987" lon="10.815364">
        <ele>77.839306</ele>
        <time>2026-05-05T01:04:42.945Z</time>
      </trkpt>
      <trkpt lat="43.559383" lon="10.815695">
        <ele>78.429881</ele>
        <time>2026-05-05T01:05:31.410Z</time>
      </trkpt>
      <trkpt lat="43.559590" lon="10.815780">
        <ele>78.768768</ele>
        <time>2026-05-05T01:05:39.545Z</time>
      </trkpt>
      <trkpt lat="43.560699" lon="10.816855">
        <ele>80.895356</ele>
        <time>2026-05-05T01:06:27.402Z</time>
      </trkpt>
      <trkpt lat="43.560871" lon="10.817067">
        <ele>81.204874</ele>
        <time>2026-05-05T01:06:35.077Z</time>
      </trkpt>
      <trkpt lat="43.561008" lon="10.817305">
        <ele>81.201527</ele>
        <time>2026-05-05T01:06:42.320Z</time>
      </trkpt>
      <trkpt lat="43.561907" lon="10.818879">
        <ele>81.179460</ele>
        <time>2026-05-05T01:07:25.426Z</time>
      </trkpt>
      <trkpt lat="43.562119" lon="10.819170">
        <ele>81.016077</ele>
        <time>2026-05-05T01:07:33.066Z</time>
      </trkpt>
      <trkpt lat="43.562252" lon="10.819248">
        <ele>80.902426</ele>
        <time>2026-05-05T01:07:36.706Z</time>
      </trkpt>
      <trkpt lat="43.562394" lon="10.819240">
        <ele>80.790658</ele>
        <time>2026-05-05T01:07:40.233Z</time>
      </trkpt>
      <trkpt lat="43.562762" lon="10.819036">
        <ele>80.478769</ele>
        <time>2026-05-05T01:07:50.116Z</time>
      </trkpt>
      <trkpt lat="43.563069" lon="10.818800">
        <ele>80.202399</ele>
        <time>2026-05-05T01:07:59.089Z</time>
      </trkpt>
      <trkpt lat="43.563196" lon="10.818710">
        <ele>80.090121</ele>
        <time>2026-05-05T01:08:02.953Z</time>
      </trkpt>
      <trkpt lat="43.563359" lon="10.818611">
        <ele>79.950065</ele>
        <time>2026-05-05T01:08:07.988Z</time>
      </trkpt>
      <trkpt lat="43.563563" lon="10.818534">
        <ele>79.783737</ele>
        <time>2026-05-05T01:08:14.414Z</time>
      </trkpt>
      <trkpt lat="43.563696" lon="10.818551">
        <ele>80.304459</ele>
        <time>2026-05-05T01:08:18.804Z</time>
      </trkpt>
      <trkpt lat="43.563845" lon="10.818652">
        <ele>81.137107</ele>
        <time>2026-05-05T01:08:24.718Z</time>
      </trkpt>
      <trkpt lat="43.564347" lon="10.819727">
        <ele>85.785276</ele>
        <time>2026-05-05T01:08:56.717Z</time>
      </trkpt>
      <trkpt lat="43.565085" lon="10.820700">
        <ele>92.243131</ele>
        <time>2026-05-05T01:09:41.324Z</time>
      </trkpt>
      <trkpt lat="43.565344" lon="10.821006">
        <ele>95.033221</ele>
        <time>2026-05-05T01:09:56.782Z</time>
      </trkpt>
      <trkpt lat="43.565579" lon="10.821163">
        <ele>97.169807</ele>
        <time>2026-05-05T01:10:08.544Z</time>
      </trkpt>
      <trkpt lat="43.565893" lon="10.821288">
        <ele>99.844167</ele>
        <time>2026-05-05T01:10:23.095Z</time>
      </trkpt>
      <trkpt lat="43.567102" lon="10.821649">
        <ele>109.870670</ele>
        <time>2026-05-05T01:11:20.179Z</time>
      </trkpt>
      <trkpt lat="43.568004" lon="10.821885">
        <ele>117.271790</ele>
        <time>2026-05-05T01:12:01.222Z</time>
      </trkpt>
      <trkpt lat="43.568152" lon="10.821959">
        <ele>118.413123</ele>
        <time>2026-05-05T01:12:07.683Z</time>
      </trkpt>
      <trkpt lat="43.568252" lon="10.822141">
        <ele>119.429782</ele>
        <time>2026-05-05T01:12:14.287Z</time>
      </trkpt>
      <trkpt lat="43.568318" lon="10.822387">
        <ele>120.597374</ele>
        <time>2026-05-05T01:12:21.535Z</time>
      </trkpt>
      <trkpt lat="43.568437" lon="10.824075">
        <ele>128.146074</ele>
        <time>2026-05-05T01:13:07.294Z</time>
      </trkpt>
      <trkpt lat="43.568518" lon="10.824525">
        <ele>130.000117</ele>
        <time>2026-05-05T01:13:19.626Z</time>
      </trkpt>
      <trkpt lat="43.568566" lon="10.824981">
        <ele>131.679021</ele>
        <time>2026-05-05T01:13:31.602Z</time>
      </trkpt>
      <trkpt lat="43.568646" lon="10.825162">
        <ele>132.451524</ele>
        <time>2026-05-05T01:13:36.990Z</time>
      </trkpt>
      <trkpt lat="43.568791" lon="10.824918">
        <ele>133.601327</ele>
        <time>2026-05-05T01:13:44.734Z</time>
      </trkpt>
      <trkpt lat="43.568762" lon="10.824738">
        <ele>134.273182</ele>
        <time>2026-05-05T01:13:49.257Z</time>
      </trkpt>
      <trkpt lat="43.568961" lon="10.823709">
        <ele>138.188772</ele>
        <time>2026-05-05T01:14:13.624Z</time>
      </trkpt>
      <trkpt lat="43.569026" lon="10.823229">
        <ele>141.098522</ele>
        <time>2026-05-05T01:14:24.360Z</time>
      </trkpt>
      <trkpt lat="43.569105" lon="10.822112">
        <ele>147.786128</ele>
        <time>2026-05-05T01:14:59.843Z</time>
      </trkpt>
      <trkpt lat="43.569088" lon="10.821869">
        <ele>149.240847</ele>
        <time>2026-05-05T01:15:09.209Z</time>
      </trkpt>
      <trkpt lat="43.568884" lon="10.820663">
        <ele>156.540915</ele>
        <time>2026-05-05T01:15:58.606Z</time>
      </trkpt>
      <trkpt lat="43.568891" lon="10.820485">
        <ele>157.580504</ele>
        <time>2026-05-05T01:16:05.526Z</time>
      </trkpt>
      <trkpt lat="43.569023" lon="10.820059">
        <ele>160.282503</ele>
        <time>2026-05-05T01:16:22.451Z</time>
      </trkpt>
      <trkpt lat="43.569471" lon="10.819116">
        <ele>166.858641</ele>
        <time>2026-05-05T01:16:52.747Z</time>
      </trkpt>
      <trkpt lat="43.569507" lon="10.818798">
        <ele>167.727278</ele>
        <time>2026-05-05T01:16:59.325Z</time>
      </trkpt>
      <trkpt lat="43.569478" lon="10.818530">
        <ele>168.142529</ele>
        <time>2026-05-05T01:17:04.330Z</time>
      </trkpt>
      <trkpt lat="43.569431" lon="10.818364">
        <ele>168.415649</ele>
        <time>2026-05-05T01:17:07.583Z</time>
      </trkpt>
      <trkpt lat="43.568921" lon="10.817122">
        <ele>170.603374</ele>
        <time>2026-05-05T01:17:31.577Z</time>
      </trkpt>
      <trkpt lat="43.568273" lon="10.815734">
        <ele>171.486466</ele>
        <time>2026-05-05T01:17:55.176Z</time>
      </trkpt>
      <trkpt lat="43.568189" lon="10.815388">
        <ele>171.576081</ele>
        <time>2026-05-05T01:17:59.294Z</time>
      </trkpt>
      <trkpt lat="43.568014" lon="10.813851">
        <ele>171.875807</ele>
        <time>2026-05-05T01:18:20.069Z</time>
      </trkpt>
      <trkpt lat="43.568009" lon="10.813665">
        <ele>171.900177</ele>
        <time>2026-05-05T01:18:23.009Z</time>
      </trkpt>
      <trkpt lat="43.568024" lon="10.813498">
        <ele>171.922209</ele>
        <time>2026-05-05T01:18:25.624Z</time>
      </trkpt>
      <trkpt lat="43.568073" lon="10.813304">
        <ele>171.949109</ele>
        <time>2026-05-05T01:18:28.829Z</time>
      </trkpt>
      <trkpt lat="43.568231" lon="10.812910">
        <ele>172.008069</ele>
        <time>2026-05-05T01:18:35.750Z</time>
      </trkpt>
      <trkpt lat="43.568225" lon="10.812686">
        <ele>172.037417</ele>
        <time>2026-05-05T01:18:39.153Z</time>
      </trkpt>
      <trkpt lat="43.567779" lon="10.810979">
        <ele>169.955668</ele>
        <time>2026-05-05T01:18:58.654Z</time>
      </trkpt>
      <trkpt lat="43.567743" lon="10.810704">
        <ele>169.487833</ele>
        <time>2026-05-05T01:19:01.283Z</time>
      </trkpt>
      <trkpt lat="43.567788" lon="10.810541">
        <ele>169.195816</ele>
        <time>2026-05-05T01:19:02.936Z</time>
      </trkpt>
      <trkpt lat="43.567991" lon="10.810128">
        <ele>168.360329</ele>
        <time>2026-05-05T01:19:07.600Z</time>
      </trkpt>
      <trkpt lat="43.568072" lon="10.810016">
        <ele>168.095410</ele>
        <time>2026-05-05T01:19:09.053Z</time>
      </trkpt>
      <trkpt lat="43.568196" lon="10.809933">
        <ele>167.874549</ele>
        <time>2026-05-05T01:19:10.788Z</time>
      </trkpt>
      <trkpt lat="43.568457" lon="10.809877">
        <ele>167.606500</ele>
        <time>2026-05-05T01:19:14.072Z</time>
      </trkpt>
      <trkpt lat="43.568558" lon="10.809791">
        <ele>167.486067</ele>
        <time>2026-05-05T01:19:15.563Z</time>
      </trkpt>
      <trkpt lat="43.568664" lon="10.809656">
        <ele>167.339695</ele>
        <time>2026-05-05T01:19:17.402Z</time>
      </trkpt>
      <trkpt lat="43.569074" lon="10.808998">
        <ele>166.701575</ele>
        <time>2026-05-05T01:19:26.472Z</time>
      </trkpt>
      <trkpt lat="43.569356" lon="10.808709">
        <ele>166.345131</ele>
        <time>2026-05-05T01:19:33.749Z</time>
      </trkpt>
      <trkpt lat="43.569503" lon="10.808641">
        <ele>166.187796</ele>
        <time>2026-05-05T01:19:37.633Z</time>
      </trkpt>
      <trkpt lat="43.569613" lon="10.808633">
        <ele>166.341005</ele>
        <time>2026-05-05T01:19:40.545Z</time>
      </trkpt>
      <trkpt lat="43.570054" lon="10.808845">
        <ele>168.396295</ele>
        <time>2026-05-05T01:19:55.229Z</time>
      </trkpt>
      <trkpt lat="43.570173" lon="10.808867">
        <ele>168.924714</ele>
        <time>2026-05-05T01:19:59.614Z</time>
      </trkpt>
      <trkpt lat="43.570307" lon="10.808843">
        <ele>169.519420</ele>
        <time>2026-05-05T01:20:04.691Z</time>
      </trkpt>
      <trkpt lat="43.570425" lon="10.808761">
        <ele>170.100872</ele>
        <time>2026-05-05T01:20:09.815Z</time>
      </trkpt>
      <trkpt lat="43.570530" lon="10.808635">
        <ele>170.713239</ele>
        <time>2026-05-05T01:20:15.197Z</time>
      </trkpt>
      <trkpt lat="43.571082" lon="10.807730">
        <ele>174.583337</ele>
        <time>2026-05-05T01:20:43.429Z</time>
      </trkpt>
      <trkpt lat="43.571145" lon="10.807545">
        <ele>175.378827</ele>
        <time>2026-05-05T01:20:47.320Z</time>
      </trkpt>
      <trkpt lat="43.571175" lon="10.807380">
        <ele>176.040838</ele>
        <time>2026-05-05T01:20:50.388Z</time>
      </trkpt>
      <trkpt lat="43.571176" lon="10.807215">
        <ele>176.682960</ele>
        <time>2026-05-05T01:20:53.392Z</time>
      </trkpt>
      <trkpt lat="43.571044" lon="10.806407">
        <ele>179.906252</ele>
        <time>2026-05-05T01:21:11.454Z</time>
      </trkpt>
      <trkpt lat="43.570981" lon="10.805871">
        <ele>182.019380</ele>
        <time>2026-05-05T01:21:26.254Z</time>
      </trkpt>
      <trkpt lat="43.570989" lon="10.805643">
        <ele>182.907688</ele>
        <time>2026-05-05T01:21:33.360Z</time>
      </trkpt>
      <trkpt lat="43.571084" lon="10.804794">
        <ele>187.210107</ele>
        <time>2026-05-05T01:22:03.485Z</time>
      </trkpt>
      <trkpt lat="43.571086" lon="10.804343">
        <ele>189.626006</ele>
        <time>2026-05-05T01:22:19.642Z</time>
      </trkpt>
      <trkpt lat="43.571056" lon="10.804130">
        <ele>190.788334</ele>
        <time>2026-05-05T01:22:27.159Z</time>
      </trkpt>
      <trkpt lat="43.571002" lon="10.803918">
        <ele>191.992083</ele>
        <time>2026-05-05T01:22:34.585Z</time>
      </trkpt>
      <trkpt lat="43.570917" lon="10.803760">
        <ele>193.046241</ele>
        <time>2026-05-05T01:22:40.748Z</time>
      </trkpt>
      <trkpt lat="43.570820" lon="10.803662">
        <ele>193.935001</ele>
        <time>2026-05-05T01:22:45.741Z</time>
      </trkpt>
      <trkpt lat="43.570123" lon="10.803218">
        <ele>196.388562</ele>
        <time>2026-05-05T01:23:10.051Z</time>
      </trkpt>
      <trkpt lat="43.570007" lon="10.803017">
        <ele>196.065668</ele>
        <time>2026-05-05T01:23:13.418Z</time>
      </trkpt>
      <trkpt lat="43.569829" lon="10.802583">
        <ele>195.439018</ele>
        <time>2026-05-05T01:23:18.456Z</time>
      </trkpt>
      <trkpt lat="43.569713" lon="10.802341">
        <ele>195.074410</ele>
        <time>2026-05-05T01:23:21.239Z</time>
      </trkpt>
      <trkpt lat="43.569622" lon="10.802137">
        <ele>194.773387</ele>
        <time>2026-05-05T01:23:23.492Z</time>
      </trkpt>
      <trkpt lat="43.569522" lon="10.801934">
        <ele>194.464935</ele>
        <time>2026-05-05T01:23:25.763Z</time>
      </trkpt>
      <trkpt lat="43.569485" lon="10.801888">
        <ele>194.378573</ele>
        <time>2026-05-05T01:23:26.394Z</time>
      </trkpt>
      <trkpt lat="43.569415" lon="10.801825">
        <ele>194.233643</ele>
        <time>2026-05-05T01:23:27.436Z</time>
      </trkpt>
      <trkpt lat="43.569313" lon="10.801792">
        <ele>194.051952</ele>
        <time>2026-05-05T01:23:28.737Z</time>
      </trkpt>
      <trkpt lat="43.568902" lon="10.801925">
        <ele>192.359110</ele>
        <time>2026-05-05T01:23:33.889Z</time>
      </trkpt>
      <trkpt lat="43.568300" lon="10.801922">
        <ele>189.528951</ele>
        <time>2026-05-05T01:23:41.304Z</time>
      </trkpt>
      <trkpt lat="43.567880" lon="10.801901">
        <ele>187.553139</ele>
        <time>2026-05-05T01:23:46.737Z</time>
      </trkpt>
      <trkpt lat="43.567594" lon="10.801855">
        <ele>186.199487</ele>
        <time>2026-05-05T01:23:50.671Z</time>
      </trkpt>
      <trkpt lat="43.567331" lon="10.801778">
        <ele>185.234115</ele>
        <time>2026-05-05T01:23:54.433Z</time>
      </trkpt>
      <trkpt lat="43.566944" lon="10.801600">
        <ele>184.484831</ele>
        <time>2026-05-05T01:24:00.246Z</time>
      </trkpt>
      <trkpt lat="43.565896" lon="10.800914">
        <ele>182.354304</ele>
        <time>2026-05-05T01:24:17.438Z</time>
      </trkpt>
      <trkpt lat="43.565828" lon="10.800860">
        <ele>182.210200</ele>
        <time>2026-05-05T01:24:18.804Z</time>
      </trkpt>
      <trkpt lat="43.565668" lon="10.800631">
        <ele>182.330304</ele>
        <time>2026-05-05T01:24:23.003Z</time>
      </trkpt>
      <trkpt lat="43.565560" lon="10.800494">
        <ele>182.498016</ele>
        <time>2026-05-05T01:24:26.142Z</time>
      </trkpt>
      <trkpt lat="43.565399" lon="10.800412">
        <ele>182.694223</ele>
        <time>2026-05-05T01:24:30.089Z</time>
      </trkpt>
      <trkpt lat="43.565131" lon="10.800430">
        <ele>183.000991</ele>
        <time>2026-05-05T01:24:36.959Z</time>
      </trkpt>
      <trkpt lat="43.564920" lon="10.800397">
        <ele>183.243773</ele>
        <time>2026-05-05T01:24:43.060Z</time>
      </trkpt>
      <trkpt lat="43.564261" lon="10.800061">
        <ele>184.046985</ele>
        <time>2026-05-05T01:25:02.924Z</time>
      </trkpt>
      <trkpt lat="43.563928" lon="10.799816">
        <ele>182.902700</ele>
        <time>2026-05-05T01:25:10.994Z</time>
      </trkpt>
      <trkpt lat="43.563881" lon="10.799766">
        <ele>182.614466</ele>
        <time>2026-05-05T01:25:12.067Z</time>
      </trkpt>
      <trkpt lat="43.563836" lon="10.799661">
        <ele>182.185125</ele>
        <time>2026-05-05T01:25:13.553Z</time>
      </trkpt>
      <trkpt lat="43.563787" lon="10.799449">
        <ele>181.401961</ele>
        <time>2026-05-05T01:25:16.069Z</time>
      </trkpt>
      <trkpt lat="43.563693" lon="10.799206">
        <ele>180.432494</ele>
        <time>2026-05-05T01:25:18.933Z</time>
      </trkpt>
      <trkpt lat="43.563586" lon="10.799068">
        <ele>179.721167</ele>
        <time>2026-05-05T01:25:20.931Z</time>
      </trkpt>
      <trkpt lat="43.563286" lon="10.798799">
        <ele>177.983494</ele>
        <time>2026-05-05T01:25:25.542Z</time>
      </trkpt>
      <trkpt lat="43.562252" lon="10.797828">
        <ele>170.008584</ele>
        <time>2026-05-05T01:25:41.035Z</time>
      </trkpt>
      <trkpt lat="43.562151" lon="10.797758">
        <ele>169.164392</ele>
        <time>2026-05-05T01:25:42.480Z</time>
      </trkpt>
      <trkpt lat="43.561405" lon="10.797508">
        <ele>163.430361</ele>
        <time>2026-05-05T01:25:52.534Z</time>
      </trkpt>
      <trkpt lat="43.561001" lon="10.797453">
        <ele>160.633321</ele>
        <time>2026-05-05T01:25:58.035Z</time>
      </trkpt>
      <trkpt lat="43.560605" lon="10.797458">
        <ele>158.107646</ele>
        <time>2026-05-05T01:26:03.340Z</time>
      </trkpt>
      <trkpt lat="43.560403" lon="10.797397">
        <ele>156.788866</ele>
        <time>2026-05-05T01:26:06.058Z</time>
      </trkpt>
      <trkpt lat="43.560213" lon="10.797231">
        <ele>155.354662</ele>
        <time>2026-05-05T01:26:08.974Z</time>
      </trkpt>
      <trkpt lat="43.559509" lon="10.796039">
        <ele>148.904336</ele>
        <time>2026-05-05T01:26:23.384Z</time>
      </trkpt>
      <trkpt lat="43.559359" lon="10.795851">
        <ele>147.982772</ele>
        <time>2026-05-05T01:26:26.079Z</time>
      </trkpt>
      <trkpt lat="43.558848" lon="10.795372">
        <ele>145.173302</ele>
        <time>2026-05-05T01:26:34.635Z</time>
      </trkpt>
      <trkpt lat="43.558718" lon="10.795215">
        <ele>144.387623</ele>
        <time>2026-05-05T01:26:37.179Z</time>
      </trkpt>
      <trkpt lat="43.558361" lon="10.794529">
        <ele>142.152799</ele>
        <time>2026-05-05T01:26:46.556Z</time>
      </trkpt>
      <trkpt lat="43.558222" lon="10.794175">
        <ele>141.793952</ele>
        <time>2026-05-05T01:26:51.340Z</time>
      </trkpt>
      <trkpt lat="43.558168" lon="10.793676">
        <ele>141.344277</ele>
        <time>2026-05-05T01:26:57.617Z</time>
      </trkpt>
      <trkpt lat="43.557829" lon="10.792345">
        <ele>140.210847</ele>
        <time>2026-05-05T01:27:15.273Z</time>
      </trkpt>
      <trkpt lat="43.557822" lon="10.792234">
        <ele>140.326884</ele>
        <time>2026-05-05T01:27:16.810Z</time>
      </trkpt>
      <trkpt lat="43.557849" lon="10.792069">
        <ele>140.503048</ele>
        <time>2026-05-05T01:27:19.253Z</time>
      </trkpt>
      <trkpt lat="43.558000" lon="10.791745">
        <ele>140.904229</ele>
        <time>2026-05-05T01:27:25.357Z</time>
      </trkpt>
      <trkpt lat="43.558035" lon="10.791617">
        <ele>141.046707</ele>
        <time>2026-05-05T01:27:27.713Z</time>
      </trkpt>
      <trkpt lat="43.558075" lon="10.791387">
        <ele>141.293038</ele>
        <time>2026-05-05T01:27:31.999Z</time>
      </trkpt>
      <trkpt lat="43.558059" lon="10.791061">
        <ele>141.633324</ele>
        <time>2026-05-05T01:27:38.386Z</time>
      </trkpt>
      <trkpt lat="43.557946" lon="10.790764">
        <ele>141.982670</ele>
        <time>2026-05-05T01:27:45.227Z</time>
      </trkpt>
      <trkpt lat="43.557471" lon="10.789834">
        <ele>143.465384</ele>
        <time>2026-05-05T01:28:08.036Z</time>
      </trkpt>
      <trkpt lat="43.557402" lon="10.789620">
        <ele>143.874891</ele>
        <time>2026-05-05T01:28:12.341Z</time>
      </trkpt>
      <trkpt lat="43.557361" lon="10.789184">
        <ele>144.643562</ele>
        <time>2026-05-05T01:28:20.367Z</time>
      </trkpt>
      <trkpt lat="43.557320" lon="10.788985">
        <ele>145.005271</ele>
        <time>2026-05-05T01:28:24.233Z</time>
      </trkpt>
      <trkpt lat="43.557006" lon="10.788224">
        <ele>146.536316</ele>
        <time>2026-05-05T01:28:41.612Z</time>
      </trkpt>
      <trkpt lat="43.556781" lon="10.787514">
        <ele>147.838627</ele>
        <time>2026-05-05T01:28:59.174Z</time>
      </trkpt>
      <trkpt lat="43.556696" lon="10.787313">
        <ele>148.219537</ele>
        <time>2026-05-05T01:29:04.263Z</time>
      </trkpt>
      <trkpt lat="43.556295" lon="10.786632">
        <ele>149.655754</ele>
        <time>2026-05-05T01:29:21.667Z</time>
      </trkpt>
      <trkpt lat="43.556104" lon="10.786350">
        <ele>150.287535</ele>
        <time>2026-05-05T01:29:28.311Z</time>
      </trkpt>
      <trkpt lat="43.555908" lon="10.786126">
        <ele>150.862334</ele>
        <time>2026-05-05T01:29:34.116Z</time>
      </trkpt>
      <trkpt lat="43.555694" lon="10.785944">
        <ele>151.812707</ele>
        <time>2026-05-05T01:29:40.081Z</time>
      </trkpt>
      <trkpt lat="43.555647" lon="10.785859">
        <ele>152.211269</ele>
        <time>2026-05-05T01:29:41.937Z</time>
      </trkpt>
      <trkpt lat="43.555630" lon="10.785650">
        <ele>152.995272</ele>
        <time>2026-05-05T01:29:45.708Z</time>
      </trkpt>
      <trkpt lat="43.555735" lon="10.785192">
        <ele>154.786000</ele>
        <time>2026-05-05T01:29:55.235Z</time>
      </trkpt>
      <trkpt lat="43.555736" lon="10.785087">
        <ele>155.177453</ele>
        <time>2026-05-05T01:29:57.668Z</time>
      </trkpt>
      <trkpt lat="43.555720" lon="10.784968">
        <ele>155.628631</ele>
        <time>2026-05-05T01:30:00.644Z</time>
      </trkpt>
      <trkpt lat="43.555475" lon="10.784236">
        <ele>158.634350</ele>
        <time>2026-05-05T01:30:25.695Z</time>
      </trkpt>
      <trkpt lat="43.555451" lon="10.784079">
        <ele>159.232496</ele>
        <time>2026-05-05T01:30:31.288Z</time>
      </trkpt>
      <trkpt lat="43.555529" lon="10.782981">
        <ele>163.610113</ele>
        <time>2026-05-05T01:31:10.812Z</time>
      </trkpt>
      <trkpt lat="43.555655" lon="10.782064">
        <ele>167.400463</ele>
        <time>2026-05-05T01:31:36.530Z</time>
      </trkpt>
      <trkpt lat="43.555788" lon="10.781657">
        <ele>169.213581</ele>
        <time>2026-05-05T01:31:45.372Z</time>
      </trkpt>
      <trkpt lat="43.555840" lon="10.781327">
        <ele>170.508652</ele>
        <time>2026-05-05T01:31:50.664Z</time>
      </trkpt>
      <trkpt lat="43.555796" lon="10.780962">
        <ele>171.080083</ele>
        <time>2026-05-05T01:31:56.022Z</time>
      </trkpt>
      <trkpt lat="43.555431" lon="10.779865">
        <ele>172.944261</ele>
        <time>2026-05-05T01:32:17.005Z</time>
      </trkpt>
      <trkpt lat="43.555411" lon="10.779709">
        <ele>173.188922</ele>
        <time>2026-05-05T01:32:20.407Z</time>
      </trkpt>
      <trkpt lat="43.555403" lon="10.779203">
        <ele>173.970553</ele>
        <time>2026-05-05T01:32:31.576Z</time>
      </trkpt>
      <trkpt lat="43.555409" lon="10.778662">
        <ele>173.552070</ele>
        <time>2026-05-05T01:32:42.428Z</time>
      </trkpt>
      <trkpt lat="43.555330" lon="10.778000">
        <ele>172.047625</ele>
        <time>2026-05-05T01:32:53.235Z</time>
      </trkpt>
      <trkpt lat="43.554951" lon="10.777612">
        <ele>170.587423</ele>
        <time>2026-05-05T01:32:59.868Z</time>
      </trkpt>
      <trkpt lat="43.554909" lon="10.777523">
        <ele>170.349268</ele>
        <time>2026-05-05T01:33:00.797Z</time>
      </trkpt>
      <trkpt lat="43.554885" lon="10.777316">
        <ele>169.879190</ele>
        <time>2026-05-05T01:33:02.584Z</time>
      </trkpt>
      <trkpt lat="43.554892" lon="10.777153">
        <ele>169.513038</ele>
        <time>2026-05-05T01:33:03.949Z</time>
      </trkpt>
      <trkpt lat="43.554958" lon="10.776767">
        <ele>168.412515</ele>
        <time>2026-05-05T01:33:07.216Z</time>
      </trkpt>
      <trkpt lat="43.554954" lon="10.776627">
        <ele>167.470365</ele>
        <time>2026-05-05T01:33:08.360Z</time>
      </trkpt>
      <trkpt lat="43.554890" lon="10.776385">
        <ele>165.738087</ele>
        <time>2026-05-05T01:33:10.463Z</time>
      </trkpt>
      <trkpt lat="43.554685" lon="10.776009">
        <ele>162.574087</ele>
        <time>2026-05-05T01:33:14.317Z</time>
      </trkpt>
      <trkpt lat="43.554460" lon="10.775652">
        <ele>159.392641</ele>
        <time>2026-05-05T01:33:18.230Z</time>
      </trkpt>
      <trkpt lat="43.554165" lon="10.775347">
        <ele>155.972277</ele>
        <time>2026-05-05T01:33:22.453Z</time>
      </trkpt>
      <trkpt lat="43.554117" lon="10.775253">
        <ele>155.199025</ele>
        <time>2026-05-05T01:33:23.402Z</time>
      </trkpt>
      <trkpt lat="43.554076" lon="10.775108">
        <ele>154.152384</ele>
        <time>2026-05-05T01:33:24.705Z</time>
      </trkpt>
      <trkpt lat="43.554076" lon="10.774959">
        <ele>153.150430</ele>
        <time>2026-05-05T01:33:25.976Z</time>
      </trkpt>
      <trkpt lat="43.554125" lon="10.774509">
        <ele>150.847056</ele>
        <time>2026-05-05T01:33:29.939Z</time>
      </trkpt>
      <trkpt lat="43.554177" lon="10.774137">
        <ele>149.288036</ele>
        <time>2026-05-05T01:33:33.278Z</time>
      </trkpt>
      <trkpt lat="43.554177" lon="10.773746">
        <ele>147.679046</ele>
        <time>2026-05-05T01:33:36.744Z</time>
      </trkpt>
      <trkpt lat="43.554105" lon="10.771519">
        <ele>140.470202</ele>
        <time>2026-05-05T01:33:57.453Z</time>
      </trkpt>
      <trkpt lat="43.554130" lon="10.771254">
        <ele>140.020899</ele>
        <time>2026-05-05T01:34:00.254Z</time>
      </trkpt>
      <trkpt lat="43.554644" lon="10.769775">
        <ele>137.975574</ele>
        <time>2026-05-05T01:34:18.780Z</time>
      </trkpt>
      <trkpt lat="43.554924" lon="10.769357">
        <ele>138.760098</ele>
        <time>2026-05-05T01:34:28.082Z</time>
      </trkpt>
      <trkpt lat="43.556065" lon="10.767925">
        <ele>141.355456</ele>
        <time>2026-05-05T01:35:10.877Z</time>
      </trkpt>
      <trkpt lat="43.556053" lon="10.767857">
        <ele>141.399177</ele>
        <time>2026-05-05T01:35:12.384Z</time>
      </trkpt>
      <trkpt lat="43.555861" lon="10.767476">
        <ele>141.689073</ele>
        <time>2026-05-05T01:35:22.397Z</time>
      </trkpt>
      <trkpt lat="43.555750" lon="10.767166">
        <ele>141.905078</ele>
        <time>2026-05-05T01:35:28.882Z</time>
      </trkpt>
      <trkpt lat="43.555675" lon="10.766792">
        <ele>142.147494</ele>
        <time>2026-05-05T01:35:34.642Z</time>
      </trkpt>
      <trkpt lat="43.555700" lon="10.766718">
        <ele>142.198498</ele>
        <time>2026-05-05T01:35:35.772Z</time>
      </trkpt>
      <trkpt lat="43.555778" lon="10.766637">
        <ele>142.282648</ele>
        <time>2026-05-05T01:35:37.310Z</time>
      </trkpt>
      <trkpt lat="43.556001" lon="10.766580">
        <ele>142.478145</ele>
        <time>2026-05-05T01:35:40.743Z</time>
      </trkpt>
      <trkpt lat="43.556248" lon="10.766479">
        <ele>142.069724</ele>
        <time>2026-05-05T01:35:44.436Z</time>
      </trkpt>
      <trkpt lat="43.556315" lon="10.766420">
        <ele>141.558064</ele>
        <time>2026-05-05T01:35:45.546Z</time>
      </trkpt>
      <trkpt lat="43.556836" lon="10.765826">
        <ele>137.207391</ele>
        <time>2026-05-05T01:35:54.243Z</time>
      </trkpt>
      <trkpt lat="43.556926" lon="10.765637">
        <ele>136.152344</ele>
        <time>2026-05-05T01:35:56.165Z</time>
      </trkpt>
      <trkpt lat="43.557214" lon="10.764691">
        <ele>131.365436</ele>
        <time>2026-05-05T01:36:04.708Z</time>
      </trkpt>
      <trkpt lat="43.557276" lon="10.764560">
        <ele>130.626403</ele>
        <time>2026-05-05T01:36:06.025Z</time>
      </trkpt>
      <trkpt lat="43.557352" lon="10.764461">
        <ele>129.938701</ele>
        <time>2026-05-05T01:36:07.220Z</time>
      </trkpt>
      <trkpt lat="43.557629" lon="10.764307">
        <ele>127.973672</ele>
        <time>2026-05-05T01:36:10.691Z</time>
      </trkpt>
      <trkpt lat="43.557675" lon="10.764209">
        <ele>127.416906</ele>
        <time>2026-05-05T01:36:11.701Z</time>
      </trkpt>
      <trkpt lat="43.557687" lon="10.764097">
        <ele>126.877040</ele>
        <time>2026-05-05T01:36:12.656Z</time>
      </trkpt>
      <trkpt lat="43.557576" lon="10.763554">
        <ele>124.186754</ele>
        <time>2026-05-05T01:36:17.582Z</time>
      </trkpt>
      <trkpt lat="43.557569" lon="10.763416">
        <ele>123.527104</ele>
        <time>2026-05-05T01:36:18.829Z</time>
      </trkpt>
      <trkpt lat="43.557621" lon="10.762563">
        <ele>119.445286</ele>
        <time>2026-05-05T01:36:26.796Z</time>
      </trkpt>
      <trkpt lat="43.557474" lon="10.761725">
        <ele>116.348745</ele>
        <time>2026-05-05T01:36:35.025Z</time>
      </trkpt>
      <trkpt lat="43.557274" lon="10.760764">
        <ele>112.828701</ele>
        <time>2026-05-05T01:36:44.407Z</time>
      </trkpt>
      <trkpt lat="43.557067" lon="10.759744">
        <ele>108.609887</ele>
        <time>2026-05-05T01:36:53.869Z</time>
      </trkpt>
      <trkpt lat="43.557053" lon="10.759593">
        <ele>107.882993</ele>
        <time>2026-05-05T01:36:55.203Z</time>
      </trkpt>
      <trkpt lat="43.557137" lon="10.759368">
        <ele>106.674445</ele>
        <time>2026-05-05T01:36:57.407Z</time>
      </trkpt>
      <trkpt lat="43.557535" lon="10.758834">
        <ele>103.016773</ele>
        <time>2026-05-05T01:37:04.056Z</time>
      </trkpt>
      <trkpt lat="43.557710" lon="10.758479">
        <ele>100.966675</ele>
        <time>2026-05-05T01:37:07.781Z</time>
      </trkpt>
      <trkpt lat="43.557780" lon="10.758247">
        <ele>99.766717</ele>
        <time>2026-05-05T01:37:09.975Z</time>
      </trkpt>
      <trkpt lat="43.557948" lon="10.757265">
        <ele>95.119117</ele>
        <time>2026-05-05T01:37:18.922Z</time>
      </trkpt>
      <trkpt lat="43.557962" lon="10.757034">
        <ele>94.063556</ele>
        <time>2026-05-05T01:37:21.012Z</time>
      </trkpt>
      <trkpt lat="43.557972" lon="10.756882">
        <ele>93.368558</ele>
        <time>2026-05-05T01:37:22.397Z</time>
      </trkpt>
      <trkpt lat="43.557906" lon="10.756510">
        <ele>91.624580</ele>
        <time>2026-05-05T01:37:25.885Z</time>
      </trkpt>
      <trkpt lat="43.557795" lon="10.756209">
        <ele>90.086674</ele>
        <time>2026-05-05T01:37:28.926Z</time>
      </trkpt>
      <trkpt lat="43.557781" lon="10.756028">
        <ele>89.257783</ele>
        <time>2026-05-05T01:37:30.540Z</time>
      </trkpt>
      <trkpt lat="43.557804" lon="10.755937">
        <ele>88.818922</ele>
        <time>2026-05-05T01:37:31.387Z</time>
      </trkpt>
      <trkpt lat="43.558147" lon="10.755187">
        <ele>83.748768</ele>
        <time>2026-05-05T01:37:39.041Z</time>
      </trkpt>
      <trkpt lat="43.558443" lon="10.753754">
        <ele>74.207610</ele>
        <time>2026-05-05T01:37:51.434Z</time>
      </trkpt>
      <trkpt lat="43.558552" lon="10.752803">
        <ele>68.277133</ele>
        <time>2026-05-05T01:37:59.418Z</time>
      </trkpt>
      <trkpt lat="43.558627" lon="10.752525">
        <ele>66.509328</ele>
        <time>2026-05-05T01:38:01.904Z</time>
      </trkpt>
      <trkpt lat="43.558670" lon="10.752434">
        <ele>65.861916</ele>
        <time>2026-05-05T01:38:02.823Z</time>
      </trkpt>
      <trkpt lat="43.558751" lon="10.752357">
        <ele>65.053042</ele>
        <time>2026-05-05T01:38:03.969Z</time>
      </trkpt>
      <trkpt lat="43.559117" lon="10.752161">
        <ele>61.824490</ele>
        <time>2026-05-05T01:38:08.546Z</time>
      </trkpt>
      <trkpt lat="43.559190" lon="10.752029">
        <ele>60.834950</ele>
        <time>2026-05-05T01:38:09.957Z</time>
      </trkpt>
      <trkpt lat="43.559201" lon="10.751924">
        <ele>60.202711</ele>
        <time>2026-05-05T01:38:10.865Z</time>
      </trkpt>
      <trkpt lat="43.559135" lon="10.751078">
        <ele>55.962696</ele>
        <time>2026-05-05T01:38:18.278Z</time>
      </trkpt>
      <trkpt lat="43.559111" lon="10.750986">
        <ele>55.701719</ele>
        <time>2026-05-05T01:38:19.138Z</time>
      </trkpt>
      <trkpt lat="43.558839" lon="10.750442">
        <ele>53.937689</ele>
        <time>2026-05-05T01:38:25.169Z</time>
      </trkpt>
      <trkpt lat="43.558027" lon="10.748906">
        <ele>49.781439</ele>
        <time>2026-05-05T01:38:59.651Z</time>
      </trkpt>
      <trkpt lat="43.557419" lon="10.747756">
        <ele>49.019141</ele>
        <time>2026-05-05T01:39:28.661Z</time>
      </trkpt>
      <trkpt lat="43.556075" lon="10.745128">
        <ele>49.378929</ele>
        <time>2026-05-05T01:40:37.192Z</time>
      </trkpt>
      <trkpt lat="43.556053" lon="10.745102">
        <ele>49.496481</ele>
        <time>2026-05-05T01:40:38.139Z</time>
      </trkpt>
      <trkpt lat="43.556053" lon="10.745102">
        <ele>49.496481</ele>
        <time>2026-05-05T01:40:38.176Z</time>
      </trkpt>
      <trkpt lat="43.556053" lon="10.745102">
        <ele>49.496481</ele>
        <time>2026-05-05T01:40:38.176Z</time>
      </trkpt>
      <trkpt lat="43.555450" lon="10.745172">
        <ele>51.952248</ele>
        <time>2026-05-05T01:40:53.828Z</time>
      </trkpt>
      <trkpt lat="43.554848" lon="10.745242">
        <ele>54.403972</ele>
        <time>2026-05-05T01:41:09.464Z</time>
      </trkpt>
      <trkpt lat="43.554245" lon="10.745312">
        <ele>57.363372</ele>
        <time>2026-05-05T01:41:25.136Z</time>
      </trkpt>
      <trkpt lat="43.554206" lon="10.745318">
        <ele>57.684724</ele>
        <time>2026-05-05T01:41:27.233Z</time>
      </trkpt>
      <trkpt lat="43.553900" lon="10.745273">
        <ele>60.204771</ele>
        <time>2026-05-05T01:41:43.852Z</time>
      </trkpt>
      <trkpt lat="43.552201" lon="10.745558">
        <ele>73.438862</ele>
        <time>2026-05-05T01:43:24.171Z</time>
      </trkpt>
      <trkpt lat="43.551833" lon="10.745514">
        <ele>75.707508</ele>
        <time>2026-05-05T01:43:42.541Z</time>
      </trkpt>
      <trkpt lat="43.551662" lon="10.745537">
        <ele>76.762731</ele>
        <time>2026-05-05T01:43:50.515Z</time>
      </trkpt>
      <trkpt lat="43.551219" lon="10.745659">
        <ele>79.537207</ele>
        <time>2026-05-05T01:44:10.808Z</time>
      </trkpt>
      <trkpt lat="43.551228" lon="10.745518">
        <ele>80.167271</ele>
        <time>2026-05-05T01:44:15.307Z</time>
      </trkpt>
      <trkpt lat="43.551196" lon="10.745432">
        <ele>80.597588</ele>
        <time>2026-05-05T01:44:18.318Z</time>
      </trkpt>
      <trkpt lat="43.550948" lon="10.745439">
        <ele>82.121069</ele>
        <time>2026-05-05T01:44:29.115Z</time>
      </trkpt>
      <trkpt lat="43.550872" lon="10.745365">
        <ele>82.795809</ele>
        <time>2026-05-05T01:44:33.156Z</time>
      </trkpt>
      <trkpt lat="43.550089" lon="10.745589">
        <ele>88.628578</ele>
        <time>2026-05-05T01:45:11.589Z</time>
      </trkpt>
      <trkpt lat="43.550046" lon="10.745656">
        <ele>89.101688</ele>
        <time>2026-05-05T01:45:15.003Z</time>
      </trkpt>
      <trkpt lat="43.550035" lon="10.745834">
        <ele>90.046113</ele>
        <time>2026-05-05T01:45:22.037Z</time>
      </trkpt>
      <trkpt lat="43.550003" lon="10.745889">
        <ele>90.418972</ele>
        <time>2026-05-05T01:45:24.854Z</time>
      </trkpt>
      <trkpt lat="43.547425" lon="10.747814">
        <ele>116.739156</ele>
        <time>2026-05-05T01:48:23.421Z</time>
      </trkpt>
      <trkpt lat="43.546409" lon="10.748572">
        <ele>126.903248</ele>
        <time>2026-05-05T01:49:30.428Z</time>
      </trkpt>
      <trkpt lat="43.546356" lon="10.748595">
        <ele>127.392166</ele>
        <time>2026-05-05T01:49:33.482Z</time>
      </trkpt>
      <trkpt lat="43.546295" lon="10.748580">
        <ele>127.937415</ele>
        <time>2026-05-05T01:49:36.916Z</time>
      </trkpt>
      <trkpt lat="43.545966" lon="10.748171">
        <ele>130.071488</ele>
        <time>2026-05-05T01:50:00.751Z</time>
      </trkpt>
      <trkpt lat="43.545839" lon="10.748190">
        <ele>130.611698</ele>
        <time>2026-05-05T01:50:07.431Z</time>
      </trkpt>
      <trkpt lat="43.545605" lon="10.747947">
        <ele>131.850239</ele>
        <time>2026-05-05T01:50:21.701Z</time>
      </trkpt>
      <trkpt lat="43.545135" lon="10.747603">
        <ele>134.100167</ele>
        <time>2026-05-05T01:50:44.186Z</time>
      </trkpt>
      <trkpt lat="43.544952" lon="10.747415">
        <ele>135.065028</ele>
        <time>2026-05-05T01:50:53.193Z</time>
      </trkpt>
      <trkpt lat="43.543779" lon="10.745672">
        <ele>133.652002</ele>
        <time>2026-05-05T01:51:37.990Z</time>
      </trkpt>
      <trkpt lat="43.543695" lon="10.745273">
        <ele>133.168596</ele>
        <time>2026-05-05T01:51:45.019Z</time>
      </trkpt>
      <trkpt lat="43.543835" lon="10.744579">
        <ele>131.371631</ele>
        <time>2026-05-05T01:51:57.209Z</time>
      </trkpt>
      <trkpt lat="43.543851" lon="10.744257">
        <ele>130.561855</ele>
        <time>2026-05-05T01:52:02.536Z</time>
      </trkpt>
      <trkpt lat="43.543946" lon="10.743692">
        <ele>129.106662</ele>
        <time>2026-05-05T01:52:12.243Z</time>
      </trkpt>
      <trkpt lat="43.543946" lon="10.743182">
        <ele>127.827101</ele>
        <time>2026-05-05T01:52:20.946Z</time>
      </trkpt>
      <trkpt lat="43.543960" lon="10.742806">
        <ele>126.896482</ele>
        <time>2026-05-05T01:52:27.323Z</time>
      </trkpt>
      <trkpt lat="43.544136" lon="10.742236">
        <ele>125.765310</ele>
        <time>2026-05-05T01:52:37.696Z</time>
      </trkpt>
      <trkpt lat="43.544251" lon="10.741698">
        <ele>124.741232</ele>
        <time>2026-05-05T01:52:47.082Z</time>
      </trkpt>
      <trkpt lat="43.544620" lon="10.740678">
        <ele>122.659909</ele>
        <time>2026-05-05T01:53:07.917Z</time>
      </trkpt>
      <trkpt lat="43.544731" lon="10.740421">
        <ele>122.091756</ele>
        <time>2026-05-05T01:53:13.964Z</time>
      </trkpt>
      <trkpt lat="43.545043" lon="10.739840">
        <ele>120.671558</ele>
        <time>2026-05-05T01:53:29.181Z</time>
      </trkpt>
      <trkpt lat="43.545086" lon="10.739719">
        <ele>120.406876</ele>
        <time>2026-05-05T01:53:31.957Z</time>
      </trkpt>
      <trkpt lat="43.545209" lon="10.739378">
        <ele>119.658772</ele>
        <time>2026-05-05T01:53:39.257Z</time>
      </trkpt>
      <trkpt lat="43.545286" lon="10.739254">
        <ele>119.338071</ele>
        <time>2026-05-05T01:53:42.184Z</time>
      </trkpt>
      <trkpt lat="43.545711" lon="10.738845">
        <ele>117.933948</ele>
        <time>2026-05-05T01:53:54.097Z</time>
      </trkpt>
      <trkpt lat="43.545773" lon="10.738665">
        <ele>117.542527</ele>
        <time>2026-05-05T01:53:57.202Z</time>
      </trkpt>
      <trkpt lat="43.545905" lon="10.737961">
        <ele>112.612523</ele>
        <time>2026-05-05T01:54:07.979Z</time>
      </trkpt>
      <trkpt lat="43.546457" lon="10.736518">
        <ele>101.478630</ele>
        <time>2026-05-05T01:54:30.896Z</time>
      </trkpt>
      <trkpt lat="43.546437" lon="10.736251">
        <ele>99.582585</ele>
        <time>2026-05-05T01:54:34.644Z</time>
      </trkpt>
      <trkpt lat="43.546287" lon="10.735543">
        <ele>94.207752</ele>
        <time>2026-05-05T01:54:44.996Z</time>
      </trkpt>
      <trkpt lat="43.546047" lon="10.734863">
        <ele>88.696594</ele>
        <time>2026-05-05T01:54:55.708Z</time>
      </trkpt>
      <trkpt lat="43.545956" lon="10.734358">
        <ele>84.904792</ele>
        <time>2026-05-05T01:55:03.154Z</time>
      </trkpt>
      <trkpt lat="43.545947" lon="10.734136">
        <ele>83.284613</ele>
        <time>2026-05-05T01:55:06.358Z</time>
      </trkpt>
      <trkpt lat="43.545959" lon="10.733909">
        <ele>81.785211</ele>
        <time>2026-05-05T01:55:09.655Z</time>
      </trkpt>
      <trkpt lat="43.546014" lon="10.733578">
        <ele>79.753882</ele>
        <time>2026-05-05T01:55:14.574Z</time>
      </trkpt>
      <trkpt lat="43.546341" lon="10.732411">
        <ele>72.269700</ele>
        <time>2026-05-05T01:55:32.837Z</time>
      </trkpt>
      <trkpt lat="43.546394" lon="10.731954">
        <ele>69.501275</ele>
        <time>2026-05-05T01:55:39.721Z</time>
      </trkpt>
      <trkpt lat="43.546630" lon="10.731015">
        <ele>64.493848</ele>
        <time>2026-05-05T01:55:54.597Z</time>
      </trkpt>
      <trkpt lat="43.546853" lon="10.730584">
        <ele>62.048041</ele>
        <time>2026-05-05T01:56:02.581Z</time>
      </trkpt>
      <trkpt lat="43.547250" lon="10.729940">
        <ele>58.143307</ele>
        <time>2026-05-05T01:56:15.492Z</time>
      </trkpt>
      <trkpt lat="43.547659" lon="10.729140">
        <ele>55.719118</ele>
        <time>2026-05-05T01:56:31.095Z</time>
      </trkpt>
      <trkpt lat="43.547941" lon="10.728602">
        <ele>55.138260</ele>
        <time>2026-05-05T01:56:42.859Z</time>
      </trkpt>
      <trkpt lat="43.548069" lon="10.728343">
        <ele>54.864010</ele>
        <time>2026-05-05T01:56:49.088Z</time>
      </trkpt>
      <trkpt lat="43.548123" lon="10.728153">
        <ele>54.685465</ele>
        <time>2026-05-05T01:56:53.512Z</time>
      </trkpt>
      <trkpt lat="43.548146" lon="10.727947">
        <ele>54.503119</ele>
        <time>2026-05-05T01:56:58.352Z</time>
      </trkpt>
      <trkpt lat="43.548123" lon="10.727748">
        <ele>54.326823</ele>
        <time>2026-05-05T01:57:03.365Z</time>
      </trkpt>
      <trkpt lat="43.547834" lon="10.726633">
        <ele>58.094883</ele>
        <time>2026-05-05T01:57:38.391Z</time>
      </trkpt>
      <trkpt lat="43.547674" lon="10.726266">
        <ele>60.128639</ele>
        <time>2026-05-05T01:57:53.770Z</time>
      </trkpt>
      <trkpt lat="43.547626" lon="10.726215">
        <ele>60.525569</ele>
        <time>2026-05-05T01:57:56.900Z</time>
      </trkpt>
      <trkpt lat="43.547503" lon="10.726191">
        <ele>61.339453</ele>
        <time>2026-05-05T01:58:03.604Z</time>
      </trkpt>
      <trkpt lat="43.547190" lon="10.726269">
        <ele>63.423334</ele>
        <time>2026-05-05T01:58:21.805Z</time>
      </trkpt>
      <trkpt lat="43.547120" lon="10.726253">
        <ele>63.888208</ele>
        <time>2026-05-05T01:58:26.088Z</time>
      </trkpt>
      <trkpt lat="43.546235" lon="10.725552">
        <ele>73.179397</ele>
        <time>2026-05-05T01:59:31.230Z</time>
      </trkpt>
      <trkpt lat="43.546176" lon="10.725552">
        <ele>73.777890</ele>
        <time>2026-05-05T01:59:35.173Z</time>
      </trkpt>
      <trkpt lat="43.546104" lon="10.725608">
        <ele>74.616318</ele>
        <time>2026-05-05T01:59:40.772Z</time>
      </trkpt>
      <trkpt lat="43.545874" lon="10.725995">
        <ele>78.295976</ele>
        <time>2026-05-05T02:00:04.601Z</time>
      </trkpt>
      <trkpt lat="43.545591" lon="10.726205">
        <ele>81.555605</ele>
        <time>2026-05-05T02:00:24.761Z</time>
      </trkpt>
      <trkpt lat="43.545483" lon="10.726194">
        <ele>82.654132</ele>
        <time>2026-05-05T02:00:31.377Z</time>
      </trkpt>
      <trkpt lat="43.544122" lon="10.724977">
        <ele>96.684452</ele>
        <time>2026-05-05T02:02:01.076Z</time>
      </trkpt>
      <trkpt lat="43.543721" lon="10.724587">
        <ele>101.014699</ele>
        <time>2026-05-05T02:02:29.964Z</time>
      </trkpt>
      <trkpt lat="43.543684" lon="10.724489">
        <ele>101.767401</ele>
        <time>2026-05-05T02:02:34.762Z</time>
      </trkpt>
      <trkpt lat="43.543689" lon="10.724345">
        <ele>102.749448</ele>
        <time>2026-05-05T02:02:41.133Z</time>
      </trkpt>
      <trkpt lat="43.543782" lon="10.724029">
        <ele>105.072691</ele>
        <time>2026-05-05T02:02:56.519Z</time>
      </trkpt>
      <trkpt lat="43.544010" lon="10.723564">
        <ele>108.896892</ele>
        <time>2026-05-05T02:03:22.258Z</time>
      </trkpt>
      <trkpt lat="43.544057" lon="10.723394">
        <ele>110.136295</ele>
        <time>2026-05-05T02:03:30.820Z</time>
      </trkpt>
      <trkpt lat="43.544047" lon="10.723117">
        <ele>112.025537</ele>
        <time>2026-05-05T02:03:43.954Z</time>
      </trkpt>
      <trkpt lat="43.544088" lon="10.722878">
        <ele>113.698560</ele>
        <time>2026-05-05T02:03:53.820Z</time>
      </trkpt>
      <trkpt lat="43.544272" lon="10.722417">
        <ele>116.671395</ele>
        <time>2026-05-05T02:04:11.246Z</time>
      </trkpt>
      <trkpt lat="43.544364" lon="10.722250">
        <ele>117.230376</ele>
        <time>2026-05-05T02:04:16.875Z</time>
      </trkpt>
      <trkpt lat="43.544497" lon="10.721996">
        <ele>118.065395</ele>
        <time>2026-05-05T02:04:24.227Z</time>
      </trkpt>
      <trkpt lat="43.544719" lon="10.721754">
        <ele>119.105608</ele>
        <time>2026-05-05T02:04:32.349Z</time>
      </trkpt>
      <trkpt lat="43.544801" lon="10.721668">
        <ele>119.484301</ele>
        <time>2026-05-05T02:04:35.046Z</time>
      </trkpt>
      <trkpt lat="43.545250" lon="10.721437">
        <ele>121.246088</ele>
        <time>2026-05-05T02:04:45.675Z</time>
      </trkpt>
      <trkpt lat="43.545273" lon="10.721426">
        <ele>121.335584</ele>
        <time>2026-05-05T02:04:46.171Z</time>
      </trkpt>
      <trkpt lat="43.545312" lon="10.721408">
        <ele>121.486778</ele>
        <time>2026-05-05T02:04:46.981Z</time>
      </trkpt>
      <trkpt lat="43.545685" lon="10.721232">
        <ele>122.962783</ele>
        <time>2026-05-05T02:04:55.347Z</time>
      </trkpt>
      <trkpt lat="43.545824" lon="10.721104">
        <ele>123.939037</ele>
        <time>2026-05-05T02:04:59.395Z</time>
      </trkpt>
      <trkpt lat="43.546196" lon="10.721121">
        <ele>126.113335</ele>
        <time>2026-05-05T02:05:09.929Z</time>
      </trkpt>
      <trkpt lat="43.546247" lon="10.721123">
        <ele>126.411381</ele>
        <time>2026-05-05T02:05:11.599Z</time>
      </trkpt>
      <trkpt lat="43.546331" lon="10.721123">
        <ele>126.902082</ele>
        <time>2026-05-05T02:05:14.566Z</time>
      </trkpt>
      <trkpt lat="43.546484" lon="10.721109">
        <ele>127.797823</ele>
        <time>2026-05-05T02:05:20.300Z</time>
      </trkpt>
      <trkpt lat="43.546561" lon="10.721098">
        <ele>128.250037</ele>
        <time>2026-05-05T02:05:23.361Z</time>
      </trkpt>
      <trkpt lat="43.546802" lon="10.721026">
        <ele>129.690512</ele>
        <time>2026-05-05T02:05:33.727Z</time>
      </trkpt>
      <trkpt lat="43.547028" lon="10.721004">
        <ele>131.014014</ele>
        <time>2026-05-05T02:05:43.612Z</time>
      </trkpt>
      <trkpt lat="43.547058" lon="10.721006">
        <ele>131.189469</ele>
        <time>2026-05-05T02:05:44.932Z</time>
      </trkpt>
      <trkpt lat="43.547071" lon="10.721006">
        <ele>131.265411</ele>
        <time>2026-05-05T02:05:45.541Z</time>
      </trkpt>
      <trkpt lat="43.547114" lon="10.721010">
        <ele>131.517173</ele>
        <time>2026-05-05T02:05:47.550Z</time>
      </trkpt>
      <trkpt lat="43.547369" lon="10.721014">
        <ele>133.006898</ele>
        <time>2026-05-05T02:05:59.213Z</time>
      </trkpt>
      <trkpt lat="43.547625" lon="10.720931">
        <ele>134.482483</ele>
        <time>2026-05-05T02:06:11.638Z</time>
      </trkpt>
      <trkpt lat="43.547672" lon="10.720905">
        <ele>134.762631</ele>
        <time>2026-05-05T02:06:13.983Z</time>
      </trkpt>
      <trkpt lat="43.547728" lon="10.720876">
        <ele>135.093554</ele>
        <time>2026-05-05T02:06:16.869Z</time>
      </trkpt>
      <trkpt lat="43.547864" lon="10.720831">
        <ele>135.867302</ele>
        <time>2026-05-05T02:06:23.348Z</time>
      </trkpt>
      <trkpt lat="43.547912" lon="10.720885">
        <ele>136.209951</ele>
        <time>2026-05-05T02:06:26.117Z</time>
      </trkpt>
      <trkpt lat="43.548178" lon="10.720943">
        <ele>137.699848</ele>
        <time>2026-05-05T02:06:38.095Z</time>
      </trkpt>
      <trkpt lat="43.548379" lon="10.720963">
        <ele>138.814759</ele>
        <time>2026-05-05T02:06:46.217Z</time>
      </trkpt>
      <trkpt lat="43.548519" lon="10.720979">
        <ele>139.591955</ele>
        <time>2026-05-05T02:06:51.136Z</time>
      </trkpt>
      <trkpt lat="43.548763" lon="10.721008">
        <ele>140.946872</ele>
        <time>2026-05-05T02:06:58.718Z</time>
      </trkpt>
      <trkpt lat="43.549058" lon="10.721006">
        <ele>142.578965</ele>
        <time>2026-05-05T02:07:06.515Z</time>
      </trkpt>
      <trkpt lat="43.549022" lon="10.720555">
        <ele>142.844850</ele>
        <time>2026-05-05T02:07:14.115Z</time>
      </trkpt>
      <trkpt lat="43.549014" lon="10.720328">
        <ele>142.407290</ele>
        <time>2026-05-05T02:07:17.228Z</time>
      </trkpt>
      <trkpt lat="43.549037" lon="10.720340">
        <ele>142.341971</ele>
        <time>2026-05-05T02:07:17.708Z</time>
      </trkpt>
      <trkpt lat="43.549337" lon="10.720447">
        <ele>141.518861</ele>
        <time>2026-05-05T02:07:22.393Z</time>
      </trkpt>
      <trkpt lat="43.549387" lon="10.720502">
        <ele>141.348997</ele>
        <time>2026-05-05T02:07:23.293Z</time>
      </trkpt>
      <trkpt lat="43.549391" lon="10.720840">
        <ele>140.698162</ele>
        <time>2026-05-05T02:07:26.603Z</time>
      </trkpt>
      <trkpt lat="43.549429" lon="10.721338">
        <ele>139.734069</ele>
        <time>2026-05-05T02:07:31.097Z</time>
      </trkpt>
      <trkpt lat="43.549498" lon="10.721354">
        <ele>139.548208</ele>
        <time>2026-05-05T02:07:31.930Z</time>
      </trkpt>
      <trkpt lat="43.549572" lon="10.721390">
        <ele>139.339775</ele>
        <time>2026-05-05T02:07:32.894Z</time>
      </trkpt>
      <trkpt lat="43.549647" lon="10.721221">
        <ele>138.958252</ele>
        <time>2026-05-05T02:07:34.635Z</time>
      </trkpt>
      <trkpt lat="43.549679" lon="10.720826">
        <ele>136.947661</ele>
        <time>2026-05-05T02:07:38.012Z</time>
      </trkpt>
      <trkpt lat="43.549692" lon="10.720558">
        <ele>134.726247</ele>
        <time>2026-05-05T02:07:40.209Z</time>
      </trkpt>
      <trkpt lat="43.549691" lon="10.720280">
        <ele>132.427060</ele>
        <time>2026-05-05T02:07:42.442Z</time>
      </trkpt>
      <trkpt lat="43.549602" lon="10.720057">
        <ele>130.321641</ele>
        <time>2026-05-05T02:07:44.458Z</time>
      </trkpt>
      <trkpt lat="43.549538" lon="10.719940">
        <ele>129.109351</ele>
        <time>2026-05-05T02:07:45.606Z</time>
      </trkpt>
      <trkpt lat="43.549438" lon="10.719753">
        <ele>127.187389</ele>
        <time>2026-05-05T02:07:47.385Z</time>
      </trkpt>
      <trkpt lat="43.549535" lon="10.719666">
        <ele>125.867220</ele>
        <time>2026-05-05T02:07:48.600Z</time>
      </trkpt>
      <trkpt lat="43.549646" lon="10.719647">
        <ele>124.590901</ele>
        <time>2026-05-05T02:07:49.760Z</time>
      </trkpt>
      <trkpt lat="43.550045" lon="10.719835">
        <ele>119.779789</ele>
        <time>2026-05-05T02:07:54.104Z</time>
      </trkpt>
      <trkpt lat="43.550120" lon="10.719803">
        <ele>118.883987</ele>
        <time>2026-05-05T02:07:54.920Z</time>
      </trkpt>
      <trkpt lat="43.550164" lon="10.719739">
        <ele>118.154439</ele>
        <time>2026-05-05T02:07:55.581Z</time>
      </trkpt>
      <trkpt lat="43.550181" lon="10.719698">
        <ele>117.818490</ele>
        <time>2026-05-05T02:07:55.938Z</time>
      </trkpt>
      <trkpt lat="43.550268" lon="10.719524">
        <ele>116.408166</ele>
        <time>2026-05-05T02:07:57.533Z</time>
      </trkpt>
      <trkpt lat="43.550419" lon="10.719221">
        <ele>113.954872</ele>
        <time>2026-05-05T02:08:00.311Z</time>
      </trkpt>
      <trkpt lat="43.550583" lon="10.718919">
        <ele>111.437194</ele>
        <time>2026-05-05T02:08:03.190Z</time>
      </trkpt>
      <trkpt lat="43.550877" lon="10.718513">
        <ele>107.608180</ele>
        <time>2026-05-05T02:08:07.688Z</time>
      </trkpt>
      <trkpt lat="43.551231" lon="10.718148">
        <ele>103.540155</ele>
        <time>2026-05-05T02:08:12.919Z</time>
      </trkpt>
      <trkpt lat="43.551390" lon="10.718047">
        <ele>101.928856</ele>
        <time>2026-05-05T02:08:15.426Z</time>
      </trkpt>
      <trkpt lat="43.551737" lon="10.717973">
        <ele>101.223891</ele>
        <time>2026-05-05T02:08:21.723Z</time>
      </trkpt>
      <trkpt lat="43.552181" lon="10.717893">
        <ele>100.831508</ele>
        <time>2026-05-05T02:08:30.618Z</time>
      </trkpt>
      <trkpt lat="43.552302" lon="10.717868">
        <ele>100.724293</ele>
        <time>2026-05-05T02:08:33.202Z</time>
      </trkpt>
      <trkpt lat="43.552452" lon="10.717868">
        <ele>100.592847</ele>
        <time>2026-05-05T02:08:36.524Z</time>
      </trkpt>
      <trkpt lat="43.552786" lon="10.717976">
        <ele>100.292231</ele>
        <time>2026-05-05T02:08:43.770Z</time>
      </trkpt>
      <trkpt lat="43.553456" lon="10.717951">
        <ele>98.624719</ele>
        <time>2026-05-05T02:08:53.006Z</time>
      </trkpt>
      <trkpt lat="43.553702" lon="10.717894">
        <ele>97.274925</ele>
        <time>2026-05-05T02:08:56.059Z</time>
      </trkpt>
      <trkpt lat="43.554709" lon="10.717626">
        <ele>91.725414</ele>
        <time>2026-05-05T02:09:07.815Z</time>
      </trkpt>
      <trkpt lat="43.554771" lon="10.717682">
        <ele>91.324435</ele>
        <time>2026-05-05T02:09:09.322Z</time>
      </trkpt>
      <trkpt lat="43.555014" lon="10.717733">
        <ele>90.077368</ele>
        <time>2026-05-05T02:09:14.439Z</time>
      </trkpt>
      <trkpt lat="43.555255" lon="10.717847">
        <ele>89.312442</ele>
        <time>2026-05-05T02:09:19.852Z</time>
      </trkpt>
      <trkpt lat="43.556314" lon="10.718435">
        <ele>85.885095</ele>
        <time>2026-05-05T02:09:47.567Z</time>
      </trkpt>
      <trkpt lat="43.556435" lon="10.718518">
        <ele>85.479386</ele>
        <time>2026-05-05T02:09:51.374Z</time>
      </trkpt>
      <trkpt lat="43.556718" lon="10.718545">
        <ele>84.714840</ele>
        <time>2026-05-05T02:09:59.298Z</time>
      </trkpt>
      <trkpt lat="43.557754" lon="10.718470">
        <ele>83.377030</ele>
        <time>2026-05-05T02:10:28.279Z</time>
      </trkpt>
      <trkpt lat="43.557789" lon="10.718472">
        <ele>83.331857</ele>
        <time>2026-05-05T02:10:29.244Z</time>
      </trkpt>
      <trkpt lat="43.558015" lon="10.718488">
        <ele>83.040035</ele>
        <time>2026-05-05T02:10:35.119Z</time>
      </trkpt>
      <trkpt lat="43.558594" lon="10.718618">
        <ele>81.685459</ele>
        <time>2026-05-05T02:10:49.844Z</time>
      </trkpt>
      <trkpt lat="43.558700" lon="10.718674">
        <ele>81.045784</ele>
        <time>2026-05-05T02:10:52.585Z</time>
      </trkpt>
      <trkpt lat="43.558808" lon="10.719009">
        <ele>79.548343</ele>
        <time>2026-05-05T02:10:58.938Z</time>
      </trkpt>
      <trkpt lat="43.558835" lon="10.719265">
        <ele>78.491810</ele>
        <time>2026-05-05T02:11:03.286Z</time>
      </trkpt>
      <trkpt lat="43.558895" lon="10.719378">
        <ele>77.919688</ele>
        <time>2026-05-05T02:11:05.621Z</time>
      </trkpt>
      <trkpt lat="43.559867" lon="10.719589">
        <ele>72.374360</ele>
        <time>2026-05-05T02:11:25.996Z</time>
      </trkpt>
      <trkpt lat="43.560173" lon="10.719732">
        <ele>69.172996</ele>
        <time>2026-05-05T02:11:32.336Z</time>
      </trkpt>
      <trkpt lat="43.561163" lon="10.720311">
        <ele>58.388331</ele>
        <time>2026-05-05T02:11:52.903Z</time>
      </trkpt>
      <trkpt lat="43.561621" lon="10.720797">
        <ele>53.869433</ele>
        <time>2026-05-05T02:12:04.384Z</time>
      </trkpt>
      <trkpt lat="43.561885" lon="10.720598">
        <ele>53.129672</ele>
        <time>2026-05-05T02:12:08.298Z</time>
      </trkpt>
      <trkpt lat="43.562182" lon="10.720249">
        <ele>52.170386</ele>
        <time>2026-05-05T02:12:13.655Z</time>
      </trkpt>
      <trkpt lat="43.566599" lon="10.722687">
        <ele>43.543204</ele>
        <time>2026-05-05T02:13:36.237Z</time>
      </trkpt>
      <trkpt lat="43.568741" lon="10.723464">
        <ele>42.325907</ele>
        <time>2026-05-05T02:14:16.658Z</time>
      </trkpt>
      <trkpt lat="43.568977" lon="10.723461">
        <ele>42.243840</ele>
        <time>2026-05-05T02:14:21.093Z</time>
      </trkpt>
      <trkpt lat="43.570123" lon="10.722989">
        <ele>41.844544</ele>
        <time>2026-05-05T02:14:43.956Z</time>
      </trkpt>
      <trkpt lat="43.571157" lon="10.722691">
        <ele>41.542030</ele>
        <time>2026-05-05T02:15:03.849Z</time>
      </trkpt>
      <trkpt lat="43.571443" lon="10.722357">
        <ele>41.434737</ele>
        <time>2026-05-05T02:15:10.917Z</time>
      </trkpt>
      <trkpt lat="43.571642" lon="10.722014">
        <ele>41.392585</ele>
        <time>2026-05-05T02:15:16.984Z</time>
      </trkpt>
      <trkpt lat="43.571118" lon="10.719130">
        <ele>41.089619</ele>
        <time>2026-05-05T02:15:59.445Z</time>
      </trkpt>
      <trkpt lat="43.571120" lon="10.719033">
        <ele>41.065036</ele>
        <time>2026-05-05T02:16:00.794Z</time>
      </trkpt>
      <trkpt lat="43.571132" lon="10.718481">
        <ele>40.925135</ele>
        <time>2026-05-05T02:16:08.289Z</time>
      </trkpt>
      <trkpt lat="43.573172" lon="10.718053">
        <ele>40.033590</ele>
        <time>2026-05-05T02:16:41.676Z</time>
      </trkpt>
      <trkpt lat="43.573649" lon="10.717957">
        <ele>39.802537</ele>
        <time>2026-05-05T02:16:49.854Z</time>
      </trkpt>
      <trkpt lat="43.574325" lon="10.717746">
        <ele>39.712455</ele>
        <time>2026-05-05T02:17:02.259Z</time>
      </trkpt>
      <trkpt lat="43.574887" lon="10.717517">
        <ele>39.637803</ele>
        <time>2026-05-05T02:17:12.629Z</time>
      </trkpt>
      <trkpt lat="43.576166" lon="10.717112">
        <ele>39.373655</ele>
        <time>2026-05-05T02:17:34.891Z</time>
      </trkpt>
      <trkpt lat="43.579048" lon="10.716774">
        <ele>38.651036</ele>
        <time>2026-05-05T02:18:24.142Z</time>
      </trkpt>
      <trkpt lat="43.580380" lon="10.716590">
        <ele>38.501157</ele>
        <time>2026-05-05T02:18:47.644Z</time>
      </trkpt>
      <trkpt lat="43.580428" lon="10.713915">
        <ele>38.216712</ele>
        <time>2026-05-05T02:19:21.589Z</time>
      </trkpt>
      <trkpt lat="43.582573" lon="10.713499">
        <ele>37.434015</ele>
        <time>2026-05-05T02:20:23.295Z</time>
      </trkpt>
      <trkpt lat="43.583649" lon="10.713287">
        <ele>36.858707</ele>
        <time>2026-05-05T02:20:53.688Z</time>
      </trkpt>
      <trkpt lat="43.584995" lon="10.713022">
        <ele>36.150201</ele>
        <time>2026-05-05T02:21:32.302Z</time>
      </trkpt>
      <trkpt lat="43.585182" lon="10.712934">
        <ele>36.048461</ele>
        <time>2026-05-05T02:21:38.090Z</time>
      </trkpt>
      <trkpt lat="43.585756" lon="10.712345">
        <ele>35.680161</ele>
        <time>2026-05-05T02:21:58.301Z</time>
      </trkpt>
      <trkpt lat="43.586152" lon="10.711956">
        <ele>35.409860</ele>
        <time>2026-05-05T02:22:11.202Z</time>
      </trkpt>
      <trkpt lat="43.586343" lon="10.711816">
        <ele>35.287039</ele>
        <time>2026-05-05T02:22:16.958Z</time>
      </trkpt>
      <trkpt lat="43.586557" lon="10.711834">
        <ele>35.165271</ele>
        <time>2026-05-05T02:22:22.783Z</time>
      </trkpt>
      <trkpt lat="43.586669" lon="10.711904">
        <ele>35.095446</ele>
        <time>2026-05-05T02:22:26.173Z</time>
      </trkpt>
      <trkpt lat="43.586801" lon="10.712059">
        <ele>34.997026</ele>
        <time>2026-05-05T02:22:31.007Z</time>
      </trkpt>
      <trkpt lat="43.586943" lon="10.712347">
        <ele>34.853702</ele>
        <time>2026-05-05T02:22:38.060Z</time>
      </trkpt>
      <trkpt lat="43.587114" lon="10.712704">
        <ele>34.677629</ele>
        <time>2026-05-05T02:22:46.758Z</time>
      </trkpt>
      <trkpt lat="43.587241" lon="10.713014">
        <ele>34.728907</ele>
        <time>2026-05-05T02:22:54.472Z</time>
      </trkpt>
      <trkpt lat="43.587275" lon="10.713247">
        <ele>34.900554</ele>
        <time>2026-05-05T02:23:00.023Z</time>
      </trkpt>
      <trkpt lat="43.587179" lon="10.713478">
        <ele>35.092884</ele>
        <time>2026-05-05T02:23:04.483Z</time>
      </trkpt>
      <trkpt lat="43.586894" lon="10.713912">
        <ele>35.515940</ele>
        <time>2026-05-05T02:23:14.980Z</time>
      </trkpt>
      <trkpt lat="43.587166" lon="10.714722">
        <ele>36.160707</ele>
        <time>2026-05-05T02:23:36.713Z</time>
      </trkpt>
      <trkpt lat="43.587155" lon="10.714775">
        <ele>36.200523</ele>
        <time>2026-05-05T02:23:37.974Z</time>
      </trkpt>
      <trkpt lat="43.587124" lon="10.714924">
        <ele>36.312478</ele>
        <time>2026-05-05T02:23:41.548Z</time>
      </trkpt>
      <trkpt lat="43.587070" lon="10.714999">
        <ele>36.388847</ele>
        <time>2026-05-05T02:23:43.978Z</time>
      </trkpt>
      <trkpt lat="43.586927" lon="10.715092">
        <ele>36.452419</ele>
        <time>2026-05-05T02:23:49.037Z</time>
      </trkpt>
      <trkpt lat="43.586874" lon="10.715161">
        <ele>36.479598</ele>
        <time>2026-05-05T02:23:51.348Z</time>
      </trkpt>
      <trkpt lat="43.586774" lon="10.715522">
        <ele>36.584047</ele>
        <time>2026-05-05T02:24:00.238Z</time>
      </trkpt>
      <trkpt lat="43.586868" lon="10.715704">
        <ele>36.644455</ele>
        <time>2026-05-05T02:24:03.441Z</time>
      </trkpt>
      <trkpt lat="43.587068" lon="10.716466">
        <ele>36.863482</ele>
        <time>2026-05-05T02:24:14.450Z</time>
      </trkpt>
      <trkpt lat="43.587162" lon="10.716710">
        <ele>36.938168</ele>
        <time>2026-05-05T02:24:18.137Z</time>
      </trkpt>
      <trkpt lat="43.587478" lon="10.717075">
        <ele>37.094575</ele>
        <time>2026-05-05T02:24:26.108Z</time>
      </trkpt>
      <trkpt lat="43.587541" lon="10.717188">
        <ele>37.137317</ele>
        <time>2026-05-05T02:24:28.148Z</time>
      </trkpt>
      <trkpt lat="43.587628" lon="10.717447">
        <ele>37.222890</ele>
        <time>2026-05-05T02:24:32.251Z</time>
      </trkpt>
      <trkpt lat="43.587917" lon="10.718376">
        <ele>37.525940</ele>
        <time>2026-05-05T02:24:46.826Z</time>
      </trkpt>
      <trkpt lat="43.588037" lon="10.719392">
        <ele>37.848979</ele>
        <time>2026-05-05T02:25:01.648Z</time>
      </trkpt>
      <trkpt lat="43.588175" lon="10.719600">
        <ele>37.986940</ele>
        <time>2026-05-05T02:25:05.751Z</time>
      </trkpt>
      <trkpt lat="43.589031" lon="10.720146">
        <ele>38.623669</ele>
        <time>2026-05-05T02:25:25.063Z</time>
      </trkpt>
      <trkpt lat="43.589054" lon="10.720141">
        <ele>38.639392</ele>
        <time>2026-05-05T02:25:25.534Z</time>
      </trkpt>
      <trkpt lat="43.590473" lon="10.719775">
        <ele>39.629062</ele>
        <time>2026-05-05T02:25:55.362Z</time>
      </trkpt>
      <trkpt lat="43.591253" lon="10.719367">
        <ele>40.206567</ele>
        <time>2026-05-05T02:26:11.836Z</time>
      </trkpt>
      <trkpt lat="43.591324" lon="10.719325">
        <ele>40.260047</ele>
        <time>2026-05-05T02:26:13.310Z</time>
      </trkpt>
      <trkpt lat="43.592133" lon="10.718857">
        <ele>40.345905</ele>
        <time>2026-05-05T02:26:29.668Z</time>
      </trkpt>
      <trkpt lat="43.592235" lon="10.718791">
        <ele>40.355651</ele>
        <time>2026-05-05T02:26:31.668Z</time>
      </trkpt>
      <trkpt lat="43.592422" lon="10.718689">
        <ele>40.373046</ele>
        <time>2026-05-05T02:26:35.173Z</time>
      </trkpt>
      <trkpt lat="43.592537" lon="10.718625">
        <ele>40.383773</ele>
        <time>2026-05-05T02:26:37.308Z</time>
      </trkpt>
      <trkpt lat="43.592959" lon="10.718390">
        <ele>40.423141</ele>
        <time>2026-05-05T02:26:45.185Z</time>
      </trkpt>
      <trkpt lat="43.592987" lon="10.718373">
        <ele>40.425787</ele>
        <time>2026-05-05T02:26:45.720Z</time>
      </trkpt>
      <trkpt lat="43.593488" lon="10.718104">
        <ele>40.217645</ele>
        <time>2026-05-05T02:26:55.061Z</time>
      </trkpt>
      <trkpt lat="43.593721" lon="10.718042">
        <ele>40.122618</ele>
        <time>2026-05-05T02:26:59.108Z</time>
      </trkpt>
      <trkpt lat="43.594403" lon="10.718080">
        <ele>39.849272</ele>
        <time>2026-05-05T02:27:10.194Z</time>
      </trkpt>
      <trkpt lat="43.594685" lon="10.718035">
        <ele>39.735586</ele>
        <time>2026-05-05T02:27:14.691Z</time>
      </trkpt>
      <trkpt lat="43.594848" lon="10.717932">
        <ele>39.694385</ele>
        <time>2026-05-05T02:27:17.586Z</time>
      </trkpt>
      <trkpt lat="43.595233" lon="10.717551">
        <ele>39.639793</ele>
        <time>2026-05-05T02:27:25.502Z</time>
      </trkpt>
      <trkpt lat="43.595565" lon="10.717210">
        <ele>39.592104</ele>
        <time>2026-05-05T02:27:32.624Z</time>
      </trkpt>
      <trkpt lat="43.596009" lon="10.716759">
        <ele>39.528576</ele>
        <time>2026-05-05T02:27:42.403Z</time>
      </trkpt>
      <trkpt lat="43.596131" lon="10.716635">
        <ele>39.511117</ele>
        <time>2026-05-05T02:27:45.225Z</time>
      </trkpt>
      <trkpt lat="43.596724" lon="10.715875">
        <ele>39.676305</ele>
        <time>2026-05-05T02:28:01.341Z</time>
      </trkpt>
      <trkpt lat="43.596884" lon="10.715721">
        <ele>39.725038</ele>
        <time>2026-05-05T02:28:05.006Z</time>
      </trkpt>
      <trkpt lat="43.597208" lon="10.715503">
        <ele>39.815097</ele>
        <time>2026-05-05T02:28:11.699Z</time>
      </trkpt>
      <trkpt lat="43.597281" lon="10.715456">
        <ele>39.835223</ele>
        <time>2026-05-05T02:28:13.163Z</time>
      </trkpt>
      <trkpt lat="43.597298" lon="10.715443">
        <ele>39.840078</ele>
        <time>2026-05-05T02:28:13.529Z</time>
      </trkpt>
      <trkpt lat="43.597473" lon="10.715303">
        <ele>39.890614</ele>
        <time>2026-05-05T02:28:17.191Z</time>
      </trkpt>
      <trkpt lat="43.597735" lon="10.714979">
        <ele>39.876170</ele>
        <time>2026-05-05T02:28:23.396Z</time>
      </trkpt>
      <trkpt lat="43.598035" lon="10.714575">
        <ele>39.619172</ele>
        <time>2026-05-05T02:28:30.499Z</time>
      </trkpt>
      <trkpt lat="43.598217" lon="10.714247">
        <ele>39.435648</ele>
        <time>2026-05-05T02:28:35.276Z</time>
      </trkpt>
      <trkpt lat="43.599284" lon="10.712245">
        <ele>38.429141</ele>
        <time>2026-05-05T02:29:03.426Z</time>
      </trkpt>
      <trkpt lat="43.599992" lon="10.710941">
        <ele>38.025071</ele>
        <time>2026-05-05T02:29:23.453Z</time>
      </trkpt>
      <trkpt lat="43.600741" lon="10.710000">
        <ele>38.362066</ele>
        <time>2026-05-05T02:29:43.328Z</time>
      </trkpt>
      <trkpt lat="43.601108" lon="10.709538">
        <ele>38.527338</ele>
        <time>2026-05-05T02:29:53.021Z</time>
      </trkpt>
      <trkpt lat="43.601579" lon="10.708962">
        <ele>38.449873</ele>
        <time>2026-05-05T02:30:04.721Z</time>
      </trkpt>
      <trkpt lat="43.601817" lon="10.708671">
        <ele>38.392738</ele>
        <time>2026-05-05T02:30:10.293Z</time>
      </trkpt>
      <trkpt lat="43.601905" lon="10.708552">
        <ele>38.370601</ele>
        <time>2026-05-05T02:30:12.374Z</time>
      </trkpt>
      <trkpt lat="43.602326" lon="10.708012">
        <ele>38.267327</ele>
        <time>2026-05-05T02:30:21.680Z</time>
      </trkpt>
      <trkpt lat="43.602665" lon="10.707566">
        <ele>38.206821</ele>
        <time>2026-05-05T02:30:29.139Z</time>
      </trkpt>
      <trkpt lat="43.602920" lon="10.707247">
        <ele>38.178208</ele>
        <time>2026-05-05T02:30:34.808Z</time>
      </trkpt>
      <trkpt lat="43.603041" lon="10.707136">
        <ele>38.166127</ele>
        <time>2026-05-05T02:30:37.247Z</time>
      </trkpt>
      <trkpt lat="43.603256" lon="10.706982">
        <ele>38.145986</ele>
        <time>2026-05-05T02:30:41.531Z</time>
      </trkpt>
      <trkpt lat="43.603382" lon="10.706898">
        <ele>38.134350</ele>
        <time>2026-05-05T02:30:44.243Z</time>
      </trkpt>
      <trkpt lat="43.603470" lon="10.706832">
        <ele>38.126023</ele>
        <time>2026-05-05T02:30:46.155Z</time>
      </trkpt>
      <trkpt lat="43.603552" lon="10.706771">
        <ele>38.118277</ele>
        <time>2026-05-05T02:30:47.940Z</time>
      </trkpt>
      <trkpt lat="43.603656" lon="10.706685">
        <ele>38.108196</ele>
        <time>2026-05-05T02:30:50.100Z</time>
      </trkpt>
      <trkpt lat="43.603982" lon="10.706301">
        <ele>38.127711</ele>
        <time>2026-05-05T02:30:57.921Z</time>
      </trkpt>
      <trkpt lat="43.604097" lon="10.706082">
        <ele>38.289496</ele>
        <time>2026-05-05T02:31:01.707Z</time>
      </trkpt>
      <trkpt lat="43.604102" lon="10.705834">
        <ele>38.437869</ele>
        <time>2026-05-05T02:31:05.260Z</time>
      </trkpt>
      <trkpt lat="43.603994" lon="10.705405">
        <ele>38.709494</ele>
        <time>2026-05-05T02:31:12.005Z</time>
      </trkpt>
      <trkpt lat="43.603882" lon="10.704927">
        <ele>39.009953</ele>
        <time>2026-05-05T02:31:19.731Z</time>
      </trkpt>
      <trkpt lat="43.603896" lon="10.704531">
        <ele>39.247062</ele>
        <time>2026-05-05T02:31:25.967Z</time>
      </trkpt>
      <trkpt lat="43.603997" lon="10.704033">
        <ele>39.556351</ele>
        <time>2026-05-05T02:31:33.512Z</time>
      </trkpt>
      <trkpt lat="43.604041" lon="10.703886">
        <ele>39.583961</ele>
        <time>2026-05-05T02:31:35.964Z</time>
      </trkpt>
      <trkpt lat="43.604114" lon="10.703717">
        <ele>39.611750</ele>
        <time>2026-05-05T02:31:39.091Z</time>
      </trkpt>
      <trkpt lat="43.604191" lon="10.703619">
        <ele>39.632171</ele>
        <time>2026-05-05T02:31:41.374Z</time>
      </trkpt>
      <trkpt lat="43.604274" lon="10.703548">
        <ele>39.651211</ele>
        <time>2026-05-05T02:31:43.474Z</time>
      </trkpt>
      <trkpt lat="43.604500" lon="10.703366">
        <ele>39.702232</ele>
        <time>2026-05-05T02:31:48.870Z</time>
      </trkpt>
      <trkpt lat="43.604550" lon="10.703254">
        <ele>39.720812</ele>
        <time>2026-05-05T02:31:50.726Z</time>
      </trkpt>
      <trkpt lat="43.604605" lon="10.703131">
        <ele>39.741226</ele>
        <time>2026-05-05T02:31:52.707Z</time>
      </trkpt>
      <trkpt lat="43.604677" lon="10.702869">
        <ele>39.780799</ele>
        <time>2026-05-05T02:31:56.381Z</time>
      </trkpt>
      <trkpt lat="43.604690" lon="10.702813">
        <ele>39.789104</ele>
        <time>2026-05-05T02:31:57.115Z</time>
      </trkpt>
      <trkpt lat="43.604778" lon="10.702458">
        <ele>39.842091</ele>
        <time>2026-05-05T02:32:01.606Z</time>
      </trkpt>
      <trkpt lat="43.604791" lon="10.702395">
        <ele>39.851342</ele>
        <time>2026-05-05T02:32:02.366Z</time>
      </trkpt>
      <trkpt lat="43.604927" lon="10.701724">
        <ele>40.040216</ele>
        <time>2026-05-05T02:32:10.125Z</time>
      </trkpt>
      <trkpt lat="43.604946" lon="10.701636">
        <ele>40.085882</ele>
        <time>2026-05-05T02:32:11.176Z</time>
      </trkpt>
      <trkpt lat="43.605045" lon="10.701273">
        <ele>40.278776</ele>
        <time>2026-05-05T02:32:15.697Z</time>
      </trkpt>
      <trkpt lat="43.605117" lon="10.701106">
        <ele>40.375429</ele>
        <time>2026-05-05T02:32:18.061Z</time>
      </trkpt>
      <trkpt lat="43.605352" lon="10.700560">
        <ele>40.691290</ele>
        <time>2026-05-05T02:32:26.474Z</time>
      </trkpt>
      <trkpt lat="43.605515" lon="10.700679">
        <ele>40.817911</ele>
        <time>2026-05-05T02:32:30.486Z</time>
      </trkpt>
      <trkpt lat="43.605175" lon="10.701932">
        <ele>45.415985</ele>
        <time>2026-05-05T02:32:56.349Z</time>
      </trkpt>
      <trkpt lat="43.605140" lon="10.702105">
        <ele>46.556322</ele>
        <time>2026-05-05T02:33:01.043Z</time>
      </trkpt>
      <trkpt lat="43.605086" lon="10.702378">
        <ele>48.352940</ele>
        <time>2026-05-05T02:33:07.764Z</time>
      </trkpt>
      <trkpt lat="43.605052" lon="10.702543">
        <ele>49.442018</ele>
        <time>2026-05-05T02:33:14.075Z</time>
      </trkpt>
      <trkpt lat="43.605011" lon="10.702739">
        <ele>50.737190</ele>
        <time>2026-05-05T02:33:21.520Z</time>
      </trkpt>
      <trkpt lat="43.604951" lon="10.702903">
        <ele>51.903676</ele>
        <time>2026-05-05T02:33:28.906Z</time>
      </trkpt>
      <trkpt lat="43.605013" lon="10.702920">
        <ele>52.457853</ele>
        <time>2026-05-05T02:33:32.651Z</time>
      </trkpt>
      <trkpt lat="43.605013" lon="10.702920">
        <ele>52.457853</ele>
        <time>2026-05-05T02:33:32.752Z</time>
      </trkpt>
      <trkpt lat="43.605013" lon="10.702920">
        <ele>52.457853</ele>
        <time>2026-05-05T02:33:32.752Z</time>
      </trkpt>
      <trkpt lat="43.605600" lon="10.703144">
        <ele>58.472036</ele>
        <time>2026-05-05T02:33:48.596Z</time>
      </trkpt>
      <trkpt lat="43.605600" lon="10.703144">
        <ele>58.472036</ele>
        <time>2026-05-05T02:33:48.689Z</time>
      </trkpt>
      <trkpt lat="43.605600" lon="10.703144">
        <ele>58.472036</ele>
        <time>2026-05-05T02:33:48.689Z</time>
      </trkpt>
      <trkpt lat="43.606062" lon="10.703116">
        <ele>65.640039</ele>
        <time>2026-05-05T02:34:00.830Z</time>
      </trkpt>
      <trkpt lat="43.606524" lon="10.703089">
        <ele>72.807558</ele>
        <time>2026-05-05T02:34:12.943Z</time>
      </trkpt>
      <trkpt lat="43.606524" lon="10.703089">
        <ele>72.807558</ele>
        <time>2026-05-05T02:34:12.970Z</time>
      </trkpt>
      <trkpt lat="43.606524" lon="10.703089">
        <ele>72.807558</ele>
        <time>2026-05-05T02:34:12.970Z</time>
      </trkpt>
      <trkpt lat="43.606929" lon="10.703600">
        <ele>81.310576</ele>
        <time>2026-05-05T02:34:27.291Z</time>
      </trkpt>
      <trkpt lat="43.606939" lon="10.703829">
        <ele>83.885436</ele>
        <time>2026-05-05T02:34:39.272Z</time>
      </trkpt>
      <trkpt lat="43.606911" lon="10.704274">
        <ele>87.511560</ele>
        <time>2026-05-05T02:35:00.769Z</time>
      </trkpt>
      <trkpt lat="43.606892" lon="10.704322">
        <ele>87.917864</ele>
        <time>2026-05-05T02:35:02.904Z</time>
      </trkpt>
      <trkpt lat="43.606889" lon="10.704345">
        <ele>88.091442</ele>
        <time>2026-05-05T02:35:03.891Z</time>
      </trkpt>
      <trkpt lat="43.606922" lon="10.704327">
        <ele>88.455383</ele>
        <time>2026-05-05T02:35:05.954Z</time>
      </trkpt>
      <trkpt lat="43.607330" lon="10.704295">
        <ele>92.647174</ele>
        <time>2026-05-05T02:35:27.270Z</time>
      </trkpt>
      <trkpt lat="43.607591" lon="10.704487">
        <ele>95.680483</ele>
        <time>2026-05-05T02:35:41.311Z</time>
      </trkpt>
      <trkpt lat="43.607685" lon="10.704583">
        <ele>96.879680</ele>
        <time>2026-05-05T02:35:46.943Z</time>
      </trkpt>
      <trkpt lat="43.607782" lon="10.704675">
        <ele>98.086692</ele>
        <time>2026-05-05T02:35:52.594Z</time>
      </trkpt>
      <trkpt lat="43.608150" lon="10.704876">
        <ele>102.145925</ele>
        <time>2026-05-05T02:36:12.134Z</time>
      </trkpt>
      <trkpt lat="43.608632" lon="10.705032">
        <ele>106.843942</ele>
        <time>2026-05-05T02:36:35.549Z</time>
      </trkpt>
      <trkpt lat="43.608743" lon="10.705110">
        <ele>107.999350</ele>
        <time>2026-05-05T02:36:41.491Z</time>
      </trkpt>
      <trkpt lat="43.609093" lon="10.705744">
        <ele>113.354780</ele>
        <time>2026-05-05T02:37:08.882Z</time>
      </trkpt>
      <trkpt lat="43.609263" lon="10.705904">
        <ele>115.263311</ele>
        <time>2026-05-05T02:37:18.499Z</time>
      </trkpt>
      <trkpt lat="43.609704" lon="10.705978">
        <ele>119.384673</ele>
        <time>2026-05-05T02:37:40.001Z</time>
      </trkpt>
      <trkpt lat="43.610044" lon="10.706212">
        <ele>122.749856</ele>
        <time>2026-05-05T02:38:00.666Z</time>
      </trkpt>
      <trkpt lat="43.610479" lon="10.706298">
        <ele>126.608700</ele>
        <time>2026-05-05T02:38:22.168Z</time>
      </trkpt>
      <trkpt lat="43.610697" lon="10.706221">
        <ele>128.584655</ele>
        <time>2026-05-05T02:38:32.780Z</time>
      </trkpt>
      <trkpt lat="43.610942" lon="10.706008">
        <ele>131.126851</ele>
        <time>2026-05-05T02:38:46.047Z</time>
      </trkpt>
      <trkpt lat="43.610999" lon="10.705971">
        <ele>131.679917</ele>
        <time>2026-05-05T02:38:48.811Z</time>
      </trkpt>
      <trkpt lat="43.611166" lon="10.705877">
        <ele>133.263519</ele>
        <time>2026-05-05T02:38:56.684Z</time>
      </trkpt>
      <trkpt lat="43.611356" lon="10.705862">
        <ele>134.934708</ele>
        <time>2026-05-05T02:39:04.930Z</time>
      </trkpt>
      <trkpt lat="43.611736" lon="10.705964">
        <ele>137.900816</ele>
        <time>2026-05-05T02:39:21.089Z</time>
      </trkpt>
      <trkpt lat="43.612055" lon="10.706110">
        <ele>140.361234</ele>
        <time>2026-05-05T02:39:33.776Z</time>
      </trkpt>
      <trkpt lat="43.612444" lon="10.706333">
        <ele>143.444835</ele>
        <time>2026-05-05T02:39:52.899Z</time>
      </trkpt>
      <trkpt lat="43.612546" lon="10.706423">
        <ele>144.330999</ele>
        <time>2026-05-05T02:39:59.038Z</time>
      </trkpt>
      <trkpt lat="43.612805" lon="10.706899">
        <ele>147.487305</ele>
        <time>2026-05-05T02:40:19.488Z</time>
      </trkpt>
      <trkpt lat="43.612907" lon="10.707241">
        <ele>148.687947</ele>
        <time>2026-05-05T02:40:30.448Z</time>
      </trkpt>
      <trkpt lat="43.612927" lon="10.707448">
        <ele>148.268578</ele>
        <time>2026-05-05T02:40:35.562Z</time>
      </trkpt>
      <trkpt lat="43.612919" lon="10.707683">
        <ele>147.796145</ele>
        <time>2026-05-05T02:40:40.374Z</time>
      </trkpt>
      <trkpt lat="43.612958" lon="10.707822">
        <ele>147.496788</ele>
        <time>2026-05-05T02:40:42.945Z</time>
      </trkpt>
      <trkpt lat="43.613172" lon="10.708154">
        <ele>146.604157</ele>
        <time>2026-05-05T02:40:48.268Z</time>
      </trkpt>
      <trkpt lat="43.613269" lon="10.708305">
        <ele>146.198782</ele>
        <time>2026-05-05T02:40:50.240Z</time>
      </trkpt>
      <trkpt lat="43.613668" lon="10.708992">
        <ele>144.430183</ele>
        <time>2026-05-05T02:40:57.723Z</time>
      </trkpt>
      <trkpt lat="43.613837" lon="10.709528">
        <ele>142.671224</ele>
        <time>2026-05-05T02:41:02.467Z</time>
      </trkpt>
      <trkpt lat="43.614325" lon="10.710866">
        <ele>136.962828</ele>
        <time>2026-05-05T02:41:15.384Z</time>
      </trkpt>
      <trkpt lat="43.614463" lon="10.711136">
        <ele>135.703555</ele>
        <time>2026-05-05T02:41:19.348Z</time>
      </trkpt>
      <trkpt lat="43.614770" lon="10.711578">
        <ele>135.054105</ele>
        <time>2026-05-05T02:41:29.878Z</time>
      </trkpt>
      <trkpt lat="43.614970" lon="10.711898">
        <ele>135.972853</ele>
        <time>2026-05-05T02:41:39.188Z</time>
      </trkpt>
      <trkpt lat="43.615266" lon="10.712456">
        <ele>137.476230</ele>
        <time>2026-05-05T02:41:57.406Z</time>
      </trkpt>
      <trkpt lat="43.615855" lon="10.713318">
        <ele>139.759993</ele>
        <time>2026-05-05T02:42:23.481Z</time>
      </trkpt>
      <trkpt lat="43.616064" lon="10.713730">
        <ele>139.336716</ele>
        <time>2026-05-05T02:42:30.329Z</time>
      </trkpt>
      <trkpt lat="43.616333" lon="10.714379">
        <ele>138.707501</ele>
        <time>2026-05-05T02:42:38.851Z</time>
      </trkpt>
      <trkpt lat="43.616492" lon="10.714700">
        <ele>138.380256</ele>
        <time>2026-05-05T02:42:42.880Z</time>
      </trkpt>
      <trkpt lat="43.616651" lon="10.714956">
        <ele>138.096462</ele>
        <time>2026-05-05T02:42:46.227Z</time>
      </trkpt>
      <trkpt lat="43.616978" lon="10.715394">
        <ele>137.153866</ele>
        <time>2026-05-05T02:42:52.366Z</time>
      </trkpt>
      <trkpt lat="43.617037" lon="10.715606">
        <ele>136.533906</ele>
        <time>2026-05-05T02:42:54.621Z</time>
      </trkpt>
      <trkpt lat="43.617049" lon="10.715909">
        <ele>135.705601</ele>
        <time>2026-05-05T02:42:57.645Z</time>
      </trkpt>
      <trkpt lat="43.616946" lon="10.716420">
        <ele>134.257722</ele>
        <time>2026-05-05T02:43:02.932Z</time>
      </trkpt>
      <trkpt lat="43.616647" lon="10.717355">
        <ele>131.467645</ele>
        <time>2026-05-05T02:43:12.577Z</time>
      </trkpt>
      <trkpt lat="43.616582" lon="10.718186">
        <ele>130.306908</ele>
        <time>2026-05-05T02:43:20.254Z</time>
      </trkpt>
      <trkpt lat="43.616417" lon="10.718569">
        <ele>129.854817</ele>
        <time>2026-05-05T02:43:24.512Z</time>
      </trkpt>
      <trkpt lat="43.616357" lon="10.718797">
        <ele>129.608733</ele>
        <time>2026-05-05T02:43:26.985Z</time>
      </trkpt>
      <trkpt lat="43.616381" lon="10.719257">
        <ele>129.140906</ele>
        <time>2026-05-05T02:43:32.543Z</time>
      </trkpt>
      <trkpt lat="43.616436" lon="10.719739">
        <ele>128.645937</ele>
        <time>2026-05-05T02:43:40.684Z</time>
      </trkpt>
      <trkpt lat="43.616501" lon="10.719996">
        <ele>128.753937</ele>
        <time>2026-05-05T02:43:46.281Z</time>
      </trkpt>
      <trkpt lat="43.616564" lon="10.720104">
        <ele>129.290500</ele>
        <time>2026-05-05T02:43:49.464Z</time>
      </trkpt>
      <trkpt lat="43.616611" lon="10.720136">
        <ele>129.570504</ele>
        <time>2026-05-05T02:43:51.179Z</time>
      </trkpt>
      <trkpt lat="43.616887" lon="10.720130">
        <ele>131.045529</ele>
        <time>2026-05-05T02:44:01.541Z</time>
      </trkpt>
      <trkpt lat="43.618900" lon="10.719963">
        <ele>140.413329</ele>
        <time>2026-05-05T02:45:18.338Z</time>
      </trkpt>
      <trkpt lat="43.618953" lon="10.719487">
        <ele>141.578716</ele>
        <time>2026-05-05T02:45:26.426Z</time>
      </trkpt>
      <trkpt lat="43.619018" lon="10.719257">
        <ele>142.176183</ele>
        <time>2026-05-05T02:45:30.284Z</time>
      </trkpt>
      <trkpt lat="43.619426" lon="10.718327">
        <ele>144.762141</ele>
        <time>2026-05-05T02:45:47.168Z</time>
      </trkpt>
      <trkpt lat="43.619542" lon="10.718138">
        <ele>145.324628</ele>
        <time>2026-05-05T02:45:51.769Z</time>
      </trkpt>
      <trkpt lat="43.619698" lon="10.717979">
        <ele>145.932552</ele>
        <time>2026-05-05T02:45:57.218Z</time>
      </trkpt>
      <trkpt lat="43.619979" lon="10.717790">
        <ele>146.912599</ele>
        <time>2026-05-05T02:46:06.725Z</time>
      </trkpt>
      <trkpt lat="43.620350" lon="10.717655">
        <ele>148.115648</ele>
        <time>2026-05-05T02:46:19.228Z</time>
      </trkpt>
      <trkpt lat="43.620496" lon="10.717637">
        <ele>148.575286</ele>
        <time>2026-05-05T02:46:24.015Z</time>
      </trkpt>
      <trkpt lat="43.621189" lon="10.717679">
        <ele>149.882917</ele>
        <time>2026-05-05T02:46:43.619Z</time>
      </trkpt>
      <trkpt lat="43.621388" lon="10.717653">
        <ele>149.985546</ele>
        <time>2026-05-05T02:46:48.349Z</time>
      </trkpt>
      <trkpt lat="43.621843" lon="10.717476">
        <ele>150.228242</ele>
        <time>2026-05-05T02:46:57.954Z</time>
      </trkpt>
      <trkpt lat="43.622000" lon="10.717062">
        <ele>150.401951</ele>
        <time>2026-05-05T02:47:03.584Z</time>
      </trkpt>
      <trkpt lat="43.622095" lon="10.716731">
        <ele>150.534292</ele>
        <time>2026-05-05T02:47:07.381Z</time>
      </trkpt>
      <trkpt lat="43.622142" lon="10.715971">
        <ele>149.509441</ele>
        <time>2026-05-05T02:47:15.047Z</time>
      </trkpt>
      <trkpt lat="43.622434" lon="10.714824">
        <ele>146.699393</ele>
        <time>2026-05-05T02:47:26.621Z</time>
      </trkpt>
      <trkpt lat="43.622439" lon="10.713481">
        <ele>143.230457</ele>
        <time>2026-05-05T02:47:38.664Z</time>
      </trkpt>
      <trkpt lat="43.622458" lon="10.713101">
        <ele>142.102690</ele>
        <time>2026-05-05T02:47:42.036Z</time>
      </trkpt>
      <trkpt lat="43.622441" lon="10.712767">
        <ele>141.111358</ele>
        <time>2026-05-05T02:47:45.022Z</time>
      </trkpt>
      <trkpt lat="43.622220" lon="10.711833">
        <ele>138.202033</ele>
        <time>2026-05-05T02:47:53.934Z</time>
      </trkpt>
      <trkpt lat="43.622191" lon="10.711546">
        <ele>137.427591</ele>
        <time>2026-05-05T02:47:56.601Z</time>
      </trkpt>
      <trkpt lat="43.622184" lon="10.710977">
        <ele>136.469580</ele>
        <time>2026-05-05T02:48:01.919Z</time>
      </trkpt>
      <trkpt lat="43.622301" lon="10.710300">
        <ele>135.297870</ele>
        <time>2026-05-05T02:48:08.848Z</time>
      </trkpt>
      <trkpt lat="43.622329" lon="10.709904">
        <ele>134.628060</ele>
        <time>2026-05-05T02:48:13.062Z</time>
      </trkpt>
      <trkpt lat="43.622281" lon="10.709427">
        <ele>133.817344</ele>
        <time>2026-05-05T02:48:18.136Z</time>
      </trkpt>
      <trkpt lat="43.622396" lon="10.708637">
        <ele>132.388419</ele>
        <time>2026-05-05T02:48:26.884Z</time>
      </trkpt>
      <trkpt lat="43.622487" lon="10.707730">
        <ele>130.722154</ele>
        <time>2026-05-05T02:48:36.157Z</time>
      </trkpt>
      <trkpt lat="43.622686" lon="10.707474">
        <ele>130.038593</ele>
        <time>2026-05-05T02:48:39.757Z</time>
      </trkpt>
      <trkpt lat="43.622905" lon="10.706962">
        <ele>128.956411</ele>
        <time>2026-05-05T02:48:45.218Z</time>
      </trkpt>
      <trkpt lat="43.623026" lon="10.706820">
        <ele>128.652537</ele>
        <time>2026-05-05T02:48:47.211Z</time>
      </trkpt>
      <trkpt lat="43.623100" lon="10.706799">
        <ele>128.528093</ele>
        <time>2026-05-05T02:48:48.151Z</time>
      </trkpt>
      <trkpt lat="43.623680" lon="10.706889">
        <ele>127.566663</ele>
        <time>2026-05-05T02:48:55.505Z</time>
      </trkpt>
      <trkpt lat="43.623822" lon="10.706825">
        <ele>127.320614</ele>
        <time>2026-05-05T02:48:57.454Z</time>
      </trkpt>
      <trkpt lat="43.623946" lon="10.706688">
        <ele>127.059059</ele>
        <time>2026-05-05T02:48:59.639Z</time>
      </trkpt>
      <trkpt lat="43.624149" lon="10.706132">
        <ele>126.316508</ele>
        <time>2026-05-05T02:49:07.184Z</time>
      </trkpt>
      <trkpt lat="43.624177" lon="10.706053">
        <ele>126.211620</ele>
        <time>2026-05-05T02:49:08.497Z</time>
      </trkpt>
      <trkpt lat="43.624546" lon="10.705603">
        <ele>126.579813</ele>
        <time>2026-05-05T02:49:20.846Z</time>
      </trkpt>
      <trkpt lat="43.624912" lon="10.705399">
        <ele>127.560863</ele>
        <time>2026-05-05T02:49:32.627Z</time>
      </trkpt>
      <trkpt lat="43.625417" lon="10.705299">
        <ele>128.829005</ele>
        <time>2026-05-05T02:49:48.075Z</time>
      </trkpt>
      <trkpt lat="43.625915" lon="10.705046">
        <ele>130.147968</ele>
        <time>2026-05-05T02:50:02.094Z</time>
      </trkpt>
      <trkpt lat="43.626427" lon="10.704621">
        <ele>129.241198</ele>
        <time>2026-05-05T02:50:12.817Z</time>
      </trkpt>
      <trkpt lat="43.626912" lon="10.704162">
        <ele>127.995484</ele>
        <time>2026-05-05T02:50:20.757Z</time>
      </trkpt>
      <trkpt lat="43.627205" lon="10.703957">
        <ele>127.299548</ele>
        <time>2026-05-05T02:50:24.889Z</time>
      </trkpt>
      <trkpt lat="43.627387" lon="10.703876">
        <ele>126.894380</ele>
        <time>2026-05-05T02:50:27.262Z</time>
      </trkpt>
      <trkpt lat="43.628085" lon="10.703631">
        <ele>124.293699</ele>
        <time>2026-05-05T02:50:36.115Z</time>
      </trkpt>
      <trkpt lat="43.628634" lon="10.703805">
        <ele>121.996462</ele>
        <time>2026-05-05T02:50:43.108Z</time>
      </trkpt>
      <trkpt lat="43.629223" lon="10.703553">
        <ele>119.481698</ele>
        <time>2026-05-05T02:50:50.859Z</time>
      </trkpt>
      <trkpt lat="43.629401" lon="10.703451">
        <ele>119.000687</ele>
        <time>2026-05-05T02:50:53.341Z</time>
      </trkpt>
      <trkpt lat="43.629535" lon="10.703320">
        <ele>118.740281</ele>
        <time>2026-05-05T02:50:55.469Z</time>
      </trkpt>
      <trkpt lat="43.629609" lon="10.703169">
        <ele>118.530898</ele>
        <time>2026-05-05T02:50:57.194Z</time>
      </trkpt>
      <trkpt lat="43.629665" lon="10.702979">
        <ele>118.295344</ele>
        <time>2026-05-05T02:50:59.164Z</time>
      </trkpt>
      <trkpt lat="43.629705" lon="10.702548">
        <ele>117.796411</ele>
        <time>2026-05-05T02:51:03.427Z</time>
      </trkpt>
      <trkpt lat="43.629645" lon="10.701834">
        <ele>116.971078</ele>
        <time>2026-05-05T02:51:11.880Z</time>
      </trkpt>
      <trkpt lat="43.629652" lon="10.701656">
        <ele>116.766394</ele>
        <time>2026-05-05T02:51:14.350Z</time>
      </trkpt>
      <trkpt lat="43.629754" lon="10.701199">
        <ele>116.112518</ele>
        <time>2026-05-05T02:51:21.433Z</time>
      </trkpt>
      <trkpt lat="43.629968" lon="10.700968">
        <ele>115.318461</ele>
        <time>2026-05-05T02:51:26.887Z</time>
      </trkpt>
      <trkpt lat="43.630452" lon="10.700258">
        <ele>113.254348</ele>
        <time>2026-05-05T02:51:37.871Z</time>
      </trkpt>
      <trkpt lat="43.630586" lon="10.700122">
        <ele>112.768186</ele>
        <time>2026-05-05T02:51:40.086Z</time>
      </trkpt>
      <trkpt lat="43.631143" lon="10.699754">
        <ele>110.753962</ele>
        <time>2026-05-05T02:51:47.251Z</time>
      </trkpt>
      <trkpt lat="43.631988" lon="10.698979">
        <ele>102.603170</ele>
        <time>2026-05-05T02:51:58.362Z</time>
      </trkpt>
      <trkpt lat="43.632742" lon="10.698223">
        <ele>96.186359</ele>
        <time>2026-05-05T02:52:08.819Z</time>
      </trkpt>
      <trkpt lat="43.632987" lon="10.697772">
        <ele>95.228327</ele>
        <time>2026-05-05T02:52:13.819Z</time>
      </trkpt>
      <trkpt lat="43.633525" lon="10.696845">
        <ele>93.209632</ele>
        <time>2026-05-05T02:52:27.190Z</time>
      </trkpt>
      <trkpt lat="43.633752" lon="10.696408">
        <ele>92.440943</ele>
        <time>2026-05-05T02:52:36.217Z</time>
      </trkpt>
      <trkpt lat="43.634047" lon="10.695610">
        <ele>92.925836</ele>
        <time>2026-05-05T02:52:48.680Z</time>
      </trkpt>
      <trkpt lat="43.634101" lon="10.695348">
        <ele>93.073250</ele>
        <time>2026-05-05T02:52:51.757Z</time>
      </trkpt>
      <trkpt lat="43.634010" lon="10.694759">
        <ele>93.399159</ele>
        <time>2026-05-05T02:52:59.812Z</time>
      </trkpt>
      <trkpt lat="43.634010" lon="10.694487">
        <ele>93.546348</ele>
        <time>2026-05-05T02:53:04.480Z</time>
      </trkpt>
      <trkpt lat="43.634098" lon="10.694091">
        <ele>93.791009</ele>
        <time>2026-05-05T02:53:12.624Z</time>
      </trkpt>
      <trkpt lat="43.634197" lon="10.694006">
        <ele>93.968175</ele>
        <time>2026-05-05T02:53:15.238Z</time>
      </trkpt>
      <trkpt lat="43.634293" lon="10.693938">
        <ele>94.132153</ele>
        <time>2026-05-05T02:53:17.697Z</time>
      </trkpt>
      <trkpt lat="43.635094" lon="10.693793">
        <ele>95.360072</ele>
        <time>2026-05-05T02:53:35.206Z</time>
      </trkpt>
      <trkpt lat="43.635116" lon="10.693767">
        <ele>95.404076</ele>
        <time>2026-05-05T02:53:36.091Z</time>
      </trkpt>
      <trkpt lat="43.635047" lon="10.693599">
        <ele>95.616576</ele>
        <time>2026-05-05T02:53:39.735Z</time>
      </trkpt>
      <trkpt lat="43.634801" lon="10.692558">
        <ele>96.473420</ele>
        <time>2026-05-05T02:53:58.574Z</time>
      </trkpt>
      <trkpt lat="43.634934" lon="10.691169">
        <ele>96.422277</ele>
        <time>2026-05-05T02:54:14.929Z</time>
      </trkpt>
      <trkpt lat="43.634782" lon="10.690193">
        <ele>96.250855</ele>
        <time>2026-05-05T02:54:27.427Z</time>
      </trkpt>
      <trkpt lat="43.634615" lon="10.689458">
        <ele>95.750778</ele>
        <time>2026-05-05T02:54:36.076Z</time>
      </trkpt>
      <trkpt lat="43.634564" lon="10.689069">
        <ele>95.494152</ele>
        <time>2026-05-05T02:54:40.384Z</time>
      </trkpt>
      <trkpt lat="43.634580" lon="10.688730">
        <ele>95.273626</ele>
        <time>2026-05-05T02:54:44.140Z</time>
      </trkpt>
      <trkpt lat="43.634602" lon="10.688665">
        <ele>95.227046</ele>
        <time>2026-05-05T02:54:44.940Z</time>
      </trkpt>
      <trkpt lat="43.634782" lon="10.688265">
        <ele>94.921292</ele>
        <time>2026-05-05T02:54:50.263Z</time>
      </trkpt>
      <trkpt lat="43.634933" lon="10.687884">
        <ele>94.381021</ele>
        <time>2026-05-05T02:54:58.821Z</time>
      </trkpt>
      <trkpt lat="43.634978" lon="10.687711">
        <ele>94.043617</ele>
        <time>2026-05-05T02:55:02.419Z</time>
      </trkpt>
      <trkpt lat="43.635016" lon="10.687394">
        <ele>93.453877</ele>
        <time>2026-05-05T02:55:08.615Z</time>
      </trkpt>
      <trkpt lat="43.635069" lon="10.687307">
        <ele>93.245164</ele>
        <time>2026-05-05T02:55:10.770Z</time>
      </trkpt>
      <trkpt lat="43.635263" lon="10.687188">
        <ele>92.706893</ele>
        <time>2026-05-05T02:55:16.138Z</time>
      </trkpt>
      <trkpt lat="43.635848" lon="10.686949">
        <ele>91.159887</ele>
        <time>2026-05-05T02:55:30.773Z</time>
      </trkpt>
      <trkpt lat="43.636236" lon="10.686638">
        <ele>89.681085</ele>
        <time>2026-05-05T02:55:41.209Z</time>
      </trkpt>
      <trkpt lat="43.636455" lon="10.686512">
        <ele>88.037659</ele>
        <time>2026-05-05T02:55:46.440Z</time>
      </trkpt>
      <trkpt lat="43.637122" lon="10.686410">
        <ele>83.388703</ele>
        <time>2026-05-05T02:56:00.497Z</time>
      </trkpt>
      <trkpt lat="43.637231" lon="10.686305">
        <ele>82.468195</ele>
        <time>2026-05-05T02:56:03.169Z</time>
      </trkpt>
      <trkpt lat="43.637343" lon="10.685993">
        <ele>80.722066</ele>
        <time>2026-05-05T02:56:08.212Z</time>
      </trkpt>
      <trkpt lat="43.637401" lon="10.685832">
        <ele>79.820387</ele>
        <time>2026-05-05T02:56:10.804Z</time>
      </trkpt>
      <trkpt lat="43.637456" lon="10.685752">
        <ele>79.267165</ele>
        <time>2026-05-05T02:56:12.391Z</time>
      </trkpt>
      <trkpt lat="43.637936" lon="10.685239">
        <ele>75.686427</ele>
        <time>2026-05-05T02:56:24.566Z</time>
      </trkpt>
      <trkpt lat="43.638166" lon="10.684927">
        <ele>73.969702</ele>
        <time>2026-05-05T02:56:31.165Z</time>
      </trkpt>
      <trkpt lat="43.638584" lon="10.684531">
        <ele>71.270284</ele>
        <time>2026-05-05T02:56:42.054Z</time>
      </trkpt>
      <trkpt lat="43.638650" lon="10.684499">
        <ele>70.897736</ele>
        <time>2026-05-05T02:56:43.636Z</time>
      </trkpt>
      <trkpt lat="43.639098" lon="10.684428">
        <ele>68.495918</ele>
        <time>2026-05-05T02:56:54.592Z</time>
      </trkpt>
      <trkpt lat="43.639227" lon="10.684377">
        <ele>68.281051</ele>
        <time>2026-05-05T02:56:58.272Z</time>
      </trkpt>
      <trkpt lat="43.639336" lon="10.684243">
        <ele>68.480449</ele>
        <time>2026-05-05T02:57:02.585Z</time>
      </trkpt>
      <trkpt lat="43.639546" lon="10.683747">
        <ele>69.048830</ele>
        <time>2026-05-05T02:57:16.478Z</time>
      </trkpt>
      <trkpt lat="43.639639" lon="10.683586">
        <ele>69.252581</ele>
        <time>2026-05-05T02:57:21.954Z</time>
      </trkpt>
      <trkpt lat="43.639829" lon="10.683373">
        <ele>69.586973</ele>
        <time>2026-05-05T02:57:31.370Z</time>
      </trkpt>
      <trkpt lat="43.639981" lon="10.683325">
        <ele>69.800071</ele>
        <time>2026-05-05T02:57:37.492Z</time>
      </trkpt>
      <trkpt lat="43.640477" lon="10.683386">
        <ele>70.480648</ele>
        <time>2026-05-05T02:57:57.304Z</time>
      </trkpt>
      <trkpt lat="43.640805" lon="10.683351">
        <ele>69.929829</ele>
        <time>2026-05-05T02:58:09.316Z</time>
      </trkpt>
      <trkpt lat="43.641135" lon="10.683394">
        <ele>68.836134</ele>
        <time>2026-05-05T02:58:19.535Z</time>
      </trkpt>
      <trkpt lat="43.641311" lon="10.683383">
        <ele>68.254813</ele>
        <time>2026-05-05T02:58:24.075Z</time>
      </trkpt>
      <trkpt lat="43.641427" lon="10.683343">
        <ele>67.860324</ele>
        <time>2026-05-05T02:58:26.920Z</time>
      </trkpt>
      <trkpt lat="43.641967" lon="10.682864">
        <ele>65.743033</ele>
        <time>2026-05-05T02:58:40.570Z</time>
      </trkpt>
      <trkpt lat="43.642035" lon="10.682848">
        <ele>65.515431</ele>
        <time>2026-05-05T02:58:41.996Z</time>
      </trkpt>
      <trkpt lat="43.642912" lon="10.682927">
        <ele>61.615926</ele>
        <time>2026-05-05T02:59:00.028Z</time>
      </trkpt>
      <trkpt lat="43.644251" lon="10.683102">
        <ele>55.397593</ele>
        <time>2026-05-05T02:59:31.048Z</time>
      </trkpt>
      <trkpt lat="43.644931" lon="10.683118">
        <ele>53.391804</ele>
        <time>2026-05-05T02:59:48.142Z</time>
      </trkpt>
      <trkpt lat="43.645275" lon="10.683223">
        <ele>52.352806</ele>
        <time>2026-05-05T02:59:56.701Z</time>
      </trkpt>
      <trkpt lat="43.645470" lon="10.683196">
        <ele>51.774820</ele>
        <time>2026-05-05T03:00:01.408Z</time>
      </trkpt>
      <trkpt lat="43.645747" lon="10.683111">
        <ele>50.937977</ele>
        <time>2026-05-05T03:00:08.098Z</time>
      </trkpt>
      <trkpt lat="43.645883" lon="10.683006">
        <ele>50.339201</ele>
        <time>2026-05-05T03:00:11.709Z</time>
      </trkpt>
      <trkpt lat="43.646053" lon="10.682755">
        <ele>48.884376</ele>
        <time>2026-05-05T03:00:17.387Z</time>
      </trkpt>
      <trkpt lat="43.646176" lon="10.682643">
        <ele>48.022971</ele>
        <time>2026-05-05T03:00:20.708Z</time>
      </trkpt>
      <trkpt lat="43.646348" lon="10.682573">
        <ele>46.974410</ele>
        <time>2026-05-05T03:00:24.681Z</time>
      </trkpt>
      <trkpt lat="43.646655" lon="10.682539">
        <ele>45.173329</ele>
        <time>2026-05-05T03:00:31.374Z</time>
      </trkpt>
      <trkpt lat="43.646994" lon="10.682951">
        <ele>42.533308</ele>
        <time>2026-05-05T03:00:40.826Z</time>
      </trkpt>
      <trkpt lat="43.647128" lon="10.683015">
        <ele>41.704202</ele>
        <time>2026-05-05T03:00:43.741Z</time>
      </trkpt>
      <trkpt lat="43.647200" lon="10.683006">
        <ele>41.281430</ele>
        <time>2026-05-05T03:00:45.210Z</time>
      </trkpt>
      <trkpt lat="43.647327" lon="10.682947">
        <ele>40.497897</ele>
        <time>2026-05-05T03:00:47.903Z</time>
      </trkpt>
      <trkpt lat="43.647527" lon="10.682715">
        <ele>38.770700</ele>
        <time>2026-05-05T03:00:53.180Z</time>
      </trkpt>
      <trkpt lat="43.647743" lon="10.682532">
        <ele>37.026806</ele>
        <time>2026-05-05T03:00:58.303Z</time>
      </trkpt>
      <trkpt lat="43.647798" lon="10.682434">
        <ele>36.409104</ele>
        <time>2026-05-05T03:01:00.130Z</time>
      </trkpt>
      <trkpt lat="43.647946" lon="10.681951">
        <ele>33.796680</ele>
        <time>2026-05-05T03:01:07.817Z</time>
      </trkpt>
      <trkpt lat="43.647993" lon="10.681914">
        <ele>33.424369</ele>
        <time>2026-05-05T03:01:08.914Z</time>
      </trkpt>
      <trkpt lat="43.648118" lon="10.681940">
        <ele>32.554291</ele>
        <time>2026-05-05T03:01:11.494Z</time>
      </trkpt>
      <trkpt lat="43.648288" lon="10.682133">
        <ele>31.039961</ele>
        <time>2026-05-05T03:01:16.034Z</time>
      </trkpt>
      <trkpt lat="43.648876" lon="10.683267">
        <ele>26.306404</ele>
        <time>2026-05-05T03:01:38.568Z</time>
      </trkpt>
      <trkpt lat="43.648990" lon="10.683439">
        <ele>25.853490</ele>
        <time>2026-05-05T03:01:42.668Z</time>
      </trkpt>
      <trkpt lat="43.649175" lon="10.683260">
        <ele>25.247463</ele>
        <time>2026-05-05T03:01:45.751Z</time>
      </trkpt>
      <trkpt lat="43.649621" lon="10.682997">
        <ele>23.946219</ele>
        <time>2026-05-05T03:01:52.739Z</time>
      </trkpt>
      <trkpt lat="43.650164" lon="10.682584">
        <ele>22.676143</ele>
        <time>2026-05-05T03:02:02.167Z</time>
      </trkpt>
      <trkpt lat="43.650306" lon="10.682518">
        <ele>22.532403</ele>
        <time>2026-05-05T03:02:04.460Z</time>
      </trkpt>
      <trkpt lat="43.650548" lon="10.682321">
        <ele>22.262933</ele>
        <time>2026-05-05T03:02:08.996Z</time>
      </trkpt>
      <trkpt lat="43.650769" lon="10.682091">
        <ele>21.997499</ele>
        <time>2026-05-05T03:02:13.502Z</time>
      </trkpt>
      <trkpt lat="43.651198" lon="10.681567">
        <ele>21.448185</ele>
        <time>2026-05-05T03:02:22.881Z</time>
      </trkpt>
      <trkpt lat="43.651540" lon="10.681276">
        <ele>21.101040</ele>
        <time>2026-05-05T03:02:29.487Z</time>
      </trkpt>
      <trkpt lat="43.651685" lon="10.681099">
        <ele>20.982055</ele>
        <time>2026-05-05T03:02:32.713Z</time>
      </trkpt>
      <trkpt lat="43.651939" lon="10.680541">
        <ele>20.688685</ele>
        <time>2026-05-05T03:02:40.854Z</time>
      </trkpt>
      <trkpt lat="43.652439" lon="10.679579">
        <ele>20.161583</ele>
        <time>2026-05-05T03:02:55.219Z</time>
      </trkpt>
      <trkpt lat="43.652538" lon="10.679407">
        <ele>20.063777</ele>
        <time>2026-05-05T03:02:57.932Z</time>
      </trkpt>
      <trkpt lat="43.652653" lon="10.679280">
        <ele>20.104604</ele>
        <time>2026-05-05T03:03:00.472Z</time>
      </trkpt>
      <trkpt lat="43.652861" lon="10.679159">
        <ele>20.168946</ele>
        <time>2026-05-05T03:03:04.247Z</time>
      </trkpt>
      <trkpt lat="43.653852" lon="10.678884">
        <ele>20.457131</ele>
        <time>2026-05-05T03:03:23.702Z</time>
      </trkpt>
      <trkpt lat="43.654008" lon="10.678772">
        <ele>20.507251</ele>
        <time>2026-05-05T03:03:27.307Z</time>
      </trkpt>
      <trkpt lat="43.654087" lon="10.678688">
        <ele>20.535669</ele>
        <time>2026-05-05T03:03:29.403Z</time>
      </trkpt>
      <trkpt lat="43.654257" lon="10.678400">
        <ele>20.552051</ele>
        <time>2026-05-05T03:03:34.843Z</time>
      </trkpt>
      <trkpt lat="43.654446" lon="10.677933">
        <ele>20.480258</ele>
        <time>2026-05-05T03:03:42.400Z</time>
      </trkpt>
      <trkpt lat="43.654457" lon="10.677749">
        <ele>20.455487</ele>
        <time>2026-05-05T03:03:44.934Z</time>
      </trkpt>
      <trkpt lat="43.654406" lon="10.677069">
        <ele>20.363764</ele>
        <time>2026-05-05T03:03:53.457Z</time>
      </trkpt>
      <trkpt lat="43.654399" lon="10.676589">
        <ele>20.299350</ele>
        <time>2026-05-05T03:03:58.945Z</time>
      </trkpt>
      <trkpt lat="43.654498" lon="10.675313">
        <ele>19.663182</ele>
        <time>2026-05-05T03:04:13.231Z</time>
      </trkpt>
      <trkpt lat="43.654470" lon="10.675106">
        <ele>19.521034</ele>
        <time>2026-05-05T03:04:15.533Z</time>
      </trkpt>
      <trkpt lat="43.654444" lon="10.675016">
        <ele>19.455619</ele>
        <time>2026-05-05T03:04:16.586Z</time>
      </trkpt>
      <trkpt lat="43.654436" lon="10.674847">
        <ele>19.341299</ele>
        <time>2026-05-05T03:04:18.428Z</time>
      </trkpt>
      <trkpt lat="43.654458" lon="10.674724">
        <ele>19.255773</ele>
        <time>2026-05-05T03:04:19.795Z</time>
      </trkpt>
      <trkpt lat="43.654887" lon="10.673314">
        <ele>18.473572</ele>
        <time>2026-05-05T03:04:37.163Z</time>
      </trkpt>
      <trkpt lat="43.655309" lon="10.670988">
        <ele>17.921645</ele>
        <time>2026-05-05T03:05:08.133Z</time>
      </trkpt>
      <trkpt lat="43.655633" lon="10.669201">
        <ele>17.054010</ele>
        <time>2026-05-05T03:05:29.195Z</time>
      </trkpt>
      <trkpt lat="43.655727" lon="10.668610">
        <ele>16.714675</ele>
        <time>2026-05-05T03:05:35.966Z</time>
      </trkpt>
      <trkpt lat="43.655750" lon="10.667597">
        <ele>16.091807</ele>
        <time>2026-05-05T03:05:47.500Z</time>
      </trkpt>
      <trkpt lat="43.655692" lon="10.667082">
        <ele>15.771491</ele>
        <time>2026-05-05T03:05:53.445Z</time>
      </trkpt>
      <trkpt lat="43.655528" lon="10.666199">
        <ele>15.246746</ele>
        <time>2026-05-05T03:06:03.821Z</time>
      </trkpt>
      <trkpt lat="43.655464" lon="10.665582">
        <ele>14.929031</ele>
        <time>2026-05-05T03:06:10.920Z</time>
      </trkpt>
      <trkpt lat="43.655470" lon="10.665231">
        <ele>14.750068</ele>
        <time>2026-05-05T03:06:14.932Z</time>
      </trkpt>
      <trkpt lat="43.655513" lon="10.665033">
        <ele>14.644694</ele>
        <time>2026-05-05T03:06:17.302Z</time>
      </trkpt>
      <trkpt lat="43.656283" lon="10.662786">
        <ele>13.814111</ele>
        <time>2026-05-05T03:06:46.803Z</time>
      </trkpt>
      <trkpt lat="43.656688" lon="10.661145">
        <ele>13.555087</ele>
        <time>2026-05-05T03:07:09.302Z</time>
      </trkpt>
      <trkpt lat="43.657002" lon="10.659775">
        <ele>13.472400</ele>
        <time>2026-05-05T03:07:27.089Z</time>
      </trkpt>
      <trkpt lat="43.657237" lon="10.658731">
        <ele>13.478987</ele>
        <time>2026-05-05T03:07:41.378Z</time>
      </trkpt>
      <trkpt lat="43.657387" lon="10.657927">
        <ele>13.502245</ele>
        <time>2026-05-05T03:07:51.562Z</time>
      </trkpt>
      <trkpt lat="43.657395" lon="10.657877">
        <ele>13.503679</ele>
        <time>2026-05-05T03:07:52.251Z</time>
      </trkpt>
      <trkpt lat="43.657423" lon="10.657738">
        <ele>13.507721</ele>
        <time>2026-05-05T03:07:54.137Z</time>
      </trkpt>
      <trkpt lat="43.657441" lon="10.657652">
        <ele>13.510229</ele>
        <time>2026-05-05T03:07:55.317Z</time>
      </trkpt>
      <trkpt lat="43.657500" lon="10.657425">
        <ele>13.516985</ele>
        <time>2026-05-05T03:07:58.613Z</time>
      </trkpt>
      <trkpt lat="43.657617" lon="10.657011">
        <ele>13.578038</ele>
        <time>2026-05-05T03:08:04.951Z</time>
      </trkpt>
      <trkpt lat="43.657579" lon="10.656910">
        <ele>13.624704</ele>
        <time>2026-05-05T03:08:06.560Z</time>
      </trkpt>
      <trkpt lat="43.657509" lon="10.656861">
        <ele>13.669161</ele>
        <time>2026-05-05T03:08:08.076Z</time>
      </trkpt>
      <trkpt lat="43.657177" lon="10.656876">
        <ele>13.857371</ele>
        <time>2026-05-05T03:08:14.272Z</time>
      </trkpt>
      <trkpt lat="43.657019" lon="10.656847">
        <ele>13.947678</ele>
        <time>2026-05-05T03:08:17.023Z</time>
      </trkpt>
      <trkpt lat="43.655925" lon="10.656518">
        <ele>14.605095</ele>
        <time>2026-05-05T03:08:39.519Z</time>
      </trkpt>
      <trkpt lat="43.655724" lon="10.656318">
        <ele>14.832733</ele>
        <time>2026-05-05T03:08:44.907Z</time>
      </trkpt>
      <trkpt lat="43.655156" lon="10.655430">
        <ele>15.620935</ele>
        <time>2026-05-05T03:09:03.299Z</time>
      </trkpt>
      <trkpt lat="43.655007" lon="10.655208">
        <ele>15.822305</ele>
        <time>2026-05-05T03:09:07.765Z</time>
      </trkpt>
      <trkpt lat="43.654884" lon="10.655020">
        <ele>15.990860</ele>
        <time>2026-05-05T03:09:11.444Z</time>
      </trkpt>
      <trkpt lat="43.654632" lon="10.654639">
        <ele>16.301968</ele>
        <time>2026-05-05T03:09:18.767Z</time>
      </trkpt>
      <trkpt lat="43.654594" lon="10.654533">
        <ele>16.362024</ele>
        <time>2026-05-05T03:09:20.462Z</time>
      </trkpt>
      <trkpt lat="43.654643" lon="10.654254">
        <ele>16.507776</ele>
        <time>2026-05-05T03:09:24.431Z</time>
      </trkpt>
      <trkpt lat="43.654757" lon="10.653854">
        <ele>16.726029</ele>
        <time>2026-05-05T03:09:30.363Z</time>
      </trkpt>
      <trkpt lat="43.655331" lon="10.651472">
        <ele>17.642190</ele>
        <time>2026-05-05T03:10:07.376Z</time>
      </trkpt>
      <trkpt lat="43.654304" lon="10.650993">
        <ele>17.827523</ele>
        <time>2026-05-05T03:10:27.578Z</time>
      </trkpt>
      <trkpt lat="43.654148" lon="10.650925">
        <ele>17.657137</ele>
        <time>2026-05-05T03:10:30.239Z</time>
      </trkpt>
      <trkpt lat="43.653579" lon="10.650678">
        <ele>17.035896</ele>
        <time>2026-05-05T03:10:39.809Z</time>
      </trkpt>
      <trkpt lat="43.653473" lon="10.650524">
        <ele>16.875702</ele>
        <time>2026-05-05T03:10:42.229Z</time>
      </trkpt>
      <trkpt lat="43.653407" lon="10.650453">
        <ele>16.788583</ele>
        <time>2026-05-05T03:10:43.533Z</time>
      </trkpt>
      <trkpt lat="43.653321" lon="10.650363">
        <ele>16.676220</ele>
        <time>2026-05-05T03:10:45.195Z</time>
      </trkpt>
      <trkpt lat="43.653323" lon="10.649927">
        <ele>16.347617</ele>
        <time>2026-05-05T03:10:51.555Z</time>
      </trkpt>
      <trkpt lat="43.653290" lon="10.649536">
        <ele>16.050938</ele>
        <time>2026-05-05T03:10:57.343Z</time>
      </trkpt>
      <trkpt lat="43.653382" lon="10.649025">
        <ele>15.740976</ele>
        <time>2026-05-05T03:11:05.105Z</time>
      </trkpt>
      <trkpt lat="43.653674" lon="10.648205">
        <ele>15.219565</ele>
        <time>2026-05-05T03:11:19.169Z</time>
      </trkpt>
      <trkpt lat="43.653673" lon="10.647909">
        <ele>15.050692</ele>
        <time>2026-05-05T03:11:23.724Z</time>
      </trkpt>
      <trkpt lat="43.653726" lon="10.647780">
        <ele>14.966058</ele>
        <time>2026-05-05T03:11:25.437Z</time>
      </trkpt>
      <trkpt lat="43.654046" lon="10.646938">
        <ele>14.605371</ele>
        <time>2026-05-05T03:11:36.796Z</time>
      </trkpt>
      <trkpt lat="43.654173" lon="10.646584">
        <ele>14.621215</ele>
        <time>2026-05-05T03:11:41.915Z</time>
      </trkpt>
      <trkpt lat="43.654312" lon="10.645943">
        <ele>14.648046</ele>
        <time>2026-05-05T03:11:50.946Z</time>
      </trkpt>
      <trkpt lat="43.654335" lon="10.645591">
        <ele>14.662218</ele>
        <time>2026-05-05T03:11:55.619Z</time>
      </trkpt>
      <trkpt lat="43.654279" lon="10.645154">
        <ele>14.680013</ele>
        <time>2026-05-05T03:12:01.483Z</time>
      </trkpt>
      <trkpt lat="43.654322" lon="10.644978">
        <ele>14.687462</ele>
        <time>2026-05-05T03:12:03.968Z</time>
      </trkpt>
      <trkpt lat="43.654371" lon="10.644851">
        <ele>14.693359</ele>
        <time>2026-05-05T03:12:05.883Z</time>
      </trkpt>
      <trkpt lat="43.654340" lon="10.644675">
        <ele>14.707761</ele>
        <time>2026-05-05T03:12:08.292Z</time>
      </trkpt>
      <trkpt lat="43.654353" lon="10.644274">
        <ele>14.739676</ele>
        <time>2026-05-05T03:12:13.621Z</time>
      </trkpt>
      <trkpt lat="43.654292" lon="10.643683">
        <ele>14.787142</ele>
        <time>2026-05-05T03:12:21.414Z</time>
      </trkpt>
      <trkpt lat="43.653830" lon="10.639423">
        <ele>14.932571</ele>
        <time>2026-05-05T03:13:17.686Z</time>
      </trkpt>
      <trkpt lat="43.653748" lon="10.638553">
        <ele>14.763494</ele>
        <time>2026-05-05T03:13:28.399Z</time>
      </trkpt>
      <trkpt lat="43.653756" lon="10.637816">
        <ele>14.621449</ele>
        <time>2026-05-05T03:13:37.264Z</time>
      </trkpt>
      <trkpt lat="43.653917" lon="10.635976">
        <ele>14.338972</ele>
        <time>2026-05-05T03:13:59.934Z</time>
      </trkpt>
      <trkpt lat="43.653947" lon="10.635839">
        <ele>14.318514</ele>
        <time>2026-05-05T03:14:01.729Z</time>
      </trkpt>
      <trkpt lat="43.654059" lon="10.635617">
        <ele>14.279833</ele>
        <time>2026-05-05T03:14:05.184Z</time>
      </trkpt>
      <trkpt lat="43.654116" lon="10.635550">
        <ele>14.265052</ele>
        <time>2026-05-05T03:14:06.510Z</time>
      </trkpt>
      <trkpt lat="43.654171" lon="10.635380">
        <ele>14.238437</ele>
        <time>2026-05-05T03:14:08.900Z</time>
      </trkpt>
      <trkpt lat="43.654150" lon="10.635195">
        <ele>14.211673</ele>
        <time>2026-05-05T03:14:11.290Z</time>
      </trkpt>
      <trkpt lat="43.654096" lon="10.635095">
        <ele>14.197196</ele>
        <time>2026-05-05T03:14:12.866Z</time>
      </trkpt>
      <trkpt lat="43.654040" lon="10.634833">
        <ele>14.188935</ele>
        <time>2026-05-05T03:14:16.393Z</time>
      </trkpt>
      <trkpt lat="43.654036" lon="10.634651">
        <ele>14.183430</ele>
        <time>2026-05-05T03:14:18.731Z</time>
      </trkpt>
      <trkpt lat="43.654246" lon="10.632250">
        <ele>14.199981</ele>
        <time>2026-05-05T03:14:49.610Z</time>
      </trkpt>
      <trkpt lat="43.654286" lon="10.631815">
        <ele>14.280890</ele>
        <time>2026-05-05T03:14:55.204Z</time>
      </trkpt>
      <trkpt lat="43.654335" lon="10.631486">
        <ele>14.342867</ele>
        <time>2026-05-05T03:14:59.606Z</time>
      </trkpt>
      <trkpt lat="43.654390" lon="10.631410">
        <ele>14.362700</ele>
        <time>2026-05-05T03:15:01.046Z</time>
      </trkpt>
      <trkpt lat="43.654492" lon="10.631362">
        <ele>14.390179</ele>
        <time>2026-05-05T03:15:03.071Z</time>
      </trkpt>
      <trkpt lat="43.654666" lon="10.631375">
        <ele>14.434617</ele>
        <time>2026-05-05T03:15:06.373Z</time>
      </trkpt>
      <trkpt lat="43.654604" lon="10.631337">
        <ele>14.451913</ele>
        <time>2026-05-05T03:15:07.635Z</time>
      </trkpt>
      <trkpt lat="43.654628" lon="10.631289">
        <ele>14.462679</ele>
        <time>2026-05-05T03:15:08.444Z</time>
      </trkpt>
      <trkpt lat="43.654679" lon="10.631313">
        <ele>14.476418</ele>
        <time>2026-05-05T03:15:09.488Z</time>
      </trkpt>
      <trkpt lat="43.654984" lon="10.631432">
        <ele>14.557239</ele>
        <time>2026-05-05T03:15:15.628Z</time>
      </trkpt>
      <trkpt lat="43.655125" lon="10.631413">
        <ele>14.581623</ele>
        <time>2026-05-05T03:15:18.434Z</time>
      </trkpt>
      <trkpt lat="43.655438" lon="10.631528">
        <ele>14.581623</ele>
        <time>2026-05-05T03:15:25.053Z</time>
      </trkpt>
      <trkpt lat="43.655590" lon="10.631469">
        <ele>14.581623</ele>
        <time>2026-05-05T03:15:28.410Z</time>
      </trkpt>
      <trkpt lat="43.655659" lon="10.631488">
        <ele>14.581623</ele>
        <time>2026-05-05T03:15:29.874Z</time>
      </trkpt>
      <trkpt lat="43.655747" lon="10.631021">
        <ele>14.581623</ele>
        <time>2026-05-05T03:15:37.235Z</time>
      </trkpt>
      <trkpt lat="43.655783" lon="10.630798">
        <ele>14.581623</ele>
        <time>2026-05-05T03:15:40.619Z</time>
      </trkpt>
      <trkpt lat="43.655865" lon="10.630705">
        <ele>14.581623</ele>
        <time>2026-05-05T03:15:43.337Z</time>
      </trkpt>
      <trkpt lat="43.655924" lon="10.630280">
        <ele>14.581623</ele>
        <time>2026-05-05T03:15:51.285Z</time>
      </trkpt>
      <trkpt lat="43.655928" lon="10.630243">
        <ele>14.581623</ele>
        <time>2026-05-05T03:15:51.980Z</time>
      </trkpt>
    </trkseg>
  </trk>
</gpx>